[[{"header":{"parameterUnit":"m.s-1","parameterCategory":1,"la1":30.6,"la2":28.766,"lo1":-90.7593,"lo2":-88.6598,"dy":0.0162,"dx":0.0183,"nx":116,"ny":114,"refTime":"2023-03-13T12:00:00:Z","depth":0,"parameterNumber":2,"parameterNumberName":"U-component_of_WINDS"},"data":[0.0,0.0,0.0,0.0,0.0,0.0,0.0,0.0,0.0,0.0,0.0,0.0,0.0,0.0,0.0,0.0,0.0,0.0,0.0,0.0,0.0,0.0,0.0,0.0,0.0,0.0,0.0,0.0,0.0,0.0,0.0,0.0,0.0,0.0,0.0,0.0,0.0,0.0,0.0,0.0,0.0,0.0,0.0,0.0,0.0,0.0,0.0,0.0,0.0,0.0,0.0,0.0,0.0,0.0,0.0,0.0,0.0,0.0,0.0,0.0,0.0,0.0,0.0,0.0,0.0,0.0,0.0,0.0,0.0,0.0,0.0,0.0,0.0,0.0,0.0,0.0,0.0,0.0,0.0,0.0,0.0,0.0,0.0,0.0,0.0,0.0,0.0,0.0,0.0,0.0,0.0,0.0,0.0,0.0,0.0,0.0,0.0,0.0,0.0,0.0,0.0,0.0,0.0,0.0,0.0,0.0,0.0,0.0,0.0,0.0,0.0,0.0,0.0,0.0,0.0,0.0,0.0,0.0,0.0,0.0,0.0,0.0,0.0,0.0,0.0,0.0,0.0,0.0,0.0,0.0,0.0,0.0,0.0,0.0,0.0,0.0,0.0,0.0,0.0,0.0,0.0,0.0,0.0,0.0,0.0,0.0,0.0,0.0,0.0,0.0,0.0,0.0,0.0,0.0,0.0,0.0,0.0,0.0,0.0,0.0,0.0,0.0,0.0,0.0,0.0,0.0,0.0,0.0,0.0,0.0,0.0,0.0,0.0,0.0,0.0,0.0,0.0,0.0,0.0,0.0,0.0,0.0,0.0,0.0,0.0,0.0,0.0,0.0,0.0,0.0,0.0,0.0,0.0,0.0,0.0,0.0,0.0,0.0,0.0,0.0,0.0,0.0,0.0,0.0,0.0,0.0,0.0,0.0,0.0,0.0,0.0,0.0,0.0,0.0,0.0,0.0,0.0,0.0,0.0,0.0,0.0,0.0,0.0,0.0,0.0,0.0,0.0,0.0,0.0,0.0,0.0,0.0,0.0,0.0,0.0,0.0,0.0,0.0,0.0,0.0,0.0,0.0,0.0,0.0,0.0,0.0,0.0,0.0,0.0,0.0,0.0,0.0,0.0,0.0,0.0,0.0,0.0,0.0,0.0,0.0,0.0,0.0,0.0,0.0,0.0,0.0,0.0,0.0,0.0,0.0,0.0,0.0,0.0,0.0,0.0,0.0,0.0,0.0,0.0,0.0,0.0,0.0,0.0,0.0,0.0,0.0,0.0,0.0,0.0,0.0,0.0,0.0,0.0,0.0,0.0,0.0,0.0,0.0,0.0,0.0,0.0,0.0,0.0,0.0,0.0,0.0,0.0,0.0,0.0,0.0,0.0,0.0,0.0,0.0,0.0,0.0,0.0,0.0,0.0,0.0,0.0,0.0,0.0,0.0,0.0,0.0,0.0,0.0,0.0,0.0,0.0,0.0,0.0,0.0,0.0,0.0,0.0,0.0,0.0,0.0,0.0,0.0,0.0,0.0,0.0,0.0,0.0,0.0,0.0,0.0,0.0,0.0,0.0,0.0,0.0,0.0,0.0,0.0,0.0,0.0,0.0,0.0,0.0,0.0,0.0,0.0,0.0,0.0,0.0,0.0,0.0,0.0,0.0,0.0,0.0,0.0,0.0,0.0,0.0,0.0,0.0,0.0,0.0,0.0,0.0,0.0,0.0,0.0,0.0,0.0,0.0,0.0,0.0,0.0,0.0,0.0,0.0,0.0,0.0,0.0,0.0,0.0,0.0,0.0,0.0,0.0,0.0,0.0,0.0,0.0,0.0,0.0,0.0,0.0,0.0,0.0,0.0,0.0,0.0,0.0,0.0,0.0,0.0,0.0,0.0,0.0,0.0,0.0,0.0,0.0,0.0,0.0,0.0,0.0,0.0,0.0,0.0,0.0,0.0,0.0,0.0,0.0,0.0,0.0,0.0,0.0,0.0,0.0,0.0,0.0,0.0,0.0,0.0,0.0,0.0,0.0,0.0,0.0,0.0,0.0,0.0,0.0,0.0,0.0,0.0,0.0,0.0,0.0,0.0,0.0,0.0,0.0,0.0,0.0,0.0,0.0,0.0,0.0,0.0,0.0,0.0,0.0,0.0,0.0,0.0,0.0,0.0,0.0,0.0,0.0,0.0,0.0,0.0,0.0,0.0,0.0,0.0,0.0,0.0,0.0,0.0,0.0,0.0,0.0,0.0,0.0,0.0,0.0,0.0,0.0,0.0,0.0,0.0,0.0,0.0,0.0,0.0,0.0,0.0,0.0,0.0,0.0,0.0,0.0,0.0,0.0,0.0,0.0,0.0,0.0,0.0,0.0,0.0,0.0,0.0,0.0,0.0,0.0,0.0,0.0,0.0,0.0,0.0,0.0,0.0,0.0,0.0,0.0,0.0,0.0,0.0,0.0,0.0,0.0,0.0,0.0,0.0,0.0,0.0,0.0,0.0,0.0,0.0,0.0,0.0,0.0,0.0,0.0,0.0,0.0,0.0,0.0,0.0,0.0,0.0,0.0,0.0,0.0,0.0,0.0,0.0,0.0,0.0,0.0,0.0,0.0,0.0,0.0,0.0,0.0,0.0,0.0,0.0,0.0,0.0,0.0,0.0,0.0,0.0,0.0,0.0,0.0,0.0,0.0,0.0,0.0,0.0,0.0,0.0,0.0,0.0,0.0,0.0,0.0,0.0,0.0,0.0,0.0,0.0,0.0,0.0,0.0,0.0,0.0,0.0,0.0,0.0,0.0,0.0,0.0,0.0,0.0,0.0,0.0,0.0,0.0,0.0,0.0,0.0,0.0,0.0,0.0,0.0,0.0,0.0,0.0,0.0,0.0,0.0,0.0,0.0,0.0,0.0,0.0,0.0,0.0,0.0,0.0,0.0,0.0,0.0,0.0,0.0,0.0,0.0,0.0,0.0,0.0,0.0,0.0,0.0,0.0,0.0,0.0,0.0,0.0,0.0,0.0,0.0,0.0,0.0,0.0,0.0,0.0,0.0,0.0,0.0,0.0,0.0,0.0,0.0,0.0,0.0,0.0,0.0,0.0,0.0,0.0,0.0,0.0,0.0,0.0,0.0,0.0,0.0,0.0,0.0,0.0,0.0,0.0,0.0,0.0,0.0,0.0,0.0,0.0,0.0,0.0,0.0,0.0,0.0,0.0,0.0,0.0,0.0,0.0,0.0,0.0,0.0,0.0,0.0,0.0,0.0,0.0,0.0,0.0,0.0,0.0,0.0,0.0,0.0,0.0,0.0,0.0,0.0,0.0,0.0,0.0,0.0,0.0,0.0,0.0,0.0,0.0,0.0,0.0,0.0,0.0,0.0,0.0,0.0,0.0,0.0,0.0,0.0,0.0,0.0,0.0,0.0,0.0,0.0,0.0,0.0,0.0,0.0,0.0,0.0,0.0,0.0,0.0,0.0,0.0,0.0,0.0,0.0,0.0,0.0,0.0,0.0,0.0,0.0,0.0,0.0,0.0,0.0,0.0,0.0,0.0,0.0,0.0,0.0,0.0,0.0,0.0,0.0,0.0,0.0,0.0,0.0,0.0,0.0,0.0,0.0,0.0,0.0,0.0,0.0,0.0,0.0,0.0,0.0,0.0,0.0,0.0,0.0,0.0,0.0,0.0,0.0,0.0,0.0,0.0,0.0,0.0,0.0,0.0,0.0,0.0,0.0,0.0,0.0,0.0,0.0,0.0,0.0,0.0,0.0,0.0,0.0,0.0,0.0,0.0,0.0,0.0,0.0,0.0,0.0,0.0,0.0,0.0,0.0,0.0,0.0,0.0,0.0,0.0,0.0,0.0,0.0,0.0,0.0,0.0,0.0,0.0,0.0,0.0,0.0,0.0,0.0,0.0,0.0,0.0,0.0,0.0,0.0,0.0,0.0,0.0,0.0,0.0,0.0,0.0,0.0,0.0,0.0,0.0,0.0,0.0,0.0,0.0,0.0,0.0,0.0,0.0,0.0,0.0,0.0,0.0,0.0,0.0,0.0,0.0,0.0,0.0,0.0,0.0,0.0,0.0,0.0,0.0,0.0,0.0,0.0,0.0,0.0,0.0,0.0,0.0,0.0,0.0,0.0,0.0,0.0,0.0,0.0,0.0,0.0,0.0,0.0,0.0,0.0,0.0,0.0,0.0,0.0,0.0,0.0,0.0,0.0,0.0,0.0,0.0,0.0,0.0,0.0,0.0,0.0,0.0,0.0,0.0,0.0,0.0,0.0,0.0,0.0,0.0,0.0,0.0,0.0,0.0,0.0,0.0,0.0,0.0,0.0,0.0,0.0,0.0,0.0,0.0,0.0,0.0,0.0,0.0,0.0,0.0,0.0,0.0,0.0,0.0,0.0,0.0,0.0,0.0,0.0,0.0,0.0,0.0,0.0,0.0,0.0,0.0,0.0,0.0,0.0,0.0,0.0,0.0,0.0,0.0,0.0,0.0,0.0,0.0,0.0,0.0,0.0,0.0,0.0,0.0,0.0,0.0,0.0,0.0,0.0,0.0,0.0,0.0,0.0,0.0,0.0,0.0,0.0,0.0,0.0,0.0,0.0,0.0,0.0,0.0,0.0,0.0,0.0,0.0,0.0,0.0,0.0,0.0,0.0,0.0,0.0,0.0,0.0,0.0,0.0,0.0,0.0,0.0,0.0,0.0,0.0,0.0,0.0,0.0,0.0,0.0,0.0,0.0,0.0,0.0,0.0,0.0,0.0,0.0,0.0,0.0,0.0,0.0,0.0,0.0,0.0,0.0,0.0,0.0,0.0,0.0,0.0,0.0,0.0,0.0,0.0,0.0,0.0,0.0,0.0,0.0,0.0,0.0,0.0,0.0,0.0,0.0,0.0,0.0,0.0,0.0,0.0,0.0,0.0,0.0,0.0,0.0,0.0,0.0,0.0,0.0,0.0,0.0,0.0,0.0,0.0,0.0,0.0,0.0,0.0,0.0,0.0,0.0,0.0,0.0,0.0,0.0,0.0,0.0,0.0,0.0,0.0,0.0,0.0,0.0,0.0,0.0,0.0,0.0,0.0,0.0,0.0,0.0,0.0,0.0,0.0,0.0,0.0,0.0,0.0,0.0,0.0,0.0,0.0,0.0,0.0,0.0,0.0,0.0,0.0,0.0,0.0,0.0,0.0,0.0,0.0,0.0,0.0,0.0,0.0,0.0,0.0,0.0,0.0,0.0,0.0,0.0,0.0,0.0,0.0,0.0,0.0,0.0,0.0,0.0,0.0,0.0,0.0,0.0,0.0,0.0,0.0,0.0,0.0,0.0,0.0,0.0,0.0,0.0,0.0,0.0,0.0,0.0,0.0,0.0,0.0,0.0,0.0,0.0,0.0,0.0,0.0,0.0,0.0,0.0,0.0,0.0,0.0,0.0,0.0,0.0,0.0,0.0,0.0,0.0,0.0,0.0,0.0,0.0,0.0,0.0,0.0,0.0,0.0,0.0,0.0,0.0,0.0,0.0,0.0,0.0,0.0,0.0,0.0,0.0,0.0,0.0,0.0,0.0,0.0,0.0,0.0,0.0,0.0,0.0,0.0,0.0,0.0,0.0,0.0,0.0,0.0,0.0,0.0,0.0,0.0,0.0,0.0,0.0,0.0,0.0,0.0,0.0,0.0,0.0,0.0,0.0,0.0,0.0,0.0,0.0,0.0,0.0,0.0,0.0,0.0,0.0,0.0,0.0,0.0,0.0,0.0,0.0,0.0,0.0,0.0,0.0,0.0,0.0,0.0,0.0,0.0,0.0,0.0,0.0,0.0,0.0,0.0,0.0,0.0,0.0,0.0,0.0,0.0,0.0,0.0,0.0,0.0,0.0,0.0,0.0,0.0,0.0,0.0,0.0,0.0,0.0,0.0,0.0,0.0,0.0,0.0,0.0,0.0,0.0,0.0,0.0,0.0,0.0,0.0,0.0,0.0,0.0,0.0,0.0,0.0,0.0,0.0,0.0,0.0,0.0,0.0,0.0,0.0,0.0,0.0,0.0,0.0,0.0,0.0,0.0,0.0,0.0,0.0,0.0,0.0,0.0,0.0,0.0,0.0,0.0,0.0,0.0,0.0,0.0,7.6529,0.0,0.0,0.0,0.0,0.0,0.0,0.0,0.0,0.0,0.0,0.0,0.0,0.0,0.0,0.0,0.0,0.0,0.0,0.0,0.0,0.0,0.0,0.0,0.0,0.0,0.0,0.0,0.0,0.0,0.0,0.0,0.0,0.0,0.0,0.0,0.0,0.0,0.0,0.0,0.0,0.0,0.0,0.0,0.0,0.0,0.0,0.0,0.0,0.0,0.0,0.0,0.0,0.0,0.0,0.0,0.0,0.0,0.0,0.0,0.0,0.0,0.0,0.0,0.0,0.0,0.0,0.0,0.0,0.0,0.0,0.0,0.0,0.0,0.0,0.0,0.0,0.0,0.0,0.0,0.0,0.0,0.0,0.0,0.0,0.0,0.0,0.0,0.0,0.0,0.0,0.0,0.0,0.0,0.0,0.0,0.0,0.0,0.0,0.0,0.0,0.0,0.0,0.0,0.0,0.0,0.0,0.0,0.0,0.0,0.0,0.0,0.0,0.0,0.0,0.0,0.0,7.5468,0.0,0.0,0.0,0.0,0.0,0.0,0.0,0.0,0.0,0.0,0.0,0.0,0.0,0.0,0.0,0.0,0.0,0.0,0.0,0.0,0.0,0.0,0.0,0.0,0.0,0.0,0.0,0.0,0.0,0.0,0.0,0.0,0.0,0.0,0.0,0.0,0.0,0.0,0.0,0.0,0.0,0.0,0.0,0.0,0.0,0.0,0.0,0.0,0.0,0.0,0.0,0.0,0.0,0.0,0.0,0.0,0.0,0.0,0.0,0.0,0.0,0.0,0.0,0.0,0.0,0.0,0.0,0.0,0.0,0.0,0.0,0.0,0.0,0.0,0.0,0.0,0.0,0.0,0.0,0.0,0.0,0.0,0.0,0.0,0.0,0.0,0.0,0.0,0.0,0.0,0.0,0.0,0.0,0.0,0.0,0.0,0.0,0.0,0.0,0.0,0.0,0.0,0.0,0.0,0.0,0.0,0.0,0.0,7.7654,7.7837,7.7909,7.7933,7.7146,7.5841,7.677,7.7893,7.8864,0.0,0.0,0.0,0.0,0.0,0.0,0.0,0.0,0.0,0.0,0.0,0.0,0.0,0.0,0.0,0.0,0.0,0.0,0.0,0.0,0.0,0.0,0.0,0.0,0.0,0.0,0.0,0.0,0.0,0.0,0.0,0.0,0.0,0.0,0.0,0.0,0.0,0.0,0.0,7.1987,7.1987,7.1753,7.1324,0.0,0.0,0.0,0.0,0.0,0.0,0.0,0.0,0.0,0.0,0.0,0.0,0.0,0.0,0.0,0.0,0.0,0.0,0.0,0.0,0.0,0.0,0.0,0.0,0.0,0.0,0.0,0.0,0.0,0.0,0.0,0.0,0.0,0.0,0.0,0.0,0.0,0.0,0.0,0.0,0.0,0.0,0.0,0.0,7.1395,7.4441,0.0,0.0,0.0,0.0,0.0,0.0,0.0,0.0,0.0,0.0,0.0,0.0,0.0,7.6438,7.6203,7.816,7.9149,7.9188,8.0758,8.1513,8.1506,8.1561,8.1481,8.1128,7.9097,0.0,7.7391,7.839,0.0,0.0,0.0,0.0,0.0,0.0,0.0,0.0,0.0,0.0,0.0,0.0,0.0,0.0,0.0,0.0,0.0,0.0,0.0,0.0,0.0,0.0,0.0,0.0,0.0,0.0,0.0,0.0,0.0,0.0,0.0,0.0,0.0,0.0,0.0,0.0,7.2778,7.395,7.4861,7.4861,7.4861,7.4861,7.4861,7.3369,7.0855,7.0855,0.0,0.0,0.0,0.0,0.0,0.0,0.0,0.0,0.0,0.0,0.0,0.0,0.0,0.0,0.0,0.0,0.0,0.0,0.0,0.0,0.0,0.0,0.0,0.0,0.0,0.0,0.0,0.0,0.0,0.0,0.0,0.0,0.0,0.0,0.0,0.0,0.0,0.0,0.0,7.2284,7.444,7.5934,7.6438,7.6011,0.0,0.0,0.0,0.0,0.0,0.0,0.0,0.0,0.0,7.5516,7.741,7.7964,7.6989,7.9686,8.1054,8.1093,8.2382,8.3007,8.3007,8.3538,8.3765,8.3698,8.2565,8.1831,8.1328,8.0115,8.0193,8.0975,0.0,0.0,0.0,0.0,7.6632,7.761,0.0,0.0,0.0,0.0,0.0,0.0,0.0,0.0,0.0,0.0,0.0,0.0,0.0,0.0,0.0,6.5039,0.0,0.0,0.0,0.0,0.0,0.0,0.0,0.0,0.0,0.0,0.0,0.0,7.4513,7.5915,7.713,7.7137,7.7137,7.7137,7.7371,7.5685,7.2661,7.2666,7.1651,0.0,0.0,0.0,0.0,0.0,0.0,0.0,0.0,0.0,0.0,0.0,0.0,0.0,0.0,0.0,0.0,0.0,0.0,0.0,0.0,0.0,0.0,0.0,0.0,0.0,0.0,0.0,0.0,0.0,0.0,0.0,0.0,0.0,0.0,0.0,0.0,0.0,0.0,7.4844,7.6393,7.727,7.7781,7.7423,0.0,0.0,0.0,0.0,0.0,0.0,7.7559,7.7599,7.7215,7.6441,7.8944,7.968,7.835,8.1217,8.2645,8.2645,8.3287,8.3604,8.3604,8.4033,8.4238,8.425,8.4485,8.4563,8.4368,8.2026,8.1675,8.261,8.237,8.123,7.9655,7.9209,7.96,8.0035,0.0,0.0,0.0,0.0,0.0,0.0,0.0,0.0,0.0,0.0,0.0,0.0,0.0,0.0,6.6836,6.6758,6.7617,6.7422,0.0,0.0,0.0,0.0,0.0,0.0,0.0,0.0,0.0,7.5691,7.6639,7.7103,7.7185,7.7208,7.7176,7.7215,7.8074,7.6941,7.4481,7.4481,7.3465,7.1747,0.0,0.0,0.0,0.0,0.0,0.0,0.0,0.0,0.0,0.0,0.0,0.0,0.0,0.0,0.0,0.0,0.0,0.0,0.0,0.0,0.0,0.0,0.0,0.0,0.0,0.0,0.0,0.0,0.0,0.0,0.0,0.0,0.0,0.0,0.0,0.0,0.0,0.0,0.0,7.8764,8.0725,0.0,0.0,0.0,0.0,7.6873,7.6839,7.7641,7.9375,7.9453,8.0229,8.1831,8.2065,8.2104,8.202,8.3035,8.3543,8.3543,8.3586,8.3593,8.3554,8.2773,8.2421,8.2461,8.332,8.3672,8.3711,8.4375,8.4219,8.3437,8.2617,8.124,7.9515,7.783,7.9314,8.2014,0.0,0.0,0.0,0.0,0.0,0.0,0.0,0.0,0.0,0.0,0.0,0.0,0.0,6.6992,6.8711,6.9297,7.0664,7.1211,7.0586,0.0,0.0,0.0,0.0,0.0,0.0,0.0,7.414,7.5076,7.6484,7.7499,7.804,7.8044,7.8318,7.8826,7.9139,7.8748,7.7889,7.7889,7.6912,7.535,7.5231,7.3546,0.0,0.0,0.0,0.0,0.0,0.0,0.0,0.0,0.0,0.0,0.0,0.0,0.0,0.0,0.0,0.0,0.0,0.0,0.0,0.0,0.0,0.0,0.0,0.0,0.0,0.0,0.0,0.0,0.0,0.0,0.0,0.0,0.0,0.0,0.0,0.0,0.0,7.9091,8.0002,0.0,7.9526,7.9508,7.9294,7.8669,7.9726,8.0654,8.1305,8.1344,8.1881,8.3035,8.2567,8.2567,8.3074,8.3386,8.3281,8.2788,8.3896,8.4139,8.3633,8.4453,8.4804,8.4844,8.5742,8.6094,8.6133,8.6445,8.5742,8.4414,8.4101,8.3903,8.3726,8.3119,8.4044,8.5462,0.0,0.0,0.0,0.0,0.0,0.0,0.0,0.0,0.0,0.0,0.0,6.6015,6.6015,6.8828,7.0937,7.1523,7.3164,7.3672,7.25,0.0,0.0,0.0,0.0,0.0,0.0,7.3594,7.5039,7.5937,7.707,7.8086,7.8906,7.8906,7.918,7.9726,8.0,8.0156,8.0156,8.0469,7.9609,7.8047,7.8008,7.5937,7.2884,0.0,0.0,0.0,0.0,0.0,0.0,0.0,0.0,0.0,0.0,0.0,0.0,0.0,0.0,0.0,0.0,0.0,0.0,0.0,0.0,0.0,0.0,0.0,0.0,0.0,0.0,0.0,0.0,0.0,0.0,0.0,0.0,0.0,0.0,0.0,7.7595,7.9293,8.0063,8.0423,8.0414,8.0469,8.0498,8.0498,8.1608,8.2293,8.2293,8.2293,8.2684,8.3465,8.2996,8.3113,8.3933,8.4245,8.3984,8.3179,8.4365,8.4451,8.3633,8.4492,8.4414,8.3711,8.5429,8.5664,8.4961,8.6445,8.6367,8.5351,8.5351,8.5465,8.5717,8.6008,8.6471,8.6906,0.0,0.0,0.0,0.0,0.0,0.0,0.0,0.0,0.0,0.0,6.5781,6.7539,6.918,7.1719,7.332,7.3398,7.4922,7.4453,7.1055,7.1562,0.0,0.0,0.0,0.0,7.5781,7.5117,7.5976,7.8515,7.8515,7.8945,7.9726,7.9726,7.9765,7.9805,8.0664,8.1054,8.1094,8.1953,8.1328,7.9648,7.8008,7.6328,7.457,0.0,0.0,0.0,0.0,0.0,0.0,0.0,0.0,0.0,0.0,0.0,0.0,0.0,0.0,0.0,0.0,0.0,0.0,0.0,0.0,0.0,0.0,0.0,0.0,0.0,0.0,0.0,0.0,0.0,0.0,0.0,0.0,0.0,7.3169,7.6909,7.9569,7.9577,8.1208,8.2276,8.2226,8.2246,8.2293,8.2293,8.2332,8.2332,8.2332,8.2254,8.2606,8.3386,8.3386,8.3816,8.4675,8.5612,8.569,8.4909,8.4917,8.4492,8.3594,8.2812,8.1133,7.8984,8.2344,8.2344,8.0351,8.457,8.6328,8.6328,8.625,8.5732,8.5104,8.5885,8.6197,8.6314,0.0,0.0,0.0,0.0,0.0,0.0,0.0,0.0,0.0,0.0,6.5039,6.7305,6.8398,7.1367,7.3828,7.5078,7.5625,7.5234,7.3633,0.0,0.0,0.0,0.0,0.0,7.4883,7.6562,7.7773,7.8515,7.9062,7.9805,8.0625,8.0625,8.0976,8.1601,8.1836,8.1953,8.1953,8.2187,8.2031,8.1523,8.1094,7.9844,7.8242,0.0,0.0,0.0,0.0,0.0,0.0,0.0,0.0,0.0,0.0,0.0,0.0,0.0,0.0,0.0,0.0,0.0,0.0,0.0,0.0,0.0,0.0,0.0,0.0,0.0,0.0,0.0,0.0,0.0,0.0,0.0,0.0,7.7602,7.7773,7.8352,7.943,8.1316,8.1998,8.2299,8.2276,8.2305,8.2293,8.2293,8.284,8.3152,8.3152,8.1435,8.081,8.1669,8.1083,8.1161,8.202,8.4753,8.5702,8.4901,8.5522,8.5377,8.457,8.5586,8.5703,8.5156,8.7304,8.7812,8.7265,8.8476,8.8945,8.8828,8.7617,8.7343,8.769,8.7894,8.8383,8.8618,0.0,0.0,0.0,0.0,0.0,0.0,0.0,0.0,0.0,0.0,6.5508,6.789,6.9101,7.2305,7.4805,7.582,7.6211,7.5625,7.3633,0.0,0.0,0.0,0.0,7.4453,7.6211,7.8047,7.918,7.9531,8.0039,8.0703,8.1523,8.1523,8.1797,8.2304,8.2304,8.2304,8.2304,8.2304,8.2304,8.2304,8.2304,8.125,7.9687,7.9707,7.863,7.7134,7.7095,7.7101,7.6951,7.5936,0.0,0.0,0.0,0.0,0.0,0.0,0.0,0.0,0.0,0.0,0.0,0.0,0.0,0.0,0.0,0.0,0.0,0.0,0.0,0.0,0.0,0.0,0.0,0.0,7.7044,7.9533,8.057,8.0319,8.0615,8.2137,8.2293,8.2293,8.2293,8.2606,8.2801,8.2801,8.3582,8.405,8.405,8.2645,8.1591,8.1005,8.1903,8.2098,8.1552,8.4948,8.6405,8.5952,8.6503,8.6477,8.6015,8.7031,8.6914,8.6015,8.8398,8.8867,8.8008,8.9804,9.0547,0.0,0.0,0.0,0.0,0.0,8.9583,8.9735,0.0,0.0,0.0,0.0,0.0,0.0,0.0,0.0,0.0,0.0,0.0,6.8906,7.0781,7.3945,7.5937,7.6055,7.664,7.5664,0.0,0.0,0.0,7.4609,7.5508,7.6758,7.8594,7.9414,8.0234,8.1015,8.1094,8.1523,8.2304,8.2304,8.2304,8.2304,8.2304,8.2304,8.2304,8.2304,8.2304,8.2304,8.2304,8.1367,8.0,7.9993,7.9035,7.7681,7.7681,7.7687,7.7648,7.7458,0.0,0.0,0.0,0.0,0.0,0.0,0.0,0.0,0.0,0.0,0.0,0.0,0.0,0.0,0.0,0.0,0.0,0.0,0.0,0.0,0.0,0.0,0.0,0.0,7.7693,7.9645,8.1981,8.2293,8.2293,8.2293,8.2371,8.245,8.245,8.3152,8.366,8.366,8.4441,8.4948,8.4948,0.0,0.0,0.0,0.0,8.4642,8.2456,8.5936,8.7687,8.7681,8.7768,8.7773,8.7773,8.789,8.664,8.4648,8.7773,8.7851,8.6054,8.9883,9.1445,9.1367,9.0586,9.0273,9.0234,8.9844,8.9959,9.0224,0.0,0.0,0.0,0.0,0.0,0.0,0.0,0.0,0.0,6.5039,6.6992,6.9375,7.2461,7.4648,7.6172,7.6875,7.6445,7.5273,0.0,0.0,7.1289,7.5469,7.582,7.7031,7.9414,8.0312,8.082,8.1015,8.1719,8.2148,8.2304,8.2304,8.2304,8.2304,8.2304,8.2304,8.2304,8.2304,8.2304,8.2304,8.2304,8.2109,8.1796,8.179,8.1578,8.1278,8.1278,8.1278,8.1089,7.9664,7.9167,7.9136,7.9101,0.0,0.0,0.0,0.0,0.0,0.0,0.0,0.0,0.0,0.0,0.0,0.0,0.0,0.0,0.0,0.0,0.0,0.0,0.0,0.0,7.8869,8.0402,8.1734,8.2215,8.2293,8.2293,8.2293,8.2879,8.3308,8.3347,8.4089,8.4558,8.4558,8.5377,8.5846,8.5846,8.323,8.1825,8.202,8.2696,8.3135,8.3346,8.7456,8.9482,8.9516,0.0,0.0,8.9531,9.0234,9.0273,8.9883,9.125,9.1562,9.1172,9.1992,9.2344,9.2344,9.2148,9.2109,9.1758,8.8984,8.9726,9.1718,0.0,0.0,0.0,0.0,0.0,0.0,0.0,0.0,0.0,0.0,6.6562,6.918,7.1719,7.3555,7.4765,7.5195,7.4062,0.0,0.0,7.25,7.3555,7.7031,7.7578,7.8594,8.0312,8.1211,8.164,8.164,8.2109,8.2304,8.2304,8.2304,8.2304,8.2304,8.2304,8.2304,8.2304,8.2304,8.2304,8.2304,8.2297,8.2292,8.2292,8.2292,8.232,8.2293,8.2293,8.2293,8.2182,8.1309,8.0969,8.0936,8.0937,8.0311,7.9235,0.0,0.0,0.0,0.0,0.0,0.0,0.0,0.0,0.0,0.0,0.0,0.0,0.0,0.0,7.6821,0.0,0.0,7.8042,7.8913,7.9782,8.0801,8.2104,8.2305,8.231,8.2293,8.2657,8.2896,8.2957,8.3699,8.4206,8.4206,8.5377,8.6119,8.608,8.5299,8.4284,8.2996,8.5032,8.5551,8.4277,8.8084,9.0232,9.065,9.0662,9.0898,9.1328,9.1758,9.1953,9.1953,9.2422,9.2617,9.2617,9.2617,9.2617,9.2617,9.2617,9.2617,9.2383,9.0664,9.1133,9.2344,0.0,0.0,0.0,0.0,0.0,0.0,0.0,0.0,0.0,0.0,6.664,6.9336,7.1015,7.2461,7.3164,0.0,0.0,0.0,0.0,7.4258,7.6015,7.8633,7.9531,8.0351,8.1211,8.1953,8.2304,8.2304,8.2304,8.2304,8.2304,8.2304,8.2304,8.2304,8.2304,8.2304,8.2304,8.2304,8.2304,8.2304,8.2315,8.2293,8.2293,8.232,8.2315,8.2293,8.2293,8.2293,8.2299,8.2285,8.2301,8.2304,8.2304,8.2262,8.1594,7.8419,7.8394,0.0,0.0,0.0,0.0,0.0,0.0,0.0,0.0,0.0,7.7781,7.7375,7.768,7.7811,7.7178,7.7108,7.7599,7.8922,7.9167,7.991,8.2003,8.2285,8.2285,8.2299,8.2437,8.2562,8.2545,8.3476,8.4095,8.4101,8.5651,8.6627,8.6627,8.7921,8.7492,8.4948,8.8188,8.8747,8.6151,8.9021,9.0859,9.1562,9.1562,9.1914,9.2617,9.2617,9.2617,9.2617,9.2617,9.2617,9.2617,9.2617,9.2695,9.2851,9.2851,9.2969,9.3047,9.2734,9.2617,9.2617,0.0,0.0,0.0,0.0,0.0,0.0,0.0,0.0,0.0,0.0,0.0,0.0,0.0,0.0,0.0,0.0,0.0,0.0,7.3203,7.4844,7.6875,7.9453,8.039,8.125,8.2148,8.2265,8.2304,8.2304,8.2304,8.2304,8.2304,8.2304,8.2304,8.2304,8.2304,8.2304,8.2304,8.2304,8.2304,8.2304,8.2315,8.2293,8.2293,8.2299,8.2293,8.2293,8.2293,8.2293,8.2299,8.2285,8.2301,8.2304,8.2304,8.2295,8.187,7.9811,0.0,7.8819,7.5233,7.3328,7.2734,7.4372,7.5845,7.6736,0.0,0.0,8.0975,7.8696,8.0102,8.1667,8.1573,8.1563,8.1652,8.1834,8.1875,8.1953,8.2265,8.23,8.2285,8.2299,8.2984,8.3469,8.3437,8.4875,8.5804,8.5804,8.7426,8.8422,8.8422,8.8607,8.888,8.9281,8.9756,9.0174,9.0586,9.1719,9.2344,9.2461,9.2461,9.25,9.2617,9.2617,9.2617,9.2617,9.2617,9.2617,9.2617,9.2617,9.3047,9.375,9.375,9.4219,9.4726,9.3164,9.2617,9.2617,0.0,0.0,0.0,0.0,0.0,0.0,0.0,0.0,0.0,0.0,0.0,0.0,0.0,0.0,0.0,0.0,0.0,0.0,7.2383,7.4648,7.7265,8.0312,8.082,8.1406,8.2265,8.2304,8.2304,8.2304,8.2304,8.2304,8.2304,8.2304,8.2304,8.2304,8.2304,8.2304,8.2304,8.2304,8.2304,8.2304,8.2315,8.2293,8.2293,8.2293,8.2293,8.2176,8.1161,8.081,0.0,0.0,8.0772,8.0976,8.1982,8.1608,8.0615,7.9789,7.8844,0.0,7.5668,7.5723,0.0,0.0,7.8431,7.9956,7.965,8.0953,8.1976,8.0894,8.1524,8.232,8.2295,8.1084,8.0581,0.0,8.1054,8.0625,8.2109,8.2304,8.2497,8.3001,8.2026,8.1327,8.1328,8.4257,8.5545,8.3982,8.687,8.8694,8.8702,8.9651,9.0364,9.0731,9.1242,9.1676,9.2031,9.2422,9.2617,9.2617,9.2617,9.2851,9.3359,9.3359,9.3633,9.4101,9.4101,9.4101,9.4101,9.4101,9.4336,9.4648,9.4648,9.4883,9.5117,9.4375,9.4101,9.4101,0.0,0.0,0.0,0.0,0.0,0.0,0.0,0.0,0.0,0.0,0.0,0.0,0.0,0.0,0.0,0.0,0.0,6.9883,7.2226,7.5039,7.793,8.0859,8.1211,8.164,8.2304,8.2304,8.2304,8.2304,8.2304,8.2304,8.2304,8.2304,8.2304,8.2304,8.2304,8.2304,8.2304,8.2304,8.2304,8.2304,8.2289,8.231,8.2305,8.2293,8.2137,8.1747,8.0224,7.9561,0.0,0.0,7.9157,7.9524,8.0587,8.0179,7.9242,7.8696,7.7335,7.5994,7.6087,0.0,0.0,7.8684,8.0185,8.1708,8.2176,8.2293,8.2293,8.2293,8.2305,8.2289,8.2304,8.0781,8.0156,8.1992,8.0742,8.0273,8.2383,8.2656,8.2695,8.2851,8.1406,7.9844,7.8437,8.2656,8.5078,8.414,8.7383,8.9412,8.9432,9.0833,9.1666,9.164,9.2265,9.2734,9.2969,9.2969,9.3086,9.332,9.332,9.3633,9.4258,9.4258,9.4609,9.5195,9.5195,9.5195,9.5195,9.5195,9.5351,9.5547,9.5547,9.5703,9.5898,9.5898,9.5586,9.5195,0.0,0.0,0.0,0.0,0.0,0.0,0.0,0.0,0.0,0.0,0.0,0.0,0.0,0.0,0.0,0.0,6.9687,7.1367,7.3125,7.6484,7.918,8.0937,8.1797,8.2265,8.2304,8.2304,8.2304,8.2304,8.2304,8.2304,8.2304,8.2304,8.2304,8.2304,8.2304,8.2304,8.2304,8.2304,8.2304,8.2304,8.2304,8.2301,8.2289,8.2305,8.1786,8.0927,8.0029,0.0,0.0,0.0,7.7798,7.8305,7.7564,7.7837,0.0,7.6432,7.4731,0.0,0.0,0.0,7.5545,7.8825,7.9717,8.0224,8.1903,8.2293,8.2293,8.2293,8.2292,8.2304,8.2304,8.2226,8.2226,8.2304,8.2226,8.25,8.3437,8.3554,8.2929,8.1289,8.1758,8.0234,0.0,8.0156,8.5039,8.8242,9.0195,9.1211,9.1211,9.207,9.2578,9.2578,9.2578,9.3008,9.3867,9.3867,9.4297,9.5117,9.5117,9.5117,9.5156,9.5156,9.5156,9.5195,9.5195,9.5195,9.5195,9.5195,9.5703,9.6445,9.6445,9.6953,9.7617,9.7617,9.6601,9.5195,0.0,0.0,0.0,0.0,0.0,0.0,0.0,0.0,0.0,0.0,0.0,0.0,0.0,0.0,0.0,0.0,0.0,0.0,7.2305,7.5156,7.7773,8.0039,8.1523,8.2304,8.2304,8.2304,8.2304,8.2304,8.2304,8.2304,8.2304,8.2304,8.2304,8.2304,8.2304,8.2304,8.2304,8.2304,8.2304,8.2304,8.2304,8.2304,8.2184,8.1027,8.0029,7.8936,0.0,0.0,0.0,0.0,0.0,0.0,7.5155,0.0,0.0,7.2773,0.0,0.0,0.0,0.0,7.8272,7.9405,8.0563,8.1748,8.2891,8.2723,8.2305,8.2295,8.1834,8.1445,8.1445,8.0078,7.9453,8.1172,7.9531,7.9531,8.3867,8.1523,8.1015,8.5586,8.2812,0.0,0.0,0.0,0.0,8.4492,8.9258,9.2148,9.2148,9.2422,9.2851,9.3437,9.3476,9.3867,9.4765,9.4765,9.4922,9.5195,9.5781,9.6054,9.6094,9.6601,9.6562,9.6054,9.6054,9.5742,9.5195,9.5195,9.5351,9.5625,9.5625,9.5781,9.6094,9.6679,9.6562,9.6133,0.0,0.0,0.0,0.0,0.0,0.0,0.0,0.0,0.0,0.0,0.0,0.0,0.0,0.0,0.0,0.0,0.0,0.0,7.2344,7.4336,7.6445,7.8711,7.9883,8.0469,8.0469,8.1054,8.1367,8.1367,8.1992,8.2304,8.2304,8.2304,8.2304,8.2304,8.2304,8.2304,8.2304,8.2304,8.2304,8.2265,8.1601,8.1367,8.1171,7.9465,7.8272,0.0,0.0,0.0,0.0,0.0,0.0,0.0,0.0,0.0,0.0,0.0,0.0,0.0,0.0,7.759,7.9867,8.0452,8.1461,8.2451,8.3027,8.2714,8.2292,8.2304,8.1836,8.1289,8.0664,7.9219,7.8828,8.1094,7.9609,8.0078,8.5508,8.3398,8.2929,8.7304,8.4375,8.3633,0.0,0.0,0.0,8.4297,8.8554,9.1211,9.1211,9.1484,9.25,9.4297,9.4375,9.4765,9.5664,9.5664,9.5664,9.5664,9.5937,9.6054,9.6054,9.6562,9.6172,9.5156,9.6094,9.582,9.4804,9.5703,9.6094,9.6094,9.6094,9.6094,9.6172,9.6719,9.6914,9.6992,0.0,0.0,0.0,0.0,0.0,0.0,0.0,0.0,0.0,0.0,0.0,0.0,0.0,0.0,0.0,0.0,0.0,0.0,7.3047,7.4062,7.5351,7.6992,7.7148,7.7187,7.7148,7.8672,7.9492,7.9453,8.1133,8.1953,8.1953,8.2031,8.2031,8.2031,8.2031,8.2031,8.2031,8.2031,8.1992,8.1836,8.0234,7.9531,7.9336,7.7673,7.6516,7.5423,7.2807,0.0,0.0,0.0,0.0,0.0,0.0,0.0,0.0,0.0,0.0,7.4529,7.8557,7.975,8.0302,8.202,8.2378,8.231,8.2343,8.2344,8.2304,8.2226,8.2187,8.1601,0.0,0.0,7.9961,8.1953,8.2109,8.3515,8.789,8.8437,8.7851,0.0,0.0,0.0,0.0,0.0,0.0,8.7578,0.0,8.8984,8.9023,8.9804,9.1797,9.5156,9.5273,9.5664,9.6484,9.6445,9.6445,9.6484,9.5664,9.5273,9.5312,9.5312,9.4414,9.2929,9.5429,9.5547,9.414,9.6562,9.7578,9.7578,9.7578,9.7578,9.7578,9.7617,9.7656,9.7656,0.0,0.0,0.0,0.0,0.0,0.0,0.0,0.0,0.0,0.0,0.0,0.0,0.0,0.0,0.0,0.0,0.0,0.0,7.1328,7.3398,7.4805,7.5234,7.6523,7.6914,7.625,7.664,7.6562,7.5898,7.6992,7.7539,7.7539,7.8203,7.8515,7.8515,7.8515,7.8515,7.8515,7.8515,7.8125,7.7539,7.7734,7.7461,7.6758,7.5662,7.4712,7.3627,0.0,0.0,0.0,0.0,0.0,0.0,0.0,0.0,7.3593,0.0,0.0,7.8171,7.8624,8.0615,8.2852,8.3977,8.3278,8.2459,8.3125,8.2773,8.2109,8.1484,8.0351,7.9336,0.0,0.0,0.0,8.1406,7.9609,0.0,8.5078,8.4765,0.0,0.0,0.0,8.789,8.9804,9.1367,0.0,0.0,9.0976,9.2851,9.3515,9.375,9.457,9.6133,9.6172,9.6289,9.6484,9.5859,9.5859,9.6484,9.6289,9.6484,9.707,9.707,9.6484,9.5547,9.6211,9.5898,9.4922,9.5586,9.5859,9.5859,9.5859,9.5859,9.5937,9.6562,9.6797,9.6875,0.0,0.0,0.0,0.0,0.0,0.0,0.0,0.0,0.0,0.0,0.0,0.0,0.0,0.0,0.0,0.0,0.0,0.0,0.0,7.2656,7.3476,7.3476,7.4414,7.4687,7.4219,7.4922,7.5078,7.4609,7.5469,7.5898,7.5898,7.6015,7.6055,7.6055,7.6055,7.6289,7.664,7.664,7.6367,0.0,0.0,7.5547,7.4648,7.3789,7.316,7.2432,0.0,0.0,0.0,0.0,0.0,7.3056,7.593,7.6314,7.5891,7.6922,0.0,7.9746,8.0035,8.153,8.3151,8.3632,8.3008,8.2226,8.1953,8.1523,8.082,7.957,7.8594,0.0,0.0,0.0,0.0,0.0,0.0,0.0,8.5351,8.5195,8.5312,0.0,8.7812,0.0,9.2851,9.3945,9.3828,0.0,9.2539,9.2969,9.3476,9.3867,9.4804,9.6445,9.6484,9.6484,9.6484,9.5625,9.5625,9.6484,9.6094,9.6172,9.6601,9.6601,9.5937,9.4844,0.0,9.5781,9.4726,9.5859,9.6289,9.6289,9.6289,9.6289,9.6367,9.6836,9.7031,9.7109,0.0,0.0,0.0,0.0,0.0,0.0,0.0,0.0,0.0,0.0,0.0,0.0,0.0,0.0,0.0,0.0,0.0,0.0,0.0,0.0,0.0,7.1992,7.1992,7.1953,7.1836,7.332,7.4023,7.3906,7.4805,7.5195,7.5195,7.4531,7.4258,7.4258,7.4258,7.4687,7.539,7.539,7.5312,7.5156,7.4492,7.3711,7.2851,0.0,0.0,0.0,0.0,0.0,0.0,0.0,7.4985,7.454,7.8747,7.9053,7.8429,8.1161,8.1113,8.0505,8.1769,8.2295,8.2461,8.2461,8.2383,8.1914,8.039,7.9883,7.9258,7.7695,0.0,7.7148,7.7461,7.6211,7.7226,8.3672,0.0,8.3203,8.5781,8.6914,8.7383,8.7031,8.8008,9.0117,9.3711,9.4453,9.5195,9.6406,9.3789,9.2148,9.2148,9.2773,9.414,9.6445,9.6406,9.6367,9.6484,9.5625,9.5625,9.6484,9.5742,9.5508,9.5703,9.5586,9.4765,9.3554,9.5703,9.5781,9.457,9.6797,9.7695,9.7695,9.7695,9.7695,9.7695,9.7695,9.7695,9.7695,0.0,0.0,0.0,0.0,0.0,0.0,0.0,0.0,0.0,0.0,6.9609,7.0,0.0,0.0,0.0,0.0,0.0,0.0,0.0,0.0,0.0,7.1992,7.1992,7.164,7.0937,0.0,0.0,0.0,0.0,7.1601,7.1601,7.2187,7.2461,7.2461,7.2461,7.2539,7.2695,7.2695,7.2265,7.164,7.2226,7.1914,7.1133,0.0,0.0,0.0,0.0,0.0,0.0,0.0,7.6167,7.7147,8.073,8.1664,8.127,8.0386,8.148,8.2667,8.1518,8.2265,8.3359,8.3359,8.2812,8.2226,8.1914,8.0742,0.0,0.0,0.0,7.6758,7.8867,7.8476,7.914,8.3164,0.0,0.0,0.0,0.0,8.6719,0.0,0.0,0.0,0.0,0.0,0.0,0.0,0.0,9.6601,9.6601,9.6094,9.6015,9.6484,9.5781,9.5781,9.6484,9.5625,9.5625,9.6484,9.6367,9.6992,9.832,9.7578,9.75,9.789,9.7617,0.0,9.707,9.7539,9.7695,9.7695,9.7695,9.7695,9.7695,9.7695,9.7695,9.7695,0.0,0.0,0.0,0.0,0.0,0.0,0.0,6.9375,6.9023,6.9453,6.9453,6.9922,7.1172,7.0586,7.0586,0.0,0.0,0.0,0.0,0.0,0.0,0.0,0.0,0.0,0.0,0.0,0.0,0.0,0.0,0.0,0.0,0.0,0.0,0.0,0.0,0.0,0.0,7.1328,7.1094,0.0,0.0,0.0,0.0,0.0,0.0,0.0,0.0,0.0,0.0,0.0,7.4804,7.6015,8.0779,8.2301,8.195,8.0225,8.1237,8.2529,8.0781,8.1601,8.2929,8.2929,8.2617,8.1836,8.0039,0.0,0.0,0.0,7.5117,7.5351,7.793,7.7344,0.0,0.0,0.0,0.0,0.0,0.0,0.0,0.0,0.0,0.0,0.0,0.0,0.0,0.0,0.0,9.5156,9.6992,9.6289,9.6015,9.6484,9.5664,9.5625,9.6484,9.6484,9.6953,9.7812,9.7812,9.8203,9.8984,9.8086,9.7929,9.8281,9.789,0.0,9.582,9.7148,9.6914,9.5859,9.7187,9.7695,9.7695,9.7695,9.7695,9.7695,0.0,0.0,0.0,0.0,0.0,0.0,0.0,6.9883,6.9336,6.8984,6.9258,6.9726,7.0351,7.0586,7.1055,0.0,0.0,0.0,0.0,0.0,0.0,0.0,0.0,0.0,0.0,0.0,0.0,0.0,0.0,0.0,0.0,0.0,0.0,0.0,0.0,0.0,0.0,0.0,0.0,0.0,0.0,0.0,0.0,0.0,0.0,0.0,0.0,0.0,0.0,0.0,7.3008,7.418,7.9336,8.1054,8.1015,8.0,8.0664,8.1523,8.0547,8.125,8.2304,8.2304,8.2304,8.1484,7.8437,7.7461,0.0,0.0,7.3555,7.4219,7.7187,0.0,7.789,0.0,8.4023,8.3672,8.6289,0.0,0.0,0.0,0.0,0.0,0.0,0.0,0.0,0.0,0.0,0.0,9.6094,9.5742,9.5781,9.6484,9.6015,9.6133,9.7031,9.7656,9.832,9.8984,9.8828,9.8828,9.8984,9.8086,9.7812,9.7969,9.7773,0.0,0.0,9.664,9.6211,9.414,9.6719,9.7695,9.7695,9.7695,9.7695,9.7695,0.0,0.0,0.0,0.0,0.0,0.0,0.0,6.9492,6.8867,6.7344,6.8476,6.9453,6.9609,7.0273,7.1055,0.0,0.0,0.0,0.0,0.0,0.0,0.0,0.0,0.0,0.0,0.0,0.0,0.0,0.0,0.0,0.0,0.0,0.0,0.0,0.0,0.0,0.0,0.0,0.0,0.0,0.0,0.0,0.0,0.0,0.0,0.0,0.0,0.0,0.0,0.0,0.0,7.3672,7.582,7.7031,7.793,7.9297,0.0,0.0,8.1679,8.2187,8.2304,8.2304,8.2304,8.1797,7.9883,0.0,0.0,7.5859,7.4414,7.457,7.8711,0.0,0.0,0.0,0.0,8.0976,8.3594,8.4687,8.6719,9.0586,0.0,0.0,0.0,0.0,0.0,0.0,0.0,0.0,9.5312,9.5976,9.6406,9.6484,9.7148,9.789,9.875,9.8828,9.8906,9.8984,9.8203,9.8242,9.8984,9.8086,9.8125,9.8828,9.8047,0.0,0.0,9.664,9.6211,9.414,9.6719,9.7695,9.7695,9.7695,9.7695,9.7695,0.0,0.0,0.0,0.0,0.0,0.0,6.9609,6.9023,6.8242,6.707,6.8398,6.9453,6.9492,7.0703,7.1601,7.1953,0.0,0.0,0.0,0.0,0.0,0.0,0.0,0.0,0.0,0.0,0.0,0.0,0.0,0.0,0.0,0.0,0.0,0.0,0.0,0.0,0.0,0.0,0.0,0.0,0.0,0.0,0.0,0.0,0.0,0.0,0.0,0.0,0.0,0.0,0.0,0.0,7.2383,7.3008,0.0,0.0,7.8086,7.9648,7.9336,8.0742,8.2304,8.2304,8.2304,8.1562,7.8828,0.0,7.664,7.4726,7.3789,7.3984,7.6211,7.664,7.75,8.0117,7.9648,8.0781,8.5937,8.7422,8.957,9.3906,0.0,0.0,0.0,0.0,0.0,0.0,0.0,0.0,9.6601,9.6562,9.6953,9.7969,9.832,9.8633,9.8984,9.9531,9.9531,9.8984,9.8633,9.8672,9.8984,9.8086,9.789,9.8203,9.7851,9.5351,0.0,9.6015,9.5273,9.1953,9.6094,9.7695,9.7695,9.7695,9.7695,9.7695,0.0,0.0,0.0,0.0,0.0,7.0312,6.9219,6.8789,6.8242,6.7383,6.8789,6.9844,6.9844,7.1133,7.1992,7.1992,7.1992,0.0,0.0,0.0,0.0,0.0,0.0,0.0,0.0,0.0,0.0,0.0,0.0,0.0,0.0,0.0,0.0,0.0,0.0,0.0,0.0,0.0,0.0,0.0,0.0,0.0,0.0,0.0,0.0,0.0,0.0,0.0,0.0,0.0,0.0,0.0,0.0,0.0,0.0,0.0,7.6484,7.8476,7.8047,8.0078,8.2344,8.2617,8.2304,8.1133,0.0,0.0,7.6133,7.3789,7.3086,7.3242,7.4375,7.4375,7.5156,7.8047,7.8906,8.1172,8.6797,8.875,9.1054,0.0,0.0,0.0,0.0,0.0,0.0,0.0,0.0,0.0,9.7969,9.7773,9.8164,9.9336,9.9375,9.9375,9.9375,9.9726,9.9609,9.8984,9.875,9.8203,9.75,9.7656,9.7304,9.6601,9.7383,9.5195,0.0,9.5898,9.5117,9.1601,9.5976,9.7695,9.7695,9.7695,9.7695,9.7695,0.0,0.0,0.0,0.0,0.0,0.0,6.8476,6.8867,6.9101,6.8281,6.9648,7.0703,7.0703,7.1484,7.1992,7.1992,7.1992,0.0,0.0,0.0,0.0,0.0,0.0,0.0,0.0,0.0,0.0,0.0,0.0,0.0,0.0,0.0,0.0,0.0,0.0,0.0,0.0,0.0,0.0,0.0,0.0,0.0,0.0,0.0,0.0,0.0,0.0,0.0,0.0,0.0,0.0,0.0,0.0,0.0,0.0,7.3828,7.5234,7.6484,7.8984,8.0976,8.25,8.3359,8.2304,8.0586,0.0,0.0,7.543,7.3672,7.2617,7.2539,7.4297,7.3906,7.4453,7.793,7.9883,8.1914,8.457,8.7109,8.9687,0.0,0.0,0.0,0.0,0.0,0.0,0.0,0.0,0.0,9.8945,9.9804,10.0312,10.0312,10.0312,10.0312,10.0312,9.9453,9.9023,9.8984,9.8125,9.6406,9.4023,9.6562,9.6328,9.4062,9.6601,9.625,0.0,9.664,9.6172,9.4101,9.6679,9.7695,9.7695,9.7695,9.7695,9.7695,0.0,0.0,0.0,0.0,0.0,0.0,0.0,6.8437,6.8476,6.8242,6.9648,7.0703,7.0703,7.1484,7.1992,7.1992,7.1992,0.0,0.0,0.0,0.0,0.0,0.0,0.0,0.0,0.0,7.2578,7.3711,7.3711,7.414,0.0,0.0,0.0,0.0,0.0,0.0,0.0,0.0,0.0,0.0,0.0,0.0,0.0,0.0,0.0,0.0,0.0,0.0,0.0,0.0,0.0,0.0,0.0,0.0,0.0,7.0859,7.2539,0.0,7.5117,7.7031,7.8867,7.914,7.8828,7.7969,7.6211,0.0,7.4531,7.2773,7.2187,7.2187,7.2734,7.2617,7.3555,7.7031,7.8555,8.1406,0.0,0.0,0.0,0.0,0.0,0.0,0.0,0.0,0.0,0.0,0.0,0.0,10.0586,10.0508,10.0312,10.0312,10.0312,10.0,9.9414,9.914,9.8711,9.8125,9.7812,9.6367,9.3984,9.6523,9.6328,9.4023,9.6601,9.625,9.4101,9.664,9.6211,9.414,9.6719,9.7695,9.7695,9.7695,9.7695,9.7695,0.0,0.0,0.0,0.0,0.0,0.0,0.0,6.875,6.914,6.914,7.0351,7.1172,7.1172,7.168,7.1992,7.1992,7.1992,0.0,0.0,0.0,0.0,0.0,0.0,0.0,0.0,7.1992,7.2578,7.3789,7.3476,7.375,7.457,7.3711,7.3125,0.0,0.0,0.0,0.0,0.0,0.0,0.0,0.0,0.0,7.0078,0.0,0.0,0.0,0.0,0.0,0.0,0.0,0.0,0.0,0.0,0.0,0.0,0.0,0.0,0.0,0.0,7.4492,7.6367,7.7031,7.6719,0.0,0.0,0.0,7.3711,7.2305,7.3047,7.3555,7.2226,0.0,0.0,0.0,0.0,0.0,0.0,0.0,0.0,0.0,0.0,0.0,0.0,0.0,0.0,0.0,0.0,0.0,10.1015,10.0898,10.0508,9.9844,9.9804,9.9531,9.9023,9.8672,9.8242,9.7695,9.7695,9.6367,9.3984,9.6523,9.6328,9.4062,9.6953,9.7304,0.0,9.789,9.7734,9.6484,9.8047,9.8672,9.8672,9.8672,9.8672,9.8672,0.0,0.0,0.0,0.0,0.0,0.0,0.0,6.9648,7.0703,7.0703,7.1445,7.1992,7.1992,7.1992,7.1992,7.1992,0.0,0.0,0.0,0.0,0.0,0.0,0.0,0.0,0.0,7.1992,7.2812,7.4492,7.3711,7.375,7.457,7.3711,7.2851,7.2109,0.0,0.0,0.0,0.0,0.0,0.0,0.0,0.0,0.0,0.0,0.0,0.0,0.0,0.0,0.0,0.0,0.0,0.0,0.0,0.0,0.0,0.0,0.0,0.0,0.0,0.0,0.0,0.0,0.0,0.0,0.0,0.0,0.0,0.0,0.0,0.0,0.0,0.0,0.0,0.0,0.0,0.0,0.0,0.0,0.0,0.0,0.0,0.0,0.0,0.0,0.0,0.0,0.0,0.0,10.039,10.1094,10.0703,9.9062,9.8945,9.8906,9.8906,9.8086,9.7617,9.7422,9.7617,9.6289,9.3828,9.6562,9.6445,0.0,9.7617,9.9101,9.914,9.9961,10.0312,10.0312,10.0312,10.0312,10.0312,10.0312,10.0312,10.0312,0.0,0.0,0.0,0.0,0.0,0.0,0.0,0.0,0.0,0.0,7.1445,7.1992,7.1992,7.1992,7.1992,0.0,0.0,0.0,0.0,0.0,0.0,0.0,0.0,0.0,0.0,7.1992,7.2539,7.3594,7.3398,7.375,7.457,7.3711,7.3203,7.2969,7.2305,7.1992,0.0,0.0,0.0,0.0,0.0,0.0,0.0,0.0,0.0,0.0,6.6953,6.6914,0.0,0.0,0.0,0.0,0.0,0.0,0.0,0.0,6.7031,0.0,0.0,0.0,0.0,7.2148,7.2422,7.2656,0.0,0.0,0.0,0.0,0.0,0.0,0.0,0.0,0.0,0.0,0.0,0.0,0.0,0.0,0.0,0.0,0.0,0.0,0.0,0.0,0.0,0.0,0.0,10.1289,10.1289,10.0898,10.0117,9.9023,9.8359,9.8008,9.8008,9.7812,9.6719,9.4804,9.6758,9.5664,9.207,9.6601,9.7656,9.6054,9.8789,10.0,10.0,10.0195,10.0312,10.0312,10.0312,10.0312,10.0312,10.0312,10.0312,10.0312,0.0,0.0,0.0,0.0,0.0,0.0,0.0,0.0,0.0,0.0,0.0,0.0,0.0,0.0,0.0,0.0,0.0,0.0,0.0,0.0,0.0,0.0,0.0,7.1992,7.1992,7.1992,7.2422,7.3281,7.289,7.3164,7.3984,7.3125,7.2695,7.2695,7.2226,7.1562,0.0,0.0,0.0,0.0,0.0,0.0,0.0,0.0,0.0,0.0,6.6914,6.6914,0.0,6.7344,6.7539,6.7578,0.0,0.0,0.0,0.0,6.6914,6.6992,6.7383,6.8515,7.0039,7.1992,7.1953,7.1914,7.3945,0.0,0.0,0.0,0.0,0.0,0.0,0.0,0.0,0.0,0.0,0.0,0.0,0.0,0.0,0.0,0.0,0.0,0.0,0.0,0.0,0.0,0.0,10.1015,10.1015,10.0195,9.9297,9.8437,9.7969,9.7695,9.7695,9.7695,9.6406,9.3945,9.6875,9.6484,9.3242,9.7617,9.9101,9.8281,9.8867,9.9804,10.0781,10.0,10.0586,10.2109,10.2109,10.2304,10.2695,10.2695,10.2695,10.2695,0.0,0.0,0.0,0.0,0.0,0.0,0.0,0.0,0.0,0.0,0.0,0.0,0.0,0.0,0.0,0.0,0.0,0.0,0.0,0.0,0.0,0.0,0.0,7.1992,7.1992,7.2148,7.25,7.3086,7.25,7.25,7.3086,7.2344,7.1914,7.1797,7.164,7.082,0.0,0.0,0.0,0.0,6.789,0.0,0.0,0.0,0.0,0.0,0.0,0.0,0.0,6.7734,6.75,6.7031,6.7773,0.0,0.0,0.0,0.0,0.0,6.7969,6.8281,6.9414,7.3711,7.2812,7.1992,7.625,0.0,0.0,0.0,0.0,0.0,0.0,0.0,0.0,0.0,0.0,0.0,0.0,0.0,0.0,0.0,0.0,0.0,0.0,0.0,0.0,0.0,0.0,10.039,10.0312,9.9453,9.8594,9.7734,9.7695,9.7773,9.789,9.789,9.6601,9.414,9.7578,9.7929,9.5703,9.8984,10.0586,10.0781,0.0,0.0,10.2109,10.0586,10.1719,10.4414,10.4414,10.4804,10.5508,10.5508,10.5508,10.5508,0.0,0.0,0.0,0.0,0.0,0.0,0.0,0.0,0.0,0.0,0.0,0.0,0.0,0.0,0.0,0.0,0.0,0.0,0.0,0.0,0.0,7.1992,7.1992,7.1992,7.1992,7.2734,7.2812,7.2187,7.2812,7.2773,7.2187,7.207,7.1601,7.0859,7.0117,6.9648,6.9375,6.8828,6.8359,6.8008,6.8164,0.0,0.0,0.0,0.0,0.0,0.0,0.0,0.0,6.7031,6.6992,6.6914,6.707,0.0,0.0,0.0,0.0,0.0,6.7969,6.8711,7.0273,7.4609,7.3711,7.2734,0.0,0.0,0.0,0.0,0.0,0.0,0.0,0.0,0.0,0.0,0.0,0.0,0.0,0.0,0.0,0.0,0.0,0.0,0.0,0.0,0.0,0.0,0.0,10.1094,10.0312,9.9453,9.8594,9.7734,9.7695,9.8047,9.8789,9.8789,9.7539,9.5039,9.8476,9.9101,9.7422,10.0195,10.2187,10.3594,0.0,10.3789,10.4883,10.4609,10.4804,10.5312,10.5312,10.539,10.5508,10.5508,10.5508,10.5508,0.0,0.0,0.0,0.0,0.0,0.0,0.0,0.0,0.0,0.0,0.0,0.0,0.0,0.0,0.0,0.0,0.0,0.0,0.0,0.0,7.1992,7.1992,7.1992,7.1992,7.1992,7.2851,7.2851,7.1992,7.2851,7.2851,7.1992,7.1523,7.1094,7.0664,6.9805,6.914,6.8711,6.8359,6.793,6.75,0.0,0.0,0.0,0.0,0.0,0.0,0.0,0.0,0.0,0.0,6.6914,6.6914,6.6914,0.0,0.0,0.0,0.0,0.0,6.9219,6.9805,7.1719,7.8398,7.6015,7.3906,0.0,0.0,0.0,0.0,0.0,0.0,0.0,0.0,0.0,0.0,0.0,0.0,0.0,0.0,0.0,0.0,0.0,0.0,0.0,0.0,0.0,0.0,0.0,0.0,9.9648,9.8789,9.8125,9.7695,9.8164,9.8594,9.8984,9.9922,9.8906,9.5937,9.9375,10.0117,9.8515,10.1601,10.3711,10.4804,0.0,10.3789,10.539,10.3984,10.4492,10.6093,10.6093,10.6406,10.6914,10.6914,10.6914,10.6914,0.0,0.0,0.0,0.0,0.0,0.0,0.0,0.0,0.0,0.0,0.0,0.0,0.0,0.0,0.0,0.0,0.0,0.0,0.0,0.0,7.1992,7.1992,7.1992,7.2109,7.2305,7.2969,7.2969,7.2305,7.2969,7.2734,7.168,7.1015,7.0508,7.0078,6.9414,6.8672,6.789,6.789,6.75,6.6914,0.0,0.0,0.0,0.0,0.0,0.0,0.0,0.0,0.0,0.0,0.0,0.0,0.0,0.0,0.0,6.6914,6.7539,6.8555,7.0234,7.0703,7.2578,0.0,0.0,0.0,0.0,0.0,0.0,0.0,0.0,0.0,0.0,0.0,0.0,0.0,0.0,0.0,0.0,0.0,0.0,0.0,0.0,0.0,0.0,0.0,0.0,0.0,0.0,0.0,9.9062,9.8164,9.7773,9.8008,9.8633,9.9219,9.9609,10.1094,10.0586,9.8047,10.0898,10.1601,10.0586,10.3281,10.5,10.5703,10.3711,10.3984,10.5898,10.3906,10.4609,10.6992,10.6992,10.7383,10.8008,10.8008,10.8008,10.8008,0.0,0.0,0.0,0.0,0.0,0.0,0.0,0.0,0.0,0.0,0.0,0.0,0.0,0.0,0.0,0.0,0.0,0.0,0.0,0.0,7.1992,7.1992,7.1992,7.2383,7.3203,7.3281,7.3281,7.3203,7.3281,7.2422,7.0781,7.0742,6.9883,6.8398,6.832,6.7812,6.6992,6.6992,6.6953,6.6914,6.6914,0.0,0.0,0.0,0.0,0.0,0.0,0.0,0.0,0.0,0.0,0.0,0.0,0.0,6.6914,6.6914,6.7539,6.8555,7.0234,7.0703,7.1992,7.75,0.0,0.0,0.0,0.0,0.0,0.0,0.0,0.0,0.0,0.0,0.0,0.0,0.0,0.0,0.0,0.0,0.0,0.0,0.0,0.0,0.0,0.0,0.0,0.0,0.0,0.0,9.9062,9.8164,9.8086,9.8867,9.8984,9.9765,10.1406,10.2304,10.2695,10.25,10.3515,10.4414,10.5,10.5312,10.5781,10.6601,10.6406,10.6914,10.7812,10.7617,10.7695,10.789,10.789,10.789,10.8008,10.8008,10.8008,10.8008,0.0,0.0,0.0,0.0,0.0,0.0,0.0,0.0,0.0,0.0,0.0,0.0,0.0,0.0,0.0,0.0,0.0,0.0,0.0,7.1992,7.1992,7.1992,7.1992,7.2422,7.3281,7.3281,7.3047,7.25,7.1953,7.1055,6.9883,6.9375,6.8828,6.8164,6.7617,6.7226,6.6914,6.6914,6.6914,6.6914,6.6914,6.6914,0.0,0.0,0.0,0.0,0.0,0.0,0.0,0.0,6.6914,6.6914,6.6914,6.6914,6.6914,6.6914,6.789,6.9258,7.039,7.1484,7.3828,0.0,0.0,0.0,0.0,0.0,0.0,0.0,0.0,0.0,0.0,0.0,0.0,0.0,0.0,0.0,0.0,0.0,0.0,0.0,0.0,0.0,0.0,0.0,0.0,0.0,0.0,0.0,9.8242,9.8398,9.8672,9.8984,10.0586,10.1719,10.2383,10.3789,10.4804,10.5312,10.5117,10.539,10.6211,10.6211,10.6719,10.75,10.75,10.7695,10.8008,10.8008,10.8008,10.8008,10.8008,10.8008,10.8008,10.8008,10.8008,10.8008,0.0,0.0,0.0,0.0,0.0,0.0,0.0,0.0,0.0,0.0,0.0,0.0,0.0,0.0,0.0,0.0,0.0,0.0,7.2031,7.2265,7.2305,7.1992,7.1992,7.2148,7.2461,7.2461,7.2461,7.2422,7.125,7.0117,6.9023,6.8476,6.8047,6.7773,6.7187,6.6914,6.6914,6.6914,6.6914,6.6914,6.6914,6.6914,0.0,0.0,0.0,0.0,0.0,0.0,0.0,0.0,6.6914,6.6914,6.6914,6.6914,6.6953,6.7226,6.8359,6.9726,7.082,7.2187,7.4687,0.0,0.0,0.0,0.0,0.0,0.0,0.0,0.0,0.0,0.0,0.0,0.0,0.0,0.0,0.0,0.0,0.0,0.0,0.0,0.0,0.0,0.0,0.0,0.0,0.0,0.0,0.0,9.7734,9.8515,9.9258,9.9804,10.1797,10.3203,10.3711,10.5195,10.6211,10.6719,10.6406,10.6601,10.7109,10.7109,10.7383,10.8008,10.8008,10.8008,10.8008,10.8008,10.8008,10.8008,10.8008,10.8008,10.8008,10.8008,10.8008,10.8008,0.0,0.0,0.0,0.0,0.0,0.0,0.0,0.0,0.0,0.0,0.0,0.0,0.0,0.0,0.0,0.0,0.0,0.0,7.207,7.2812,7.289,7.2031,7.1992,7.1601,7.0703,7.0703,7.1523,7.3242,7.1523,6.9805,6.8203,6.8203,6.7734,6.6914,6.6914,6.6914,6.6914,6.6914,6.6914,6.6914,6.6914,6.6914,6.6914,0.0,0.0,0.0,0.0,0.0,0.0,0.0,6.6914,6.6914,6.6914,6.6914,6.7109,6.8008,6.8789,6.9805,7.1562,7.2656,0.0,0.0,0.0,0.0,0.0,0.0,0.0,0.0,0.0,0.0,0.0,0.0,0.0,0.0,0.0,0.0,0.0,0.0,0.0,0.0,0.0,0.0,0.0,0.0,0.0,0.0,9.9492,9.8594,9.7773,9.8554,9.9804,10.1601,10.25,10.3789,10.5508,10.6289,10.6719,10.6719,10.7617,10.8008,10.8008,10.8008,10.8008,10.8008,10.8008,10.8008,10.8008,10.8008,10.8008,10.8008,10.8008,10.8008,10.8008,10.8008,10.8008,10.8008,0.0,0.0,0.0,0.0,0.0,0.0,0.0,0.0,0.0,0.0,0.0,0.0,0.0,0.0,0.0,0.0,0.0,0.0,7.293,7.2578,7.2265,7.1992,7.1992,7.1601,7.0703,7.0156,6.9805,6.9726,6.918,6.8359,6.7305,6.7305,6.7148,6.6992,6.8789,6.8594,6.7031,6.8828,6.8555,6.6914,6.6914,6.6914,6.6914,0.0,0.0,0.0,0.0,0.0,0.0,0.0,0.0,0.0,6.6914,6.7305,6.8359,7.1015,7.1094,7.1094,7.4687,0.0,0.0,0.0,0.0,0.0,0.0,0.0,0.0,0.0,0.0,0.0,0.0,0.0,0.0,0.0,0.0,0.0,0.0,0.0,0.0,0.0,0.0,0.0,0.0,0.0,0.0,9.9453,9.8594,9.8242,9.8594,10.0,10.1289,10.25,10.4492,10.5781,10.6289,10.7187,10.7617,10.7617,10.789,10.8008,10.8008,10.8008,10.8008,10.8008,10.8008,10.8008,10.8008,10.8008,10.8008,10.8008,10.8008,10.8008,10.8008,10.8008,10.8008,10.8008,0.0,0.0,0.0,0.0,0.0,0.0,0.0,0.0,0.0,0.0,0.0,0.0,0.0,0.0,0.0,0.0,0.0,0.0,0.0,7.2461,7.1992,7.1992,7.1367,7.0586,6.9726,6.8906,6.8203,6.7695,6.8047,6.7734,6.6914,6.6914,6.6914,6.6953,6.8515,6.8515,6.75,6.8672,6.8515,6.7383,6.7031,6.6914,6.6914,0.0,0.0,0.0,0.0,0.0,0.0,0.0,0.0,0.0,6.7305,6.8711,7.0508,7.1875,7.25,7.3398,7.6406,0.0,0.0,0.0,0.0,0.0,0.0,0.0,0.0,0.0,0.0,0.0,0.0,0.0,0.0,0.0,0.0,0.0,0.0,0.0,0.0,0.0,0.0,0.0,10.1601,10.0781,9.9922,9.9062,9.8203,9.8242,9.9453,10.0781,10.2304,10.3906,10.5703,10.6914,10.7187,10.7695,10.8008,10.8008,10.8008,10.8008,10.8008,10.8008,10.8008,10.8008,10.8008,10.8008,10.8008,10.8008,10.8008,10.8008,10.8008,10.8008,10.8008,10.8008,10.8008,10.8008,0.0,0.0,0.0,0.0,0.0,0.0,0.0,0.0,0.0,0.0,0.0,0.0,0.0,0.0,0.0,0.0,0.0,0.0,0.0,7.2461,7.1875,7.1875,7.0273,6.9023,6.8203,6.7344,6.6914,6.6914,6.7695,6.7695,6.6914,6.6914,6.6953,6.7031,6.7265,6.7695,6.8164,6.7617,6.7656,6.8008,6.7226,6.6914,6.6914,6.6914,0.0,0.0,0.0,0.0,0.0,0.0,0.0,0.0,6.793,7.039,7.2734,7.1523,7.3476,7.6289,0.0,0.0,0.0,0.0,0.0,0.0,0.0,0.0,0.0,0.0,0.0,0.0,0.0,0.0,0.0,0.0,0.0,0.0,0.0,0.0,0.0,10.1406,10.1601,10.1601,10.1484,10.0703,9.9804,9.8945,9.8203,9.8594,10.0312,10.1289,10.3008,10.5508,10.6406,10.7187,10.8008,10.8008,10.8008,10.8008,10.8008,10.8008,10.8008,10.8008,10.8008,10.8008,10.8008,10.8008,10.8008,10.8008,10.8008,10.8008,10.8008,10.8008,10.8008,10.8008,10.8008,10.8008,0.0,0.0,0.0,0.0,0.0,0.0,0.0,0.0,0.0,0.0,0.0,0.0,0.0,0.0,0.0,0.0,0.0,0.0,0.0,7.2226,7.0976,7.0976,6.9375,6.8398,6.8203,6.7344,6.6914,6.6914,6.7109,6.707,6.6914,6.6914,6.7265,6.8008,7.0,6.9883,6.832,7.0117,6.9453,6.7148,6.6992,6.6914,6.6914,6.6914,6.6914,0.0,0.0,0.0,0.0,0.0,0.0,0.0,6.793,6.918,7.0898,7.3906,7.5781,7.7695,0.0,0.0,0.0,0.0,0.0,0.0,0.0,0.0,0.0,0.0,0.0,0.0,0.0,0.0,0.0,0.0,0.0,0.0,0.0,0.0,0.0,10.1484,10.1601,10.1289,10.0586,9.9804,9.8906,9.8047,9.8437,9.9492,10.1211,10.2812,10.4492,10.6406,10.7304,10.7812,10.8008,10.8008,10.8008,10.8008,10.8008,10.8008,10.8008,10.8008,10.8008,10.8008,10.8008,10.8008,10.8008,10.8008,10.8008,10.8008,10.8008,10.8008,10.8008,10.8008,10.8008,10.8008,0.0,0.0,0.0,0.0,0.0,0.0,0.0,0.0,0.0,0.0,0.0,0.0,0.0,0.0,0.0,0.0,0.0,0.0,0.0,0.0,6.9336,6.8906,6.8047,6.7578,6.7578,6.7148,6.7109,6.7539,6.7539,6.7539,6.7539,6.7539,6.7969,6.8828,6.9765,6.9648,6.8828,6.9336,6.8789,6.75,6.707,6.6914,6.6914,6.6914,6.6914,6.6914,6.6914,0.0,0.0,0.0,0.0,0.0,0.0,0.0,7.2773,7.375,7.5547,7.7773,0.0,0.0,0.0,0.0,0.0,0.0,0.0,0.0,0.0,0.0,0.0,0.0,0.0,0.0,0.0,0.0,0.0,0.0,0.0,0.0,0.0,10.2109,10.1914,10.1289,10.039,9.9492,9.8633,9.7773,9.8906,10.039,10.2109,10.3906,10.5586,10.7304,10.7812,10.8008,10.8008,10.8008,10.8008,10.8008,10.8008,10.8008,10.8008,10.8008,10.8008,10.8008,10.8008,10.8008,10.8008,10.8008,10.8008,10.8008,10.8008,10.8008,10.8008,10.8008,10.8008,10.8008,0.0,0.0,0.0,0.0,0.0,0.0,0.0,0.0,0.0,0.0,0.0,0.0,0.0,0.0,0.0,0.0,0.0,0.0,0.0,0.0,0.0,6.6953,6.6914,6.6953,6.7109,6.7109,6.7539,6.8437,6.8437,0.0,0.0,0.0,6.9531,7.0273,6.9453,6.9219,6.9297,6.7773,6.7461,6.793,6.7344,6.7109,6.7109,6.7109,6.7109,6.7109,6.6953,0.0,0.0,0.0,0.0,0.0,0.0,0.0,7.4609,7.2578,7.457,7.7578,0.0,0.0,0.0,0.0,0.0,0.0,0.0,0.0,0.0,0.0,0.0,0.0,0.0,0.0,0.0,0.0,0.0,9.9297,10.0195,10.1094,10.1914,10.2617,10.1914,10.1015,10.0195,9.9297,9.8594,9.8164,9.9609,10.1406,10.3203,10.4804,10.6406,10.8008,10.8008,10.8008,10.8008,10.8008,10.8008,10.8008,10.8008,10.8008,10.8008,10.8008,10.8008,10.8008,10.8008,10.8008,10.8008,10.8008,10.8008,10.8008,10.8008,10.8008,10.8008,10.8008,10.8008,10.8008,0.0,0.0,0.0,0.0,0.0,0.0,0.0,0.0,0.0,0.0,0.0,0.0,0.0,0.0,0.0,0.0,0.0,0.0,0.0,0.0,0.0,6.6953,6.6914,6.7265,6.8008,6.8047,6.8437,6.9336,6.9336,0.0,0.0,0.0,0.0,7.3867,0.0,7.1406,6.9336,6.8437,6.7656,6.7148,6.7773,6.8047,6.8047,6.8047,6.8047,6.793,0.0,0.0,0.0,0.0,0.0,0.0,0.0,0.0,7.1484,7.1875,7.5,0.0,0.0,0.0,0.0,0.0,0.0,0.0,0.0,0.0,0.0,0.0,0.0,0.0,0.0,0.0,9.7695,9.7695,9.8437,9.9297,10.0195,10.1094,10.1601,10.1797,10.1015,10.0117,9.9258,9.8398,9.8437,9.9844,10.0898,10.25,10.5,10.6015,10.6992,10.8008,10.8008,10.8008,10.8008,10.8008,10.8008,10.8008,10.8008,10.8008,10.8008,10.8008,10.8008,10.8008,10.8008,10.8008,10.8008,10.8008,10.8008,10.8008,10.8008,10.8008,10.8008,10.8008,10.8008,10.8008,0.0,0.0,0.0,0.0,0.0,0.0,0.0,0.0,0.0,0.0,0.0,0.0,0.0,0.0,0.0,7.2834,7.1476,7.039,0.0,0.0,0.0,6.7617,6.7617,6.8047,6.8906,6.8906,6.9297,7.0156,0.0,0.0,0.0,7.707,7.6328,0.0,0.0,0.0,7.0156,0.0,6.9726,6.7695,6.8594,6.8633,6.8242,6.8711,6.8867,0.0,0.0,0.0,0.0,0.0,0.0,0.0,0.0,0.0,0.0,0.0,0.0,0.0,0.0,0.0,0.0,0.0,0.0,0.0,0.0,0.0,0.0,0.0,0.0,9.7695,9.7695,9.7695,9.7851,9.8359,9.914,10.0,10.0898,10.1797,10.2109,10.1719,10.0781,9.9961,9.9062,9.8633,9.8945,10.0195,10.1992,10.3789,10.539,10.6719,10.7617,10.8008,10.8008,10.8008,10.8008,10.8008,10.8008,10.8008,10.8008,10.8008,10.8008,10.8008,10.8008,10.8008,10.8008,10.8008,10.8008,10.8008,10.8008,10.8008,10.8008,10.8008,10.8008,10.8008,10.8008,10.8008,0.0,0.0,0.0,0.0,0.0,0.0,0.0,0.0,0.0,0.0,0.0,0.0,0.0,0.0,0.0,0.0,7.0208,6.9108,6.7253,0.0,0.0,6.8385,6.8424,6.8857,6.9716,6.9725,7.0234,0.0,0.0,0.0,7.9062,7.9726,7.8906,0.0,7.8008,0.0,0.0,0.0,0.0,0.0,0.0,7.0,6.8906,0.0,0.0,6.9687,0.0,0.0,0.0,0.0,0.0,0.0,0.0,0.0,0.0,0.0,0.0,0.0,0.0,0.0,0.0,0.0,0.0,0.0,0.0,0.0,0.0,0.0,9.7265,9.7695,9.7695,9.7695,9.8008,9.8867,9.9726,10.0586,10.1484,10.2383,10.25,10.1406,10.0703,9.9883,9.8789,9.8867,9.9531,10.0898,10.3008,10.4804,10.6093,10.7304,10.8008,10.8008,10.8008,10.8008,10.8008,10.8008,10.8008,10.8008,10.8008,10.8008,10.8008,10.8008,10.8008,10.8008,10.8008,10.8008,10.8008,10.8008,10.8008,10.8008,10.8008,10.8008,10.8008,10.8008,10.8008,10.8008,0.0,0.0,0.0,0.0,0.0,0.0,0.0,0.0,0.0,0.0,0.0,0.0,0.0,7.1549,7.0891,7.157,6.9362,6.7898,6.7754,6.7764,6.8154,6.9021,6.906,0.0,7.0346,7.0487,7.1328,0.0,0.0,0.0,7.7383,7.9805,8.0429,7.9453,7.8789,7.8359,7.789,0.0,0.0,0.0,0.0,0.0,0.0,0.0,0.0,0.0,0.0,0.0,0.0,0.0,0.0,0.0,0.0,0.0,0.0,0.0,0.0,0.0,0.0,0.0,0.0,8.7226,8.6523,0.0,0.0,0.0,0.0,9.3398,9.6015,9.7695,9.7695,9.7695,9.8008,9.8867,9.9726,10.0586,10.1484,10.2383,10.2304,10.0586,10.0312,9.9648,9.7929,9.8515,10.0,10.2617,10.3711,10.5312,10.7695,10.8008,10.8008,10.8008,10.8008,10.8008,10.8008,10.8008,10.8008,10.8008,10.8008,10.8008,10.8008,10.8008,10.8008,10.8008,10.8008,10.8008,10.8008,10.8008,10.8008,10.8008,10.8008,10.8008,10.8008,10.8008,10.8008,10.8008,0.0,0.0,0.0,0.0,0.0,0.0,0.0,0.0,0.0,0.0,0.0,0.0,0.0,7.0539,6.9843,6.9069,6.8218,6.7987,6.8584,6.8622,6.901,6.9903,6.9941,7.0347,7.1201,7.1295,0.0,0.0,0.0,7.3602,7.6145,7.7142,7.832,7.9765,8.289,8.1172,7.6172,7.8789,0.0,0.0,0.0,0.0,0.0,0.0,0.0,0.0,0.0,0.0,0.0,0.0,0.0,0.0,0.0,0.0,0.0,0.0,0.0,0.0,0.0,0.0,0.0,8.6953,8.5312,8.3633,8.8437,8.9531,8.9883,9.1133,9.4765,9.7187,9.5547,9.6601,9.8164,9.9609,10.0117,10.0781,10.2187,10.2695,10.2304,10.0508,10.0312,9.9844,9.8633,9.9336,10.0898,10.3515,10.25,10.3515,10.7812,10.5898,10.5703,10.789,10.8008,10.8008,10.8008,10.8008,10.8008,10.8008,10.8008,10.8008,10.8008,10.8008,10.8008,10.8008,10.8008,10.8008,10.8008,10.8008,10.8008,10.8008,10.8008,10.8008,10.8008,10.8008,10.8008,10.8008,0.0,0.0,0.0,0.0,0.0,0.0,0.0,0.0,0.0,0.0,0.0,0.0,0.0,0.0,6.9146,6.8042,6.8003,6.8468,6.9319,6.9375,6.98,7.0672,7.0711,7.0982,7.1523,7.1291,7.1475,0.0,0.0,0.0,0.0,7.565,7.6724,7.8065,8.2706,8.2297,0.0,0.0,0.0,7.539,0.0,0.0,7.4844,0.0,0.0,0.0,0.0,0.0,0.0,0.0,0.0,0.0,0.0,0.0,0.0,0.0,0.0,0.0,8.0156,0.0,0.0,0.0,0.0,8.1953,8.5703,8.8359,9.0,9.0,9.4101,9.7187,9.5508,9.6797,9.8594,10.0117,10.0312,10.0898,10.2695,10.289,10.2383,10.0898,10.0508,10.0117,9.9492,9.9961,10.1406,10.3984,10.289,10.3789,10.7812,10.5781,10.5703,10.789,10.8008,10.8008,10.8008,10.8008,10.8008,10.8008,10.8008,10.8008,10.8008,10.8008,10.8008,10.8008,10.8008,10.8008,10.8008,10.8008,10.8008,10.8008,10.8008,10.8008,10.8008,10.8008,10.8008,10.8008,0.0,0.0,0.0,0.0,0.0,0.0,0.0,0.0,0.0,7.1494,0.0,0.0,0.0,0.0,0.0,6.8816,6.8854,6.9164,6.9976,7.0054,7.0402,7.1253,7.1291,7.1291,7.1291,7.0595,7.1081,0.0,0.0,0.0,0.0,0.0,7.5834,7.448,7.7818,8.1297,8.4726,0.0,8.6015,8.5504,0.0,8.1494,8.1718,0.0,0.0,0.0,8.1269,8.052,0.0,0.0,0.0,0.0,0.0,0.0,0.0,0.0,7.6523,7.7383,0.0,0.0,0.0,0.0,0.0,0.0,7.9922,8.5,8.9883,8.9883,9.3984,9.7578,9.7578,9.8359,9.9297,10.0195,10.0312,10.0898,10.2617,10.289,10.2617,10.1719,10.0781,10.0312,10.0312,10.0312,10.1406,10.3984,10.4883,10.6093,10.789,10.8008,10.8008,10.8008,10.8008,10.8008,10.8008,10.8008,10.8008,10.8008,10.8008,10.8008,10.8008,10.8008,10.8008,10.8008,10.8008,10.8008,10.8008,10.8008,10.8008,10.8008,10.8008,10.8008,10.8008,10.8008,10.8008,10.8008,0.0,0.0,0.0,0.0,0.0,0.0,0.0,0.0,0.0,0.0,0.0,0.0,7.0465,6.9477,6.903,6.9628,6.9667,7.0015,7.0866,7.0943,7.1059,7.1291,7.1291,7.1291,7.1291,7.1098,7.1214,7.1717,0.0,7.1523,7.1816,7.2598,0.0,0.0,7.5973,7.8064,7.9291,8.3259,0.0,0.0,8.4752,8.3415,0.0,0.0,0.0,0.0,0.0,8.2367,0.0,0.0,8.0167,7.7796,0.0,0.0,0.0,0.0,7.6809,7.7109,7.7344,0.0,0.0,0.0,0.0,0.0,0.0,8.4062,8.7265,8.7265,9.1367,9.4961,9.4961,9.7187,9.9297,10.0195,10.0781,10.1406,10.1914,10.25,10.2304,10.0781,10.1015,10.1211,10.1211,10.1211,10.2304,10.4883,10.3008,10.3594,10.7812,10.8008,10.8008,10.8008,10.8008,10.8008,10.8008,10.8008,10.8008,10.8008,10.8008,10.8008,10.8008,10.8008,10.8008,10.8008,10.8008,10.8008,10.8008,10.8008,10.8008,10.8008,10.8008,10.8008,10.8008,10.8008,10.8008,10.8008,0.0,0.0,0.0,0.0,0.0,0.0,0.0,0.0,0.0,0.0,0.0,0.0,7.0235,7.0041,7.0117,7.056,7.0599,7.0793,7.1334,7.1334,7.1334,7.1334,7.1334,7.1313,7.1291,7.0943,7.0943,7.1291,0.0,0.0,7.1369,7.1339,0.0,0.0,0.0,0.0,0.0,0.0,0.0,0.0,8.5057,0.0,0.0,8.6146,8.5796,0.0,0.0,0.0,8.539,8.6268,8.4132,0.0,0.0,0.0,0.0,7.8504,7.7962,7.6934,0.0,0.0,0.0,0.0,0.0,0.0,8.0859,8.4531,8.7773,8.7773,9.1875,9.5156,9.4101,9.582,9.7695,9.8554,9.9414,10.039,10.1406,10.1992,10.1992,10.1015,10.1015,10.1289,10.2109,10.1797,10.2695,10.5312,10.3594,10.4101,10.7812,10.8008,10.8008,10.8008,10.8008,10.8008,10.8008,10.8008,10.8008,10.8008,10.8008,10.8008,10.8008,10.8008,10.8008,10.8008,10.8008,10.8008,10.8008,10.8008,10.8008,10.8008,10.8008,10.8008,10.8008,10.8008,10.8008,10.8008,0.0,0.0,0.0,0.0,0.0,0.0,0.0,0.0,0.0,0.0,7.0738,7.035,7.0425,7.1048,7.1475,7.1435,7.1415,7.1415,7.1415,7.1415,7.1415,7.1415,7.1415,7.1433,7.1468,7.0694,7.0694,7.1468,0.0,0.0,0.0,0.0,0.0,0.0,0.0,0.0,0.0,0.0,0.0,8.5998,8.425,8.6648,0.0,0.0,8.7603,0.0,9.1107,9.045,8.8682,9.1687,0.0,0.0,0.0,0.0,0.0,8.0764,7.9347,0.0,0.0,0.0,0.0,0.0,0.0,0.0,8.0976,8.5234,8.9219,8.9531,9.3201,9.5814,9.3828,9.4179,9.5,9.5781,9.6601,9.8047,10.0703,10.1406,10.1406,10.0898,10.0586,10.1094,10.2617,10.2109,10.2812,10.5312,10.5586,10.6289,10.789,10.789,10.789,10.8008,10.8008,10.8008,10.8008,10.8008,10.8008,10.8008,10.8008,10.8008,10.8008,10.8008,10.8008,10.8008,10.8008,10.8008,10.8008,10.8008,10.8008,10.8008,10.8008,10.8008,10.8008,10.8008,10.8008,10.8008,0.0,0.0,0.0,0.0,0.0,0.0,0.0,0.0,7.2723,7.1485,7.13,7.128,7.1123,7.1339,7.1494,7.1475,7.1475,7.1475,7.1475,7.1475,7.1475,7.1475,7.1475,7.1785,7.2483,7.2328,7.2328,7.2521,0.0,0.0,0.0,0.0,0.0,0.0,0.0,0.0,0.0,0.0,0.0,8.0702,8.4976,0.0,0.0,9.0031,8.8652,8.5655,9.1454,9.1561,8.9201,0.0,9.0246,8.8764,0.0,0.0,0.0,0.0,0.0,0.0,0.0,0.0,0.0,0.0,0.0,0.0,8.0976,8.2461,8.4414,8.6523,8.7671,8.8795,9.0461,9.1406,9.1992,9.2265,9.3047,9.4492,9.7148,9.9844,10.0312,9.6875,9.9336,10.1484,10.1797,10.2304,10.3398,10.539,10.6093,10.6914,10.789,10.7304,10.7304,10.8008,10.8008,10.8008,10.8008,10.8008,10.8008,10.8008,10.8008,10.8008,10.8008,10.8008,10.8008,10.8008,10.8008,10.8008,10.8008,10.8008,10.8008,10.8008,10.8008,10.8008,10.8008,10.8008,10.8008,10.8008,0.0,0.0,0.0,0.0,0.0,0.0,0.0,0.0,7.2174,7.1873,7.1927,7.1816,7.133,7.1334,7.1394,7.1334,7.1334,7.1528,7.1992,7.1992,7.2186,7.2573,7.2612,7.2783,7.3226,7.28,7.28,7.3264,7.2731,0.0,0.0,0.0,0.0,0.0,0.0,0.0,0.0,0.0,7.6534,8.0708,8.4612,0.0,8.6808,9.1418,9.1238,8.9047,9.2711,9.3321,9.2218,9.1384,9.1086,0.0,0.0,8.5591,8.2664,0.0,8.0082,7.8408,0.0,0.0,0.0,7.8908,0.0,0.0,0.0,8.2866,8.4481,8.5786,8.7036,8.79,8.796,8.8252,8.8694,8.9218,8.9687,9.0429,9.1836,9.5703,9.8086,9.7187,9.9375,10.1094,10.1601,10.2383,10.3594,10.539,10.6211,10.6914,10.7304,10.6601,10.6484,10.7304,10.7383,10.7617,10.8008,10.8008,10.8008,10.8008,10.8008,10.8008,10.8008,10.8008,10.8008,10.8008,10.8008,10.8008,10.8008,10.8008,10.8008,10.8008,10.8008,10.8008,10.8008,10.8008,10.8008,10.8008,0.0,0.0,0.0,0.0,0.0,0.0,0.0,0.0,7.1402,7.2095,7.2327,7.2336,7.2043,7.1717,7.1617,7.192,7.2075,7.2345,0.0,0.0,7.3867,7.4176,7.4239,7.4239,7.4243,7.3572,7.3481,7.3997,7.3326,7.3326,7.3997,0.0,0.0,0.0,0.0,0.0,0.0,0.0,0.0,8.2904,0.0,8.6671,8.7981,9.2382,9.3399,9.2654,9.3998,9.5033,9.5381,9.2909,0.0,9.181,9.2251,8.812,0.0,0.0,0.0,0.0,0.0,0.0,0.0,0.0,0.0,8.1976,0.0,0.0,0.0,8.5169,8.683,8.7637,8.5563,8.5159,8.5312,8.5952,8.6203,8.6443,8.6914,9.0703,9.4219,9.6289,9.789,9.9101,9.9804,10.1406,10.3281,10.5312,10.5898,10.6406,10.6719,10.5781,10.5586,10.6406,10.6601,10.6992,10.7695,10.789,10.8008,10.8008,10.8008,10.8008,10.8008,10.8008,10.8008,10.8008,10.8008,10.8008,10.8008,10.8008,10.8008,10.8008,10.8008,10.8008,10.8008,10.8008,10.8008,10.8008,0.0,0.0,0.0,0.0,7.1668,7.1849,7.1183,7.1763,7.2056,7.1479,7.2043,7.3048,7.4518,0.0,0.0,0.0,0.0,0.0,7.3744,0.0,7.751,7.6064,7.6118,7.62,7.6173,7.6204,7.5857,7.5136,7.485,7.4731,7.4771,7.3921,0.0,0.0,7.4427,0.0,0.0,0.0,8.1444,0.0,8.9493,8.9457,0.0,9.2642,9.2826,9.0952,9.4259,9.5979,9.6328,0.0,9.2471,9.1605,0.0,8.7125,0.0,0.0,0.0,0.0,0.0,0.0,0.0,0.0,8.0701,0.0,0.0,0.0,8.2533,8.253,0.0,0.0,0.0,0.0,0.0,8.1648,8.2206,8.3269,8.4882,8.6289,8.7265,8.7617,9.1094,9.3515,9.3594,9.7851,10.1992,10.5312,10.4883,10.5117,10.6601,10.5195,10.4687,10.5586,10.6289,10.6719,10.6797,10.7617,10.8008,10.8008,10.8008,10.8008,10.8008,10.8008,10.8008,10.8008,10.8008,10.8008,10.8008,10.8008,10.8008,10.8008,10.8008,10.8008,10.8008,10.8008,10.8008,10.8008,0.0,0.0,0.0,0.0,7.1607,7.1376,7.1144,7.2225,7.2971,7.2624,7.3716,7.5181,0.0,0.0,0.0,0.0,0.0,0.0,0.0,0.0,7.9307,7.9114,7.7703,0.0,7.697,7.6044,7.5581,7.571,7.5157,7.5131,7.5605,7.5176,7.5543,0.0,7.578,0.0,8.1252,0.0,0.0,0.0,0.0,0.0,0.0,9.4062,9.5283,9.4025,9.3948,9.5226,9.6333,0.0,9.2534,0.0,0.0,0.0,0.0,0.0,0.0,0.0,0.0,0.0,0.0,0.0,0.0,0.0,0.0,0.0,8.197,0.0,0.0,0.0,0.0,0.0,0.0,0.0,8.1804,8.2337,8.3126,8.3497,8.4888,8.8046,9.0898,9.3594,9.6054,9.7383,9.9297,10.2304,10.2617,10.2812,10.3008,10.3789,10.4414,10.4687,10.5117,10.5508,10.6015,10.6797,10.7187,10.7304,10.7812,10.8008,10.8008,10.8008,10.8008,10.8008,10.8008,10.8008,10.8008,10.8008,10.8008,10.8008,10.8008,10.8008,10.8008,10.8008,10.8008,10.8008,0.0,0.0,0.0,0.0,0.0,7.1479,7.2119,7.3768,7.4934,0.0,0.0,0.0,7.9361,7.8515,0.0,0.0,0.0,8.1785,0.0,0.0,8.1823,0.0,0.0,0.0,0.0,7.6717,7.5908,7.6034,7.5474,7.5617,7.6437,7.5918,7.6015,0.0,0.0,7.8352,8.1418,0.0,0.0,8.8462,8.9381,9.0187,9.1222,9.4676,9.6278,9.646,9.4473,9.5099,9.6201,9.1581,9.2479,0.0,9.1295,0.0,0.0,0.0,0.0,0.0,8.4958,0.0,0.0,0.0,0.0,0.0,0.0,0.0,0.0,0.0,0.0,0.0,0.0,0.0,0.0,0.0,0.0,8.1911,8.1737,8.1898,8.3449,8.7381,9.0039,9.2929,9.6523,9.6445,9.6992,9.9101,10.0508,10.1094,10.0703,10.289,10.4219,10.4219,10.4219,10.4609,10.5508,10.6289,10.6797,10.7109,10.7695,10.8008,10.8008,10.8008,10.8008,10.8008,10.8008,10.8008,10.8008,10.8008,10.8008,10.8008,10.8008,10.8008,10.8008,10.8008,10.8008,10.8008,0.0,7.2206,0.0,0.0,0.0,0.0,0.0,0.0,0.0,0.0,0.0,0.0,0.0,0.0,0.0,0.0,0.0,8.2631,8.3478,0.0,8.5901,0.0,0.0,0.0,0.0,0.0,7.7872,7.6198,7.616,7.6569,7.7323,7.5628,7.6082,0.0,0.0,7.8634,8.3364,8.5892,8.8883,9.2218,9.5555,9.6938,9.6789,0.0,9.4275,9.6525,9.6474,0.0,0.0,9.357,9.2248,0.0,0.0,0.0,0.0,0.0,0.0,0.0,0.0,0.0,0.0,0.0,0.0,0.0,0.0,0.0,8.1892,0.0,0.0,0.0,0.0,0.0,0.0,0.0,0.0,0.0,0.0,8.1484,8.209,0.0,8.6211,8.9531,9.1367,9.3789,9.5625,9.6562,9.8945,10.0703,10.1484,10.3203,10.4219,10.4219,10.4219,10.4609,10.5508,10.6289,10.7109,10.8008,10.8008,10.8008,10.8008,10.8008,10.8008,10.8008,10.8008,10.8008,10.8008,10.8008,10.8008,10.8008,10.8008,10.8008,10.8008,10.8008,10.8008,10.8008,0.0,0.0,0.0,0.0,0.0,0.0,0.0,7.6784,0.0,0.0,0.0,0.0,0.0,0.0,8.4747,0.0,0.0,8.7594,8.6209,8.7171,0.0,0.0,0.0,8.2887,0.0,0.0,0.0,0.0,0.0,7.7073,7.7314,7.7275,7.74,0.0,0.0,7.9972,0.0,0.0,0.0,0.0,0.0,9.4137,9.4252,0.0,0.0,9.6492,9.6429,9.6525,0.0,9.3528,9.3669,9.4704,9.323,9.1994,9.1784,9.5245,9.3012,0.0,0.0,0.0,9.2625,9.2043,0.0,0.0,0.0,0.0,0.0,0.0,0.0,0.0,0.0,0.0,0.0,0.0,0.0,0.0,0.0,8.1776,0.0,0.0,0.0,0.0,9.0976,9.0586,9.0937,9.289,9.4375,9.5078,9.4804,9.9687,10.1992,10.0781,10.3594,10.4883,10.4609,10.6015,10.6797,10.7109,10.7695,10.8008,10.8008,10.8008,10.8008,10.8008,10.8008,10.8008,10.8008,10.8008,10.8008,10.8008,10.8008,10.8008,10.8008,10.8008,10.8008,10.8008,7.6784,0.0,0.0,0.0,0.0,0.0,0.0,0.0,0.0,0.0,8.3478,0.0,0.0,0.0,8.7478,0.0,8.8248,8.8709,8.9171,8.7171,0.0,0.0,8.644,0.0,0.0,0.0,0.0,0.0,0.0,7.8361,7.9515,7.8823,7.8207,0.0,0.0,0.0,0.0,0.0,8.9491,0.0,0.0,9.3056,0.0,0.0,9.6248,9.6429,0.0,9.6586,9.6718,9.486,9.5696,9.7176,9.5384,9.4883,9.5373,9.7639,9.5908,9.3753,9.605,9.6635,0.0,9.5758,9.3861,0.0,9.13,0.0,0.0,0.0,0.0,0.0,0.0,0.0,0.0,8.2048,8.1873,8.1892,0.0,8.2184,0.0,0.0,0.0,0.0,8.9648,8.9219,8.9101,8.9883,9.1601,9.2344,9.1797,9.8008,10.1094,9.9961,10.3594,10.539,10.5117,10.6211,10.6914,10.7187,10.7695,10.8008,10.8008,10.8008,10.8008,10.8008,10.8008,10.8008,10.8008,10.8008,10.8008,10.8008,10.8008,10.8008,10.8008,10.8008,10.8008,10.8008,0.0,0.0,0.0,0.0,7.763,0.0,0.0,0.0,8.3939,0.0,8.6517,8.6017,8.844,8.6632,8.617,8.8363,0.0,0.0,9.1864,8.5555,0.0,0.0,8.7248,8.567,8.8825,0.0,0.0,0.0,0.0,0.0,8.3516,8.0169,7.8592,7.8515,7.9477,0.0,7.8938,8.5786,8.8748,8.9094,9.1441,9.3903,9.6019,9.4364,9.4864,9.6442,9.6442,9.6903,9.7557,9.7557,9.8096,9.8788,9.8788,9.8788,9.8788,9.8865,9.8865,9.8903,9.9046,9.9081,9.8571,9.6267,0.0,0.0,0.0,0.0,9.176,0.0,0.0,0.0,0.0,0.0,0.0,8.2566,8.2028,8.2009,8.2009,0.0,0.0,0.0,0.0,0.0,0.0,8.9492,8.9961,8.7656,9.0508,9.2422,9.2578,9.8047,10.1289,10.1601,10.3906,10.5703,10.6719,10.6601,10.7109,10.8008,10.8008,10.8008,10.8008,10.8008,10.8008,10.8008,10.8008,10.8008,10.8008,10.8008,10.8008,10.8008,10.8008,10.8008,10.8008,10.8008,10.8008,10.8008,8.0439,8.0477,8.0554,0.0,0.0,8.2516,0.0,0.0,0.0,0.0,8.694,8.7979,8.8632,8.9825,8.9517,8.6978,8.7709,0.0,0.0,0.0,0.0,9.5134,9.3864,9.2556,9.1556,9.0671,0.0,8.7055,0.0,0.0,8.3555,8.1439,7.9746,7.8554,0.0,0.0,7.8938,8.5786,8.9787,9.1479,9.0825,9.2095,0.0,0.0,9.6134,9.8173,9.8173,9.8288,9.8481,9.8481,9.8596,9.8788,9.8788,9.8788,9.8942,9.9558,9.975,9.9865,10.0519,10.0711,10.0595,10.008,9.8108,9.6095,0.0,0.0,0.0,0.0,0.0,0.0,0.0,0.0,0.0,0.0,0.0,0.0,0.0,0.0,0.0,0.0,0.0,0.0,8.7098,8.7815,8.8008,8.7344,8.8242,8.9922,9.2461,9.4062,9.6953,10.1484,10.1015,10.2617,10.6719,10.5508,10.5898,10.8008,10.8008,10.8008,10.8008,10.8008,10.8008,10.8008,10.8008,10.8008,10.8008,10.8008,10.8008,10.8008,10.8008,10.8008,10.8008,10.8008,10.8008,10.8008,0.0,0.0,0.0,0.0,0.0,0.0,8.4747,0.0,0.0,8.8055,0.0,0.0,9.1325,9.3056,9.321,9.0787,8.9479,0.0,0.0,0.0,0.0,9.6557,9.5403,9.398,9.2518,9.2479,0.0,8.9633,0.0,0.0,8.5747,8.2593,8.0362,7.9092,8.0092,7.9977,7.9477,8.594,9.0364,9.2941,9.1979,0.0,0.0,9.5672,9.7134,9.9404,9.9788,9.9673,9.9365,9.9365,9.9596,9.9904,9.9904,9.9904,9.9981,10.0481,10.0596,10.0712,10.1212,10.1289,10.1328,10.1402,10.0015,9.8626,9.883,9.7356,9.5972,0.0,0.0,0.0,0.0,0.0,0.0,0.0,0.0,0.0,0.0,0.0,0.0,0.0,8.6959,0.0,8.7071,8.7128,8.7185,8.7141,8.7377,8.8281,9.0156,9.3164,9.5898,9.8164,10.0195,10.2109,10.3906,10.3008,10.3789,10.6289,10.6289,10.6914,10.8008,10.8008,10.8008,10.8008,10.8008,10.8008,10.8008,10.8008,10.8008,10.8008,10.8008,10.8008,10.8008,10.8008,10.8008,10.8008,0.0,0.0,0.0,0.0,0.0,0.0,0.0,8.7209,0.0,9.2056,0.0,9.2595,9.448,9.5634,9.6172,0.0,0.0,9.0594,0.0,8.9402,0.0,9.7288,9.4864,9.3326,9.3326,9.3326,0.0,0.0,0.0,0.0,8.8594,8.3478,8.0631,7.9823,7.9939,8.04,0.0,8.6401,9.0594,9.3864,9.398,9.5826,9.8365,9.7326,9.8327,10.0289,10.1019,10.0904,10.0289,10.0289,10.0712,10.1289,10.1289,10.1289,10.1289,10.1289,10.1289,10.1289,10.1289,10.1289,10.1289,10.1289,10.1289,10.1289,10.1514,10.1588,10.1588,10.1588,10.1727,10.08,0.0,0.0,0.0,0.0,0.0,0.0,0.0,0.0,0.0,0.0,0.0,0.0,8.7153,8.6955,8.701,8.705,8.7315,8.757,8.7851,9.3242,9.5781,9.4609,9.9961,10.2187,10.0781,10.0508,10.1797,10.4687,10.4414,10.5508,10.8008,10.8008,10.8008,10.8008,10.8008,10.8008,10.8008,10.8008,10.8008,10.8008,10.8008,10.8008,10.8008,10.8008,10.8008,10.8008,0.0,0.0,0.0,0.0,0.0,0.0,0.0,9.2979,9.321,9.2595,9.421,0.0,9.3133,9.4941,9.5441,9.3364,9.221,0.0,0.0,0.0,0.0,9.8365,9.8019,9.7711,9.7711,9.7711,9.7326,0.0,0.0,0.0,8.8594,8.3478,8.0631,7.9823,8.0554,8.3593,8.8132,8.7786,0.0,9.4826,9.5557,9.6211,9.7019,9.9481,10.0712,10.1096,10.1212,10.1212,10.1096,10.1096,10.1212,10.1289,10.1289,10.1289,10.1289,10.1289,10.1289,10.1289,10.1289,10.1289,10.1289,10.1289,10.1289,10.1289,10.1289,10.1404,10.1404,10.1404,10.1404,10.1212,10.0481,0.0,0.0,0.0,0.0,0.0,0.0,0.0,0.0,0.0,0.0,0.0,0.0,8.7019,8.702,8.6955,8.7098,8.8422,9.1327,8.9922,9.1836,9.789,9.6523,9.8203,10.3515,10.1406,10.2695,10.7304,10.5195,10.5508,10.8008,10.8008,10.8008,10.8008,10.8008,10.8008,10.8008,10.8008,10.8008,10.8008,10.8008,10.8008,10.8008,10.8008,10.8008,10.8008,0.0,0.0,0.0,0.0,0.0,0.0,0.0,9.4326,0.0,9.4634,9.5903,9.648,9.5211,9.6596,9.7096,9.5865,9.4134,9.4018,9.6211,9.4672,9.5211,9.8634,9.8365,0.0,9.6172,0.0,9.6634,0.0,0.0,0.0,0.0,0.0,8.09,8.0554,8.2747,8.5286,8.8094,0.0,0.0,9.5826,9.7557,9.8519,9.9058,10.0712,10.1289,10.1404,10.1789,10.202,10.1904,10.152,10.1289,10.1404,10.1789,10.202,10.2097,10.252,10.2597,10.2597,10.2597,10.2597,10.2597,10.2597,10.2597,10.2597,10.2597,10.2597,10.2597,10.2597,10.2597,10.2097,10.0365,9.7778,0.0,0.0,0.0,0.0,0.0,0.0,0.0,0.0,0.0,0.0,0.0,0.0,0.0,0.0,0.0,0.0,8.9606,9.0272,9.2342,9.6097,9.6866,0.0,10.1992,0.0,10.2187,10.6015,10.4804,10.5508,10.8008,10.8008,10.8008,10.8008,10.8008,10.8008,10.8008,10.8008,10.8008,10.8008,10.8008,10.8008,10.8008,10.8008,10.8008,10.8008,0.0,8.4247,0.0,0.0,8.6786,0.0,0.0,9.4595,9.6749,9.6826,9.7365,9.7711,9.7519,9.8096,9.8173,9.725,9.5403,9.4864,9.6288,9.5018,9.5211,9.7365,9.7326,9.6326,9.4287,9.5595,9.5326,0.0,0.0,0.0,0.0,8.4478,8.2439,8.2593,0.0,0.0,0.0,0.0,9.6249,9.7557,9.9558,10.0789,10.1597,10.1597,10.1712,10.1904,10.2597,10.2904,10.2789,10.2097,10.1904,10.202,10.2712,10.2904,10.2981,10.3712,10.3905,10.3905,10.3905,10.3789,10.3597,10.3597,10.3482,10.3289,10.3289,10.3289,10.3405,10.3597,10.3789,10.3098,10.0403,9.8975,0.0,0.0,0.0,0.0,0.0,0.0,0.0,0.0,0.0,0.0,0.0,0.0,0.0,0.0,0.0,0.0,8.791,9.0906,9.2903,0.0,0.0,9.9419,9.9988,0.0,10.1791,10.4915,10.4405,10.5417,10.7917,10.7917,10.7917,10.7917,10.7917,10.7886,10.8008,10.8008,10.8008,10.8008,10.8008,10.8008,10.8008,10.8008,10.8008,10.8008,0.0,0.0,0.0,0.0,0.0,0.0,0.0,9.5749,9.5134,9.8173,9.8634,9.8365,9.7596,9.7557,9.6095,9.2249,9.4441,9.3903,8.8786,9.3249,9.5172,9.3172,9.5211,9.6288,9.6057,9.6211,9.6172,0.0,0.0,0.0,0.0,0.0,0.0,0.0,0.0,0.0,0.0,9.6711,9.8634,10.0904,10.1096,10.1712,10.252,10.252,10.2981,10.3712,10.3712,10.3789,10.3789,10.3712,10.3712,10.3712,10.3789,10.3789,10.3789,10.3905,10.3905,10.3905,10.3905,10.3289,10.2712,10.2712,10.2097,10.152,10.152,10.152,10.1789,10.2597,10.3405,10.3789,10.3482,10.152,9.8788,0.0,0.0,0.0,0.0,0.0,0.0,0.0,0.0,0.0,0.0,8.8843,0.0,0.0,8.7304,0.0,0.0,0.0,0.0,9.3415,9.4635,9.6703,9.981,9.9917,10.241,10.7298,10.4896,10.5204,10.7597,10.7597,10.748,10.748,10.748,10.769,10.7812,10.7812,10.789,10.8008,10.8008,10.8008,10.8008,10.8008,10.8008,10.8008,0.0,0.0,0.0,0.0,0.0,0.0,0.0,9.5172,9.5903,9.7788,9.7596,9.7173,9.6826,9.6788,9.6095,9.4403,9.5518,9.5288,9.2903,9.498,9.5865,9.4826,9.5749,9.6288,9.6288,9.6288,9.6288,0.0,0.0,0.0,0.0,0.0,0.0,0.0,0.0,9.5595,9.7134,9.9019,10.0712,10.2097,10.2097,10.2597,10.3405,10.3405,10.3597,10.3982,10.4405,10.4597,10.4713,10.5213,10.4713,10.3982,10.4482,10.4597,10.4713,10.5213,10.5405,10.5405,10.5405,10.5097,10.4905,10.4905,10.4212,10.3597,10.3597,10.3212,10.2981,10.3289,10.3712,10.3905,10.3905,10.3097,10.1289,0.0,0.0,0.0,0.0,0.0,0.0,0.0,0.0,0.0,0.0,0.0,0.0,0.0,0.0,0.0,0.0,0.0,0.0,9.632,0.0,9.9941,10.4386,10.2995,10.411,10.7598,10.6603,10.6694,10.7697,10.8103,10.8621,10.9087,10.9087,10.9096,10.9194,10.9212,10.9193,10.931,10.931,10.931,10.9212,10.8782,10.8593,10.8515,9.5365,0.0,9.1864,0.0,9.3133,9.371,9.2979,9.5211,9.6865,9.6442,9.6749,9.7057,9.7057,9.7057,9.6634,9.5634,9.6442,9.6288,9.4518,9.6057,9.6711,9.5942,9.6634,0.0,9.7057,9.7057,9.7057,9.7057,9.4249,0.0,0.0,0.0,0.0,0.0,9.6634,9.825,9.9135,10.0904,10.2212,10.2981,10.2981,10.3482,10.4289,10.4289,10.4405,10.4713,10.529,10.5482,10.5597,10.6213,10.5597,10.4713,10.529,10.5482,10.5597,10.6213,10.6405,10.6405,10.6405,10.6213,10.602,10.602,10.5405,10.4713,10.4405,10.3905,10.3597,10.3789,10.4097,10.4289,10.4597,10.4597,10.3482,10.0096,0.0,0.0,0.0,0.0,0.0,0.0,0.0,9.5247,9.878,9.3913,0.0,0.0,0.0,0.0,0.0,0.0,0.0,0.0,0.0,0.0,10.508,10.3414,10.4311,10.7585,10.7793,10.7895,10.8017,10.8685,10.9393,10.9896,10.9896,10.9974,11.0007,11.0005,11.0105,11.0122,11.0122,11.0122,10.9988,10.9485,10.9316,10.931,9.6288,9.6249,9.648,9.7288,9.7442,9.6596,9.4057,9.6596,9.7557,9.4172,9.6673,9.875,9.875,9.875,9.7403,9.4018,9.6826,9.6288,9.0364,9.5518,9.7634,0.0,0.0,9.875,9.875,9.875,9.875,9.875,0.0,0.0,9.6249,0.0,9.7403,9.7557,10.0096,10.1712,10.252,10.2597,10.3097,10.3905,10.3905,10.4405,10.5097,10.5097,10.5597,10.6405,10.6405,10.6405,10.6405,10.6405,10.6405,10.6405,10.6405,10.6405,10.6405,10.6405,10.6405,10.6405,10.6405,10.579,10.5097,10.5097,10.4482,10.3712,10.2789,10.2597,10.2904,10.3712,10.4482,10.529,10.6213,10.6405,10.529,10.1789,0.0,0.0,0.0,0.0,0.0,0.0,9.279,9.2597,9.6019,9.3312,0.0,0.0,0.0,0.0,0.0,0.0,0.0,9.4153,9.2586,0.0,9.9532,9.9615,10.2216,10.7313,10.8084,10.8482,10.8521,10.9189,10.9509,10.9509,10.9509,10.9587,10.978,10.9911,10.9995,11.0094,11.021,11.021,11.0094,11.0094,11.0096,11.0121,9.1672,9.4826,9.7365,9.5249,9.6826,9.7904,9.6519,9.7211,9.7519,9.6442,9.725,9.8134,9.875,9.825,9.725,0.0,9.4864,9.4441,0.0,9.4941,9.5749,9.6673,9.6403,9.6211,9.6211,9.6211,9.6211,9.6211,0.0,0.0,0.0,9.7365,9.875,10.1019,10.1789,10.2712,10.3482,10.3482,10.3982,10.4713,10.4713,10.5213,10.602,10.602,10.6213,10.6405,10.6405,10.6405,10.6405,10.6405,10.6405,10.6405,10.6405,10.6405,10.6405,10.6405,10.6405,10.6405,10.6405,10.6213,10.602,10.602,10.529,10.4597,10.4405,10.3905,10.3597,10.3789,10.4482,10.5213,10.5482,10.602,10.529,10.1904,10.3289,0.0,0.0,0.0,0.0,0.0,9.7403,9.6865,0.0,9.7017,0.0,0.0,0.0,0.0,0.0,0.0,0.0,0.0,9.9937,0.0,10.4868,10.3122,10.4299,10.8206,10.8412,10.9092,11.0097,11.0414,11.0814,11.1289,11.1289,11.1289,11.1405,11.1389,11.1466,11.1472,11.1576,11.1608,11.1492,11.1111,11.0895,11.0872,9.2595,9.5403,9.7634,9.548,9.6903,9.7827,9.6288,9.7442,9.8019,9.6711,9.7942,9.9019,9.925,9.8788,0.0,9.775,9.6557,9.648,9.8057,9.7173,9.725,9.8865,9.7904,9.7365,9.7365,0.0,0.0,9.7365,9.825,9.9096,9.9904,9.9558,10.0712,10.3097,10.2712,10.3289,10.4405,10.4405,10.4789,10.5597,10.5597,10.5905,10.6405,10.6405,10.6405,10.6405,10.6405,10.6405,10.6405,10.6405,10.6405,10.6405,10.6405,10.6405,10.6405,10.6405,10.6405,10.6405,10.6405,10.6405,10.6405,10.6405,10.602,10.5482,10.5213,10.4482,10.3982,10.4289,10.4789,10.5213,10.5482,10.602,10.5713,10.3597,10.502,10.5713,10.352,0.0,0.0,0.0,0.0,0.0,0.0,9.975,9.8557,0.0,0.0,0.0,0.0,0.0,0.0,10.1611,10.1902,10.3212,10.5915,10.4596,10.5501,10.8594,10.9198,11.0119,11.1395,11.1395,11.1588,11.2097,11.2097,11.2208,11.2202,11.222,11.2298,11.222,11.2282,11.2311,11.2204,11.1825,11.1678,11.16,9.7096,9.7288,0.0,0.0,9.7519,0.0,9.4518,9.7557,9.9019,9.5788,9.8827,10.1019,10.0289,10.0212,10.0289,10.0289,0.0,0.0,0.0,10.1212,10.1212,10.1404,10.1289,10.1212,10.1212,10.1212,10.1289,10.152,10.2289,10.3097,10.3905,10.3097,10.3212,10.3905,10.3097,10.3712,10.5213,10.5213,10.5713,10.6405,10.6405,10.6405,10.6405,10.6405,10.6405,10.6405,10.6405,10.6405,10.6405,10.6405,10.6405,10.6405,10.6405,10.6405,10.6405,10.6405,10.6405,10.6405,10.6405,10.6405,10.6405,10.6405,10.6405,10.6213,10.5405,10.4597,10.4289,10.4982,10.5213,10.5405,10.629,10.6405,10.6405,10.6405,10.6405,10.629,10.6213,0.0,0.0,0.0,0.0,0.0,0.0,10.1597,10.1904,0.0,0.0,0.0,0.0,0.0,9.7086,9.9635,9.986,10.1193,10.3781,10.4621,10.6184,10.88,11.0283,11.1395,11.2101,11.2101,11.213,11.2196,11.2196,11.222,11.2282,11.2408,11.2408,11.2311,11.2408,11.2408,11.2311,11.2311,11.2311,11.2311,0.0,0.0,9.7865,9.5942,9.775,9.9288,9.8673,9.9981,10.0481,9.9058,10.0289,10.1212,10.1019,10.1597,10.1981,10.1981,9.925,9.8557,10.1096,10.0096,10.0289,10.2212,10.1096,10.0404,10.0404,10.0404,10.1289,10.3289,10.3482,10.3712,10.3905,10.3712,10.3982,10.4789,10.4597,10.5097,10.6097,10.6097,10.6213,10.6405,10.6405,10.6405,10.6405,10.6405,10.6405,10.6405,10.6405,10.6405,10.6405,10.6405,10.6405,10.6405,10.6405,10.6405,10.6405,10.6405,10.6405,10.6405,10.6405,10.6405,10.6405,10.6405,10.6405,10.629,10.6097,10.5905,10.5905,10.6097,10.6097,10.6213,10.6405,10.6405,10.6405,10.6405,10.6405,10.5713,10.3789,10.302,0.0,0.0,10.0596,10.1597,10.2212,10.4097,10.452,0.0,0.0,0.0,10.2597,10.1707,10.2306,10.499,10.5408,10.6097,10.7391,10.7597,10.8588,11.0399,11.1279,11.1898,11.2202,11.2202,11.2196,11.229,11.229,11.229,11.2282,11.2408,11.2398,11.2408,11.2491,11.2518,11.2491,11.2491,11.2491,11.2491,9.4364,9.7173,9.9519,9.8134,9.9404,10.0596,10.0596,10.1404,10.1712,10.1289,10.1981,10.252,10.252,10.2904,10.3289,10.3712,10.1289,10.0519,10.2404,10.1597,10.1712,10.3097,10.2289,10.1789,10.1789,10.1789,10.2712,10.4405,10.4405,10.4713,10.502,10.4597,10.4905,10.5713,10.529,10.5597,10.6405,10.6405,10.6405,10.6405,10.6405,10.6405,10.6405,10.6405,10.6405,10.6405,10.6405,10.6405,10.6405,10.6405,10.6405,10.6405,10.6405,10.6405,10.6405,10.6405,10.6405,10.6405,10.6405,10.6405,10.6405,10.6405,10.6405,10.6405,10.6405,10.6405,10.6405,10.6405,10.6405,10.6405,10.6405,10.6405,10.6405,10.6405,10.5405,10.4212,10.2789,10.1597,0.0,10.0596,10.1789,10.3097,10.4212,10.5597,10.579,10.4405,10.3289,0.0,10.4289,10.379,10.4507,10.6802,10.7522,10.8101,10.8594,10.9286,11.0283,11.1511,11.1898,11.2169,11.2196,11.2189,11.229,11.2302,11.2302,11.2408,11.2398,11.2503,11.2491,11.2491,11.2622,11.2583,11.2583,11.2583,11.2583,11.2583,10.0289,10.0789,10.1289,10.152,10.152,10.152,10.1712,10.2404,10.2981,10.2981,10.3712,10.4289,10.4289,10.4289,10.4597,10.5213,10.4713,10.4289,10.4289,10.4289,10.4289,10.4289,10.4289,10.4289,10.4289,10.4289,10.4597,10.529,10.529,10.5713,10.6405,10.5597,10.5713,10.6405,10.5597,10.5713,10.6405,10.6405,10.6405,10.6405,10.6405,10.6405,10.6405,10.6521,10.6597,10.6597,10.6713,10.679,10.679,10.679,10.679,10.679,10.679,10.679,10.679,10.6597,10.6597,10.6597,10.6405,10.6405,10.6405,10.6405,10.6405,10.6405,10.6405,10.6405,10.6405,10.6405,10.6405,10.6405,10.6405,10.6405,10.629,10.5905,10.402,10.252,10.2097,0.0,10.0212,10.2289,10.2904,10.402,10.6213,10.6405,10.6405,10.6405,10.4405,10.4212,10.6521,10.5371,10.5402,10.7194,10.8105,10.8617,10.8916,11.0399,11.1395,11.2101,11.2202,11.2228,11.2189,11.232,11.2379,11.2425,11.2425,11.2491,11.2583,11.2583,11.2583,11.2583,11.2583,11.2583,11.2583,11.2583,11.2583,11.2583,10.1096,10.1212,10.152,10.2289,10.2404,10.2597,10.3405,10.4212,10.4713,10.4713,10.5482,10.602,10.602,10.602,10.6097,10.6213,10.6097,10.602,10.602,10.602,10.602,10.602,10.602,10.602,10.602,10.602,10.6097,10.6213,10.6213,10.629,10.6405,10.629,10.629,10.6405,10.629,10.629,10.6405,10.6405,10.6405,10.6405,10.6405,10.6405,10.6521,10.7213,10.7521,10.7598,10.829,10.8482,10.8482,10.8482,10.8482,10.8482,10.8482,10.8482,10.8406,10.7713,10.7521,10.729,10.6597,10.6405,10.6405,10.6405,10.6405,10.6405,10.6405,10.6405,10.6405,10.6405,10.6405,10.6405,10.6405,10.6405,10.5713,10.352,10.2904,10.1789,9.9673,0.0,10.2212,10.2597,10.452,10.602,10.6405,10.6405,10.6405,10.6405,10.602,10.629,10.7405,10.7292,10.7721,10.8799,10.92,10.9795,11.0484,11.1395,11.1898,11.2202,11.2298,11.2311,11.2408,11.2408,11.2503,11.2595,11.2595,11.2622,11.2583,11.2583,11.2583,11.2583,11.2583,11.2583,11.2583,11.2583,11.2583,11.2583,10.2597,10.302,10.3597,10.452,10.4597,10.4789,10.5213,10.5597,10.579,10.579,10.6213,10.6405,10.6405,10.6405,10.6405,10.6405,10.6405,10.6405,10.6405,10.6405,10.6405,10.6405,10.6405,10.6405,10.6405,10.6405,10.6405,10.6405,10.6405,10.6405,10.6405,10.6405,10.6405,10.6405,10.6405,10.6405,10.6405,10.6405,10.6405,10.6405,10.6905,10.7098,10.7213,10.8021,10.829,10.8406,10.879,10.8906,10.8906,10.8906,10.8906,10.8906,10.8906,10.8906,10.879,10.8482,10.7713,10.6905,10.6521,10.6405,10.6405,10.6405,10.6405,10.6405,10.6405,10.6405,10.6405,10.6405,10.6405,10.6405,10.6405,10.6405,10.602,10.4789,10.352,0.0,0.0,10.1904,10.2597,10.2597,10.4789,10.6405,10.6405,10.6405,10.6597,10.7098,10.7098,10.7521,10.829,10.879,10.9294,10.9724,10.9992,11.0593,11.1511,11.1826,11.2091,11.2298,11.2311,11.2408,11.2398,11.253,11.2518,11.2583,11.2583,11.2583,11.2583,11.2583,11.2583,11.2583,11.2583,11.2583,11.2583,11.2583,11.2583,11.2583,10.4289,10.4982,10.5597,10.629,10.6405,10.6405,10.6405,10.6405,10.6405,10.6405,10.6405,10.6405,10.6405,10.6405,10.6405,10.6405,10.6405,10.6405,10.6405,10.6405,10.6405,10.6405,10.6405,10.6405,10.6405,10.6405,10.6405,10.6405,10.6405,10.6405,10.6405,10.6405,10.6405,10.6405,10.6405,10.6521,10.6713,10.6713,10.679,10.7021,10.7713,10.7982,10.8098,10.8906,10.9213,10.9213,10.9406,10.9483,10.9483,10.9483,10.9483,10.9483,10.9483,10.9483,10.9483,10.929,10.8098,10.7021,10.7021,10.679,10.6713,10.6713,10.6521,10.6405,10.6405,10.6405,10.6405,10.6405,10.6405,10.6405,10.6405,10.6405,10.6213,10.5597,0.0,0.0,0.0,10.2597,10.2789,10.3405,10.5405,10.6713,10.6713,10.6905,10.729,10.7905,10.7982,10.829,10.9213,10.979,11.0406,11.0791,11.0998,11.1498,11.2186,11.2379,11.2484,11.26,11.2612,11.2592,11.2386,11.2595,11.2583,11.2583,11.2583,11.2583,11.2583,11.2583,11.2583,11.2583,11.2583,11.2583,11.2583,11.2583,11.2583,11.2583,10.6213,10.629,10.629,10.6405,10.6405,10.6405,10.6405,10.6405,10.6405,10.6405,10.6405,10.6405,10.6405,10.6405,10.6405,10.6405,10.6405,10.6405,10.6405,10.6405,10.6405,10.6405,10.6405,10.6405,10.6405,10.6405,10.6405,10.6405,10.6405,10.6405,10.6405,10.6405,10.6405,10.6405,10.6405,10.679,10.7598,10.7598,10.8021,10.8713,10.879,10.879,10.8906,10.979,11.0098,11.0214,11.1021,11.1291,11.1291,11.1291,11.1291,11.1291,11.1291,11.1291,11.1098,11.0291,10.9406,10.8713,10.8713,10.8213,10.7598,10.7598,10.7021,10.6405,10.6405,10.6405,10.6405,10.6405,10.6405,10.6405,10.6405,10.6405,10.5597,10.3289,0.0,0.0,10.2597,10.2597,10.352,10.579,10.7021,10.7598,10.7598,10.829,10.8713,10.879,10.879,10.9213,11.0098,11.0175,11.0906,11.2483,11.2483,11.2688,11.2928,11.37,11.3891,11.328,11.3414,11.3107,11.2622,11.2583,11.2583,11.2583,11.2583,11.2583,11.2583,11.2583,11.2583,11.2583,11.2583,11.2583,11.2583,11.2583,11.2583,11.2583,10.6405,10.6405,10.6405,10.6405,10.6405,10.6405,10.6405,10.6405,10.6405,10.6405,10.6405,10.6405,10.6405,10.6405,10.6405,10.6405,10.6405,10.6405,10.6405,10.6405,10.6405,10.6405,10.6405,10.6405,10.6405,10.6405,10.6405,10.6405,10.6405,10.6405,10.6405,10.6405,10.6405,10.6405,10.7021,10.7405,10.7713,10.8213,10.8598,10.8906,10.9483,10.9713,10.979,11.0714,11.1021,11.1021,11.1406,11.1522,11.1522,11.1522,11.1522,11.1522,11.1522,11.1522,11.1406,11.1098,11.0791,11.0521,11.0521,10.9483,10.8406,10.8406,10.779,10.7213,10.7213,10.679,10.6405,10.6405,10.6405,10.6405,10.6405,10.679,10.6905,10.5905,0.0,10.6482,10.6482,10.6482,10.6905,10.779,10.8213,10.8406,10.8406,10.8713,10.9098,10.9713,10.9713,11.0098,11.0983,11.1483,11.2291,11.3483,11.3984,11.4113,11.3815,11.4085,11.4005,11.3499,11.3492,11.3223,11.2583,11.2583,11.2583,11.2583,11.2583,11.2583,11.2583,11.2583,11.2583,11.2583,11.2583,11.2583,11.2583,11.2583,11.2583,11.2583,10.6405,10.6405,10.6405,10.6405,10.6405,10.6405,10.6405,10.6405,10.6405,10.6405,10.6405,10.6405,10.6405,10.6405,10.6405,10.6405,10.6405,10.6405,10.6405,10.6405,10.6405,10.6405,10.6405,10.6405,10.6405,10.6405,10.6405,10.6405,10.6405,10.6405,10.6405,10.6713,10.679,10.679,10.7713,10.8213,10.8482,10.9098,10.9483,10.979,11.0406,11.0598,11.0714,11.1291,11.1522,11.1522,11.1522,11.1522,11.1522,11.1522,11.1522,11.1522,11.1522,11.1522,11.1522,11.1522,11.1522,11.1522,11.1522,11.0598,10.9713,10.9406,10.8713,10.8098,10.8098,10.779,10.7521,10.7213,10.7405,10.7521,10.7213,10.7713,10.8098,10.8098,10.8482,10.8906,10.8906,10.8906,10.8906,10.8906,10.9098,10.929,10.929,10.9598,10.9983,11.0598,11.0598,11.0983,11.1791,11.2714,11.3483,11.4407,11.4984,11.5187,11.4967,11.5008,11.4704,11.4099,11.39,11.3483,11.2918,11.2673,11.2583,11.2583,11.2583,11.2583,11.2583,11.2583,11.2583,11.2583,11.2583,11.2583,11.2583,11.2583,11.2583,11.2583,10.6405,10.6405,10.6405,10.6405,10.6405,10.6405,10.6405,10.6405,10.6405,10.6405,10.6405,10.6405,10.6405,10.6405,10.6405,10.6405,10.6405,10.6405,10.6405,10.6405,10.6405,10.6405,10.6405,10.6405,10.6405,10.6405,10.6405,10.6405,10.6405,10.6405,10.6405,10.729,10.7713,10.7713,10.8598,10.9406,11.0214,11.0214,11.0714,11.1522,11.1522,11.1522,11.1522,11.1522,11.1522,11.1522,11.1522,11.1522,11.1522,11.1522,11.1522,11.1522,11.1522,11.1522,11.1522,11.1522,11.1522,11.1522,11.1522,11.1522,11.1291,11.0406,10.9598,10.8906,10.8906,10.9598,10.9983,10.9098,10.9598,10.9906,10.9098,10.8906,10.8906,10.8906,10.8906,10.8906,10.8906,10.8906,10.8906,10.8906,10.9713,11.0214,11.0214,11.0983,11.1522,11.1522,11.1522,11.1906,11.2714,11.3483,11.4407,11.5291,11.5291,11.5676,11.6484,11.6484,11.6231,11.5513,11.4817,11.4182,11.3522,11.2891,11.2583,11.2583,11.2583,11.2583,11.2583,11.2583,11.2583,11.2583,11.2583,11.2583,11.2583,11.2583,11.2583,11.2583,10.6405,10.6405,10.6405,10.6405,10.6405,10.6405,10.6405,10.6405,10.6405,10.6405,10.6405,10.6405,10.6405,10.6405,10.6405,10.6405,10.6405,10.6405,10.6405,10.6405,10.6405,10.6405,10.6405,10.6405,10.6405,10.6405,10.6405,10.6405,10.7021,10.729,10.729,10.8213,10.8482,10.8598,10.9406,10.9983,11.0214,11.0906,11.1291,11.1522,11.1522,11.1522,11.1522,11.1522,11.1522,11.1522,11.1522,11.1522,11.1522,11.1522,11.1522,11.1522,11.1522,11.1522,11.1522,11.1522,11.1781,11.2197,11.2197,11.2613,11.2798,11.2005,11.1198,11.0699,11.1314,11.1198,11.0891,11.0584,11.0902,11.0786,10.9777,11.0209,11.0521,10.9906,11.0291,11.0714,11.0714,11.0714,11.0714,11.0714,11.1021,11.1098,11.1098,11.1291,11.1714,11.2291,11.2906,11.3599,11.4484,11.4791,11.5291,11.6099,11.6099,11.6292,11.6484,11.6484,11.6231,11.5513,11.5282,11.4894,11.4182,11.3522,11.3194,11.3194,11.2802,11.2583,11.2583,11.2583,11.2583,11.2583,11.2583,11.2583,11.2583,11.2583,11.2583,11.2583,10.6405,10.6405,10.6405,10.6405,10.6405,10.6405,10.6405,10.6405,10.6405,10.6405,10.6405,10.6405,10.6405,10.6405,10.6405,10.6405,10.6405,10.6405,10.6405,10.6405,10.6405,10.6405,10.6405,10.6405,10.6405,10.6405,10.6597,10.6905,10.7405,10.7905,10.8213,10.8983,10.9406,10.9483,11.0291,11.0714,11.0714,11.1291,11.1522,11.1522,11.1522,11.1522,11.1522,11.1522,11.1522,11.1522,11.1522,11.1522,11.1522,11.1522,11.1522,11.1522,11.1522,11.1522,11.1522,11.1522,11.1824,11.2197,11.2383,11.2836,11.3203,11.3318,11.2781,11.2291,11.279,11.279,11.2598,11.2291,11.2491,11.2575,11.1608,11.1922,11.2197,11.1704,11.2088,11.2401,11.2522,11.2522,11.2522,11.2522,11.2522,11.2522,11.2522,11.2522,11.2714,11.3214,11.3984,11.4714,11.5291,11.5599,11.5984,11.6484,11.6484,11.6484,11.6484,11.6484,11.6303,11.593,11.5627,11.5282,11.4933,11.4182,11.3809,11.3483,11.3107,11.2802,11.2583,11.2583,11.2583,11.2583,11.2583,11.2583,11.2583,11.2583,11.2583,11.2583,10.6405,10.6405,10.6405,10.6405,10.6405,10.6405,10.6405,10.6405,10.6405,10.6521,10.6521,10.6521,10.6521,10.6521,10.6521,10.6405,10.6405,10.6405,10.6405,10.6405,10.6405,10.6405,10.6521,10.6521,10.6521,10.6521,10.6905,10.779,10.7905,10.829,10.8983,10.9906,11.0291,11.0406,11.1098,11.1522,11.1522,11.1522,11.1522,11.1522,11.1522,11.1522,11.1522,11.1522,11.1522,11.1522,11.1522,11.1522,11.1522,11.1522,11.1522,11.1522,11.1522,11.1522,11.1522,11.1522,11.1522,11.1709,11.2383,11.2606,11.302,11.4426,11.4273,11.3797,11.3759,11.4372,11.4793,11.4037,11.4421,11.4727,11.3922,11.373,11.3702,11.3796,11.3804,11.3811,11.3978,11.4022,11.4022,11.4022,11.3984,11.3984,11.3984,11.4099,11.4099,11.4099,11.4907,11.5407,11.5407,11.6099,11.6484,11.6484,11.6407,11.6407,11.6407,11.6292,11.6407,11.6484,11.5892,11.5588,11.5588,11.4896,11.4298,11.3693,11.3608,11.3194,11.2673,11.2673,11.2622,11.2583,11.2583,11.2583,11.2583,11.2583,11.2583,11.2583,10.6405,10.6405,10.6405,10.6405,10.6405,10.6405,10.6405,10.6405,10.6597,10.729,10.7405,10.7405,10.7405,10.7405,10.7098,10.6521,10.6405,10.6405,10.6405,10.6405,10.6405,10.6405,10.7098,10.7405,10.7405,10.7405,10.779,10.8598,10.929,10.9713,10.9906,11.0791,11.1214,11.1214,11.1406,11.1522,11.1522,11.1522,11.1522,11.1522,11.1522,11.1522,11.1522,11.1522,11.1522,11.1522,11.1522,11.1522,11.1522,11.1522,11.1522,11.1522,11.1522,11.1522,11.1522,11.1522,11.1896,11.2383,11.3165,11.3797,11.4426,11.5305,11.5367,11.5305,11.5371,11.5498,11.5613,11.5421,11.5587,11.5598,11.4617,11.4476,11.4382,11.3702,11.3625,11.3711,11.3804,11.3804,11.3888,11.3978,11.4022,11.4022,11.3984,11.4599,11.4984,11.4984,11.5792,11.6176,11.6176,11.6407,11.6484,11.6484,11.5907,11.5599,11.5599,11.4907,11.5215,11.6484,11.6375,11.6303,11.6303,11.5588,11.5206,11.4974,11.4464,11.39,11.331,11.331,11.298,11.2583,11.2583,11.2583,11.2583,11.2583,11.2583,11.2583,10.6486,10.6409,10.6369,10.6405,10.6405,10.6521,10.7021,10.7021,10.729,10.8213,10.829,10.829,10.829,10.829,10.7905,10.7098,10.7021,10.7021,10.7021,10.7021,10.7213,10.7598,10.8021,10.8482,10.8906,10.8906,10.9098,10.9483,10.9983,11.0406,11.0791,11.1291,11.1522,11.1522,11.1522,11.1522,11.1522,11.1522,11.1522,11.1522,11.1522,11.1522,11.1522,11.1522,11.1522,11.1522,11.1522,11.1522,11.1522,11.1522,11.1522,11.1522,11.1522,11.1522,11.1522,11.1522,11.1709,11.2197,11.2866,11.3395,11.3912,11.5013,11.5229,11.5305,11.5688,11.5802,11.5802,11.5802,11.5893,11.583,11.5305,11.5204,11.5179,11.4821,11.4793,11.4814,11.4986,11.5002,11.5086,11.5215,11.5215,11.5215,11.5215,11.5599,11.5907,11.5907,11.6292,11.6484,11.6484,11.6099,11.5907,11.5907,11.5099,11.4714,11.4714,11.4214,11.4407,11.5291,11.5291,11.5291,11.5291,11.4921,11.4581,11.4317,11.3892,11.3381,11.2777,11.291,11.2729,11.2503,11.2595,11.2583,11.2583,11.2583,11.2583,11.2583,10.6526,10.6603,10.6679,10.6514,10.671,10.6979,10.7663,10.7825,10.8213,10.8983,10.9098,10.9098,10.9098,10.8983,10.8598,10.7982,10.7905,10.7905,10.7905,10.7905,10.8213,10.8906,10.8983,10.9483,11.0214,11.0291,11.0406,11.0406,11.0406,11.0791,11.1522,11.1522,11.1522,11.1522,11.1522,11.1522,11.1522,11.1522,11.1522,11.1522,11.1522,11.1522,11.1522,11.1522,11.1522,11.1522,11.1522,11.1522,11.1522,11.1522,11.1522,11.1522,11.1522,11.1522,11.1522,11.1522,11.1522,11.1594,11.2313,11.2498,11.2836,11.4208,11.449,11.472,11.5406,11.5582,11.5696,11.5696,11.5696,11.5696,11.5696,11.5696,11.5711,11.5816,11.5996,11.6108,11.6167,11.627,11.64,11.6477,11.6522,11.6484,11.6484,11.6407,11.6292,11.6292,11.6176,11.6099,11.6099,11.5407,11.5099,11.5099,11.4214,11.3791,11.3791,11.3599,11.3599,11.3599,11.3599,11.3714,11.3984,11.3984,11.3685,11.3197,11.3197,11.2812,11.2183,11.2395,11.2375,11.2282,11.2503,11.2595,11.2583,11.2583,11.2583,11.2583,10.6526,10.7102,10.7394,10.6787,10.7724,10.8393,10.7973,10.8415,10.8983,10.9906,10.9983,10.9983,10.9983,10.9406,10.8906,10.8713,10.8713,10.8713,10.8713,10.8713,10.879,10.8906,10.9598,11.0098,11.0214,11.0906,11.1291,11.1291,11.1291,11.1406,11.1522,11.1522,11.1522,11.1522,11.1522,11.1522,11.1522,11.1522,11.1522,11.1522,11.1522,11.1522,11.1522,11.1522,11.1522,11.1522,11.1522,11.1522,11.1522,11.1522,11.1522,11.1522,11.1522,11.1522,11.1522,11.1522,11.1522,11.1594,11.2313,11.2498,11.2683,11.35,11.3682,11.3912,11.472,11.5305,11.5696,11.5696,11.5696,11.5696,11.5696,11.5696,11.5696,11.5658,11.5711,11.5802,11.5893,11.608,11.6176,11.6291,11.6393,11.6484,11.6484,11.5907,11.5484,11.5484,11.4791,11.4291,11.4291,11.4214,11.4214,11.4214,11.3291,11.2906,11.2906,11.2214,11.1791,11.1791,11.1791,11.2599,11.3984,11.3984,11.3984,11.3912,11.3912,11.35,11.289,11.2889,11.272,11.2282,11.2311,11.2398,11.2583,11.2583,11.2583,11.2583,10.6299,10.7204,10.7818,10.7006,10.7364,10.7991,10.8628,10.8615,10.9072,11.0666,11.0609,11.0479,11.0902,11.0598,11.0214,10.9713,10.9598,10.9598,10.9598,10.9598,10.979,11.0291,11.0714,11.0906,11.0906,11.1291,11.1522,11.1522,11.1522,11.1522,11.1522,11.1522,11.1522,11.1522,11.1522,11.1522,11.1522,11.1522,11.1522,11.1522,11.1522,11.1522,11.1522,11.1522,11.1522,11.1522,11.1522,11.1522,11.1522,11.1522,11.1522,11.1522,11.1522,11.1522,11.1522,11.1522,11.1522,11.1598,11.1896,11.1896,11.2082,11.2798,11.2982,11.3318,11.4426,11.4898,11.5229,11.5582,11.5696,11.5696,11.5696,11.5696,11.5696,11.5696,11.5788,11.5802,11.5879,11.6008,11.6003,11.5716,11.5317,11.5099,11.5099,11.4791,11.4599,11.4599,11.4214,11.3984,11.3984,11.3483,11.3291,11.3291,11.2522,11.2022,11.2022,11.1714,11.1522,11.1522,11.1522,11.1906,11.2599,11.2599,11.2599,11.2599,11.2599,11.2372,11.2228,11.2194,11.2193,11.2024,11.222,11.2408,11.2583,11.2583,11.2583,11.2583]},{"header":{"parameterUnit":"m.s-1","parameterCategory":1,"la1":30.6,"la2":28.766,"lo1":-90.7593,"lo2":-88.6598,"dy":0.0162,"dx":0.0183,"nx":116,"ny":114,"refTime":"2023-03-13T12:00:00:Z","depth":0,"parameterNumber":3,"parameterNumberName":"V-component_of_WINDS"},"data":[0.0,0.0,0.0,0.0,0.0,0.0,0.0,0.0,0.0,0.0,0.0,0.0,0.0,0.0,0.0,0.0,0.0,0.0,0.0,0.0,0.0,0.0,0.0,0.0,0.0,0.0,0.0,0.0,0.0,0.0,0.0,0.0,0.0,0.0,0.0,0.0,0.0,0.0,0.0,0.0,0.0,0.0,0.0,0.0,0.0,0.0,0.0,0.0,0.0,0.0,0.0,0.0,0.0,0.0,0.0,0.0,0.0,0.0,0.0,0.0,0.0,0.0,0.0,0.0,0.0,0.0,0.0,0.0,0.0,0.0,0.0,0.0,0.0,0.0,0.0,0.0,0.0,0.0,0.0,0.0,0.0,0.0,0.0,0.0,0.0,0.0,0.0,0.0,0.0,0.0,0.0,0.0,0.0,0.0,0.0,0.0,0.0,0.0,0.0,0.0,0.0,0.0,0.0,0.0,0.0,0.0,0.0,0.0,0.0,0.0,0.0,0.0,0.0,0.0,0.0,0.0,0.0,0.0,0.0,0.0,0.0,0.0,0.0,0.0,0.0,0.0,0.0,0.0,0.0,0.0,0.0,0.0,0.0,0.0,0.0,0.0,0.0,0.0,0.0,0.0,0.0,0.0,0.0,0.0,0.0,0.0,0.0,0.0,0.0,0.0,0.0,0.0,0.0,0.0,0.0,0.0,0.0,0.0,0.0,0.0,0.0,0.0,0.0,0.0,0.0,0.0,0.0,0.0,0.0,0.0,0.0,0.0,0.0,0.0,0.0,0.0,0.0,0.0,0.0,0.0,0.0,0.0,0.0,0.0,0.0,0.0,0.0,0.0,0.0,0.0,0.0,0.0,0.0,0.0,0.0,0.0,0.0,0.0,0.0,0.0,0.0,0.0,0.0,0.0,0.0,0.0,0.0,0.0,0.0,0.0,0.0,0.0,0.0,0.0,0.0,0.0,0.0,0.0,0.0,0.0,0.0,0.0,0.0,0.0,0.0,0.0,0.0,0.0,0.0,0.0,0.0,0.0,0.0,0.0,0.0,0.0,0.0,0.0,0.0,0.0,0.0,0.0,0.0,0.0,0.0,0.0,0.0,0.0,0.0,0.0,0.0,0.0,0.0,0.0,0.0,0.0,0.0,0.0,0.0,0.0,0.0,0.0,0.0,0.0,0.0,0.0,0.0,0.0,0.0,0.0,0.0,0.0,0.0,0.0,0.0,0.0,0.0,0.0,0.0,0.0,0.0,0.0,0.0,0.0,0.0,0.0,0.0,0.0,0.0,0.0,0.0,0.0,0.0,0.0,0.0,0.0,0.0,0.0,0.0,0.0,0.0,0.0,0.0,0.0,0.0,0.0,0.0,0.0,0.0,0.0,0.0,0.0,0.0,0.0,0.0,0.0,0.0,0.0,0.0,0.0,0.0,0.0,0.0,0.0,0.0,0.0,0.0,0.0,0.0,0.0,0.0,0.0,0.0,0.0,0.0,0.0,0.0,0.0,0.0,0.0,0.0,0.0,0.0,0.0,0.0,0.0,0.0,0.0,0.0,0.0,0.0,0.0,0.0,0.0,0.0,0.0,0.0,0.0,0.0,0.0,0.0,0.0,0.0,0.0,0.0,0.0,0.0,0.0,0.0,0.0,0.0,0.0,0.0,0.0,0.0,0.0,0.0,0.0,0.0,0.0,0.0,0.0,0.0,0.0,0.0,0.0,0.0,0.0,0.0,0.0,0.0,0.0,0.0,0.0,0.0,0.0,0.0,0.0,0.0,0.0,0.0,0.0,0.0,0.0,0.0,0.0,0.0,0.0,0.0,0.0,0.0,0.0,0.0,0.0,0.0,0.0,0.0,0.0,0.0,0.0,0.0,0.0,0.0,0.0,0.0,0.0,0.0,0.0,0.0,0.0,0.0,0.0,0.0,0.0,0.0,0.0,0.0,0.0,0.0,0.0,0.0,0.0,0.0,0.0,0.0,0.0,0.0,0.0,0.0,0.0,0.0,0.0,0.0,0.0,0.0,0.0,0.0,0.0,0.0,0.0,0.0,0.0,0.0,0.0,0.0,0.0,0.0,0.0,0.0,0.0,0.0,0.0,0.0,0.0,0.0,0.0,0.0,0.0,0.0,0.0,0.0,0.0,0.0,0.0,0.0,0.0,0.0,0.0,0.0,0.0,0.0,0.0,0.0,0.0,0.0,0.0,0.0,0.0,0.0,0.0,0.0,0.0,0.0,0.0,0.0,0.0,0.0,0.0,0.0,0.0,0.0,0.0,0.0,0.0,0.0,0.0,0.0,0.0,0.0,0.0,0.0,0.0,0.0,0.0,0.0,0.0,0.0,0.0,0.0,0.0,0.0,0.0,0.0,0.0,0.0,0.0,0.0,0.0,0.0,0.0,0.0,0.0,0.0,0.0,0.0,0.0,0.0,0.0,0.0,0.0,0.0,0.0,0.0,0.0,0.0,0.0,0.0,0.0,0.0,0.0,0.0,0.0,0.0,0.0,0.0,0.0,0.0,0.0,0.0,0.0,0.0,0.0,0.0,0.0,0.0,0.0,0.0,0.0,0.0,0.0,0.0,0.0,0.0,0.0,0.0,0.0,0.0,0.0,0.0,0.0,0.0,0.0,0.0,0.0,0.0,0.0,0.0,0.0,0.0,0.0,0.0,0.0,0.0,0.0,0.0,0.0,0.0,0.0,0.0,0.0,0.0,0.0,0.0,0.0,0.0,0.0,0.0,0.0,0.0,0.0,0.0,0.0,0.0,0.0,0.0,0.0,0.0,0.0,0.0,0.0,0.0,0.0,0.0,0.0,0.0,0.0,0.0,0.0,0.0,0.0,0.0,0.0,0.0,0.0,0.0,0.0,0.0,0.0,0.0,0.0,0.0,0.0,0.0,0.0,0.0,0.0,0.0,0.0,0.0,0.0,0.0,0.0,0.0,0.0,0.0,0.0,0.0,0.0,0.0,0.0,0.0,0.0,0.0,0.0,0.0,0.0,0.0,0.0,0.0,0.0,0.0,0.0,0.0,0.0,0.0,0.0,0.0,0.0,0.0,0.0,0.0,0.0,0.0,0.0,0.0,0.0,0.0,0.0,0.0,0.0,0.0,0.0,0.0,0.0,0.0,0.0,0.0,0.0,0.0,0.0,0.0,0.0,0.0,0.0,0.0,0.0,0.0,0.0,0.0,0.0,0.0,0.0,0.0,0.0,0.0,0.0,0.0,0.0,0.0,0.0,0.0,0.0,0.0,0.0,0.0,0.0,0.0,0.0,0.0,0.0,0.0,0.0,0.0,0.0,0.0,0.0,0.0,0.0,0.0,0.0,0.0,0.0,0.0,0.0,0.0,0.0,0.0,0.0,0.0,0.0,0.0,0.0,0.0,0.0,0.0,0.0,0.0,0.0,0.0,0.0,0.0,0.0,0.0,0.0,0.0,0.0,0.0,0.0,0.0,0.0,0.0,0.0,0.0,0.0,0.0,0.0,0.0,0.0,0.0,0.0,0.0,0.0,0.0,0.0,0.0,0.0,0.0,0.0,0.0,0.0,0.0,0.0,0.0,0.0,0.0,0.0,0.0,0.0,0.0,0.0,0.0,0.0,0.0,0.0,0.0,0.0,0.0,0.0,0.0,0.0,0.0,0.0,0.0,0.0,0.0,0.0,0.0,0.0,0.0,0.0,0.0,0.0,0.0,0.0,0.0,0.0,0.0,0.0,0.0,0.0,0.0,0.0,0.0,0.0,0.0,0.0,0.0,0.0,0.0,0.0,0.0,0.0,0.0,0.0,0.0,0.0,0.0,0.0,0.0,0.0,0.0,0.0,0.0,0.0,0.0,0.0,0.0,0.0,0.0,0.0,0.0,0.0,0.0,0.0,0.0,0.0,0.0,0.0,0.0,0.0,0.0,0.0,0.0,0.0,0.0,0.0,0.0,0.0,0.0,0.0,0.0,0.0,0.0,0.0,0.0,0.0,0.0,0.0,0.0,0.0,0.0,0.0,0.0,0.0,0.0,0.0,0.0,0.0,0.0,0.0,0.0,0.0,0.0,0.0,0.0,0.0,0.0,0.0,0.0,0.0,0.0,0.0,0.0,0.0,0.0,0.0,0.0,0.0,0.0,0.0,0.0,0.0,0.0,0.0,0.0,0.0,0.0,0.0,0.0,0.0,0.0,0.0,0.0,0.0,0.0,0.0,0.0,0.0,0.0,0.0,0.0,0.0,0.0,0.0,0.0,0.0,0.0,0.0,0.0,0.0,0.0,0.0,0.0,0.0,0.0,0.0,0.0,0.0,0.0,0.0,0.0,0.0,0.0,0.0,0.0,0.0,0.0,0.0,0.0,0.0,0.0,0.0,0.0,0.0,0.0,0.0,0.0,0.0,0.0,0.0,0.0,0.0,0.0,0.0,0.0,0.0,0.0,0.0,0.0,0.0,0.0,0.0,0.0,0.0,0.0,0.0,0.0,0.0,0.0,0.0,0.0,0.0,0.0,0.0,0.0,0.0,0.0,0.0,0.0,0.0,0.0,0.0,0.0,0.0,0.0,0.0,0.0,0.0,0.0,0.0,0.0,0.0,0.0,0.0,0.0,0.0,0.0,0.0,0.0,0.0,0.0,0.0,0.0,0.0,0.0,0.0,0.0,0.0,0.0,0.0,0.0,0.0,0.0,0.0,0.0,0.0,0.0,0.0,0.0,0.0,0.0,0.0,0.0,0.0,0.0,0.0,0.0,0.0,0.0,0.0,0.0,0.0,0.0,0.0,0.0,0.0,0.0,0.0,0.0,0.0,0.0,0.0,0.0,0.0,0.0,0.0,0.0,0.0,0.0,0.0,0.0,0.0,0.0,0.0,0.0,0.0,0.0,0.0,0.0,0.0,0.0,0.0,0.0,0.0,0.0,0.0,0.0,0.0,0.0,0.0,0.0,0.0,0.0,0.0,0.0,0.0,0.0,0.0,0.0,0.0,0.0,0.0,0.0,0.0,0.0,0.0,0.0,0.0,0.0,0.0,0.0,0.0,0.0,0.0,0.0,0.0,0.0,0.0,0.0,0.0,0.0,0.0,0.0,0.0,0.0,0.0,0.0,0.0,0.0,0.0,0.0,0.0,0.0,0.0,0.0,0.0,0.0,0.0,0.0,0.0,0.0,0.0,0.0,0.0,0.0,0.0,0.0,0.0,0.0,0.0,0.0,0.0,0.0,0.0,0.0,0.0,0.0,0.0,0.0,0.0,0.0,0.0,0.0,0.0,0.0,0.0,0.0,0.0,0.0,0.0,0.0,0.0,0.0,0.0,0.0,0.0,0.0,0.0,0.0,0.0,0.0,0.0,0.0,0.0,0.0,0.0,0.0,0.0,0.0,0.0,0.0,0.0,0.0,0.0,0.0,0.0,0.0,0.0,0.0,0.0,0.0,0.0,0.0,0.0,0.0,0.0,0.0,0.0,0.0,0.0,0.0,0.0,0.0,0.0,0.0,0.0,0.0,0.0,0.0,0.0,0.0,0.0,0.0,0.0,0.0,0.0,0.0,0.0,0.0,0.0,0.0,0.0,0.0,0.0,0.0,0.0,0.0,0.0,0.0,0.0,0.0,0.0,0.0,0.0,0.0,0.0,0.0,0.0,0.0,0.0,0.0,0.0,0.0,0.0,0.0,0.0,0.0,0.0,0.0,0.0,0.0,0.0,0.0,0.0,0.0,0.0,0.0,0.0,0.0,0.0,0.0,0.0,0.0,0.0,0.0,0.0,0.0,0.0,0.0,0.0,0.0,0.0,0.0,0.0,0.0,0.0,0.0,0.0,0.0,0.0,0.0,0.0,0.0,0.0,0.0,0.0,0.0,0.0,0.0,0.0,0.0,0.0,0.0,0.0,0.0,0.0,0.0,0.0,0.0,0.0,0.0,0.0,0.0,0.0,0.0,0.0,0.0,0.0,0.0,0.0,0.0,0.0,0.0,0.0,0.0,0.0,0.0,0.0,0.0,0.0,0.0,0.0,0.0,0.0,0.0,0.0,0.0,0.0,0.0,0.0,0.0,0.0,0.0,0.0,0.0,0.0,0.0,0.0,0.0,0.0,0.0,0.0,0.0,0.0,0.0,0.0,0.0,0.0,0.0,0.0,-0.6864,0.0,0.0,0.0,0.0,0.0,0.0,0.0,0.0,0.0,0.0,0.0,0.0,0.0,0.0,0.0,0.0,0.0,0.0,0.0,0.0,0.0,0.0,0.0,0.0,0.0,0.0,0.0,0.0,0.0,0.0,0.0,0.0,0.0,0.0,0.0,0.0,0.0,0.0,0.0,0.0,0.0,0.0,0.0,0.0,0.0,0.0,0.0,0.0,0.0,0.0,0.0,0.0,0.0,0.0,0.0,0.0,0.0,0.0,0.0,0.0,0.0,0.0,0.0,0.0,0.0,0.0,0.0,0.0,0.0,0.0,0.0,0.0,0.0,0.0,0.0,0.0,0.0,0.0,0.0,0.0,0.0,0.0,0.0,0.0,0.0,0.0,0.0,0.0,0.0,0.0,0.0,0.0,0.0,0.0,0.0,0.0,0.0,0.0,0.0,0.0,0.0,0.0,0.0,0.0,0.0,0.0,0.0,0.0,0.0,0.0,0.0,0.0,0.0,0.0,0.0,0.0,-0.5443,0.0,0.0,0.0,0.0,0.0,0.0,0.0,0.0,0.0,0.0,0.0,0.0,0.0,0.0,0.0,0.0,0.0,0.0,0.0,0.0,0.0,0.0,0.0,0.0,0.0,0.0,0.0,0.0,0.0,0.0,0.0,0.0,0.0,0.0,0.0,0.0,0.0,0.0,0.0,0.0,0.0,0.0,0.0,0.0,0.0,0.0,0.0,0.0,0.0,0.0,0.0,0.0,0.0,0.0,0.0,0.0,0.0,0.0,0.0,0.0,0.0,0.0,0.0,0.0,0.0,0.0,0.0,0.0,0.0,0.0,0.0,0.0,0.0,0.0,0.0,0.0,0.0,0.0,0.0,0.0,0.0,0.0,0.0,0.0,0.0,0.0,0.0,0.0,0.0,0.0,0.0,0.0,0.0,0.0,0.0,0.0,0.0,0.0,0.0,0.0,0.0,0.0,0.0,0.0,0.0,0.0,0.0,0.0,-0.2542,-0.2888,-0.3913,-0.3403,-0.2525,-0.1655,-0.201,-0.238,-0.2582,0.0,0.0,0.0,0.0,0.0,0.0,0.0,0.0,0.0,0.0,0.0,0.0,0.0,0.0,0.0,0.0,0.0,0.0,0.0,0.0,0.0,0.0,0.0,0.0,0.0,0.0,0.0,0.0,0.0,0.0,0.0,0.0,0.0,0.0,0.0,0.0,0.0,0.0,0.0,0.2514,0.2514,0.2506,0.2491,0.0,0.0,0.0,0.0,0.0,0.0,0.0,0.0,0.0,0.0,0.0,0.0,0.0,0.0,0.0,0.0,0.0,0.0,0.0,0.0,0.0,0.0,0.0,0.0,0.0,0.0,0.0,0.0,0.0,0.0,0.0,0.0,0.0,0.0,0.0,0.0,0.0,0.0,0.0,0.0,0.0,0.0,0.0,0.0,-0.8292,-0.8811,0.0,0.0,0.0,0.0,0.0,0.0,0.0,0.0,0.0,0.0,0.0,0.0,0.0,-0.2669,-0.2661,-0.3583,-0.4148,-0.415,-0.3173,-0.2846,-0.3024,-0.0534,0.0711,0.0885,0.0863,0.0,-0.2196,-0.2737,0.0,0.0,0.0,0.0,0.0,0.0,0.0,0.0,0.0,0.0,0.0,0.0,0.0,0.0,0.0,0.0,0.0,0.0,0.0,0.0,0.0,0.0,0.0,0.0,0.0,0.0,0.0,0.0,0.0,0.0,0.0,0.0,0.0,0.0,0.0,0.0,0.2224,0.2259,0.1797,0.1797,0.1797,0.1797,0.1797,0.2081,0.2474,0.2474,0.0,0.0,0.0,0.0,0.0,0.0,0.0,0.0,0.0,0.0,0.0,0.0,0.0,0.0,0.0,0.0,0.0,0.0,0.0,0.0,0.0,0.0,0.0,0.0,0.0,0.0,0.0,0.0,0.0,0.0,0.0,0.0,0.0,0.0,0.0,0.0,0.0,0.0,0.0,-0.8076,-0.8481,-0.8484,-0.854,-0.8492,0.0,0.0,0.0,0.0,0.0,0.0,0.0,0.0,0.0,-0.2142,-0.1351,-0.085,-0.0672,-0.0522,-0.0354,-0.0354,0.018,0.0362,0.0362,0.164,0.2011,0.1461,0.1441,0.0893,-0.0177,-0.0524,-0.0525,-0.053,0.0,0.0,0.0,0.0,0.117,0.1016,0.0,0.0,0.0,0.0,0.0,0.0,0.0,0.0,0.0,0.0,0.0,0.0,0.0,0.0,0.0,0.0,0.0,0.0,0.0,0.0,0.0,0.0,0.0,0.0,0.0,0.0,0.0,0.0,0.1626,0.1822,0.1683,0.1346,0.1346,0.1346,0.1351,0.1651,0.222,0.2061,0.2033,0.0,0.0,0.0,0.0,0.0,0.0,0.0,0.0,0.0,0.0,0.0,0.0,0.0,0.0,0.0,0.0,0.0,0.0,0.0,0.0,0.0,0.0,0.0,0.0,0.0,0.0,0.0,0.0,0.0,0.0,0.0,0.0,0.0,0.0,0.0,0.0,0.0,0.0,-0.8032,-0.7861,-0.8121,-0.7318,-0.6944,0.0,0.0,0.0,0.0,0.0,0.0,-0.1692,-0.1693,-0.1348,-0.0834,0.0344,0.1043,0.1197,0.2304,0.2886,0.2886,0.2363,0.2189,0.2189,0.22,0.1838,0.1103,0.1106,0.1107,0.1104,0.0895,0.0891,0.1081,0.1438,0.1772,0.226,0.2766,0.278,0.262,0.0,0.0,0.0,0.0,0.0,0.0,0.0,0.0,0.0,0.0,0.0,0.0,0.0,0.0,0.0,0.0,0.0,0.0,0.0,0.0,0.0,0.0,0.0,0.0,0.0,0.0,0.0,0.1321,0.0502,0.1009,0.2527,0.1685,0.1347,0.1348,0.1363,0.1343,0.13,0.13,0.1282,0.1252,0.0,0.0,0.0,0.0,0.0,0.0,0.0,0.0,0.0,0.0,0.0,0.0,0.0,0.0,0.0,0.0,0.0,0.0,0.0,0.0,0.0,0.0,0.0,0.0,0.0,0.0,0.0,0.0,0.0,0.0,0.0,0.0,0.0,0.0,0.0,0.0,0.0,0.0,0.0,-0.8105,-0.5291,0.0,0.0,0.0,0.0,-0.2517,-0.2348,-0.1525,0.0,0.0173,0.0875,0.2679,0.2687,0.2688,0.2864,0.29,0.2917,0.2917,0.1094,0.0182,0.0182,0.0181,0.018,0.0,0.0,0.0,0.0,0.0,0.0,0.0,0.018,0.1241,0.295,0.3058,0.3116,0.3043,0.0,0.0,0.0,0.0,0.0,0.0,0.0,0.0,0.0,0.0,0.0,0.0,0.0,0.0,0.0,0.0,0.0,0.0,0.0,0.0,0.0,0.0,0.0,0.0,0.0,0.0,0.0162,0.0491,0.0167,0.0338,0.1022,0.0681,0.0513,0.0516,0.0518,0.0515,0.051,0.051,0.0503,0.0493,0.0657,0.1123,0.0,0.0,0.0,0.0,0.0,0.0,0.0,0.0,0.0,0.0,0.0,0.0,0.0,0.0,0.0,0.0,0.0,0.0,0.0,0.0,0.0,0.0,0.0,0.0,0.0,0.0,0.0,0.0,0.0,0.0,0.0,0.0,0.0,0.0,0.0,0.0,0.0,-0.4491,-0.3493,0.0,-0.3646,-0.1908,-0.0692,-0.0687,0.0348,0.1232,0.1952,0.1952,0.2323,0.29,0.2883,0.2883,0.2901,0.2912,0.2544,0.1987,0.1281,0.0551,0.0,0.0,0.0,0.0,0.0,0.0,0.0,0.0,0.0,0.0,0.0,0.0732,0.201,0.2721,0.3118,0.2798,0.0,0.0,0.0,0.0,0.0,0.0,0.0,0.0,0.0,0.0,0.0,0.0,0.0,0.0,0.0,0.0,0.0,0.0,0.0,0.0,0.0,0.0,0.0,0.0,0.0,0.0,0.0,0.0,0.0,0.0,0.0,0.0,0.0,0.0,0.0,0.0,0.0,0.0,0.0,0.0,0.0,0.0331,0.0954,0.0,0.0,0.0,0.0,0.0,0.0,0.0,0.0,0.0,0.0,0.0,0.0,0.0,0.0,0.0,0.0,0.0,0.0,0.0,0.0,0.0,0.0,0.0,0.0,0.0,0.0,0.0,0.0,0.0,0.0,0.0,0.0,0.0,0.0,0.0,-0.1862,-0.2596,-0.1572,-0.1053,-0.1579,0.0,0.1229,0.1229,0.2315,0.2874,0.2874,0.2874,0.2887,0.2915,0.2898,0.2902,0.2931,0.2942,0.2566,0.1997,0.1288,0.0553,0.0,0.0,0.0,0.0,0.0,0.0,0.0,0.0,0.0,0.0,0.0,0.0746,0.2057,0.2816,0.302,0.2845,0.0,0.0,0.0,0.0,0.0,0.0,0.0,0.0,0.0,0.0,0.0,0.0,0.0,0.0,0.0,0.0,0.0,0.0,0.0,0.0,0.0,0.0,0.0,0.0,0.0,0.0,0.0,0.0,0.0,0.0,0.0,0.0,0.0,0.0,0.0,0.0,0.0,0.0,0.0,0.0,0.0,0.0,0.0163,0.0,0.0,0.0,0.0,0.0,0.0,0.0,0.0,0.0,0.0,0.0,0.0,0.0,0.0,0.0,0.0,0.0,0.0,0.0,0.0,0.0,0.0,0.0,0.0,0.0,0.0,0.0,0.0,0.0,0.0,0.0,0.0,0.0,-0.2236,-0.0839,-0.0347,-0.2258,0.0709,0.2154,0.0359,0.1795,0.2874,0.2874,0.2875,0.2875,0.2875,0.2872,0.2885,0.2912,0.2912,0.2927,0.2957,0.299,0.2992,0.2965,0.0926,0.0,0.0,0.0,0.0,0.0,0.0,0.0,0.0,0.0,0.0,0.0,0.0,0.1309,0.2972,0.2999,0.301,0.3014,0.0,0.0,0.0,0.0,0.0,0.0,0.0,0.0,0.0,0.0,0.0,0.0,0.0,0.0,0.0,0.0,0.0,0.0,0.0,0.0,0.0,0.0,0.0,0.0,0.0,0.0,0.0,0.0,0.0,0.0,0.0,0.0,0.0,0.0,0.0,0.0,0.0,0.0,0.0,0.0,0.0,0.0,0.0171,0.0,0.0,0.0,0.0,0.0,0.0,0.0,0.0,0.0,0.0,0.0,0.0,0.0,0.0,0.0,0.0,0.0,0.0,0.0,0.0,0.0,0.0,0.0,0.0,0.0,0.0,0.0,0.0,0.0,0.0,0.0,0.0,0.1524,-0.017,0.1026,0.1907,0.1419,0.2326,0.2694,0.2154,0.2515,0.2874,0.2874,0.2893,0.2904,0.2904,0.2844,0.2822,0.2852,0.2831,0.2834,0.2864,0.296,0.2618,0.1853,0.2053,0.149,0.0,0.0,0.0,0.0,0.0,0.0,0.0,0.0,0.0,0.0,0.0,0.0381,0.0957,0.2493,0.3086,0.3095,0.0,0.0,0.0,0.0,0.0,0.0,0.0,0.0,0.0,0.0,0.0,0.0,0.0,0.0,0.0,0.0,0.0,0.0,0.0,0.0,0.0,0.0,0.0,0.0,0.0,0.0,0.0,0.0,0.0,0.0,0.0,0.0,0.0,0.0,0.0,0.0,0.0,0.0,0.0,0.0,0.0,0.0,0.0174,0.1739,0.2574,0.2862,0.2861,0.2692,0.2519,0.0497,0.0,0.0,0.0,0.0,0.0,0.0,0.0,0.0,0.0,0.0,0.0,0.0,0.0,0.0,0.0,0.0,0.0,0.0,0.0,0.0,0.0,0.0,0.0,0.0,0.2017,0.243,0.1582,0.2279,0.2815,0.2868,0.2874,0.2874,0.2874,0.2885,0.2891,0.2891,0.2919,0.2935,0.2935,0.2886,0.2849,0.2829,0.286,0.2867,0.2848,0.2966,0.264,0.2063,0.1887,0.1132,0.0,0.0,0.0,0.0,0.0,0.0,0.0,0.0,0.0,0.0,0.0,0.0,0.0,0.0,0.215,0.235,0.0,0.0,0.0,0.0,0.0,0.0,0.0,0.0,0.0,0.0,0.0,0.0,0.0,0.0,0.0,0.0,0.0,0.0,0.0,0.0,0.0,0.0,0.0,0.0,0.0,0.0,0.0,0.0,0.0,0.0,0.0,0.0,0.0,0.0,0.0,0.0,0.0,0.0,0.0,0.0,0.0,0.0,0.0175,0.1047,0.207,0.2882,0.2882,0.2713,0.2712,0.2536,0.0,0.0,0.0,0.0,0.0,0.0,0.0,0.0,0.0,0.0,0.0,0.0,0.0,0.0,0.0,0.0,0.0,0.0,0.0,0.0,0.0,0.0,0.0,0.0,0.2543,0.2607,0.2863,0.2874,0.2874,0.2874,0.2876,0.2879,0.2879,0.2904,0.2921,0.2921,0.2949,0.2966,0.2966,0.0,0.0,0.0,0.0,0.2771,0.2699,0.2626,0.2871,0.3062,0.0957,0.0,0.0,0.0,0.0,0.0,0.0,0.0,0.0,0.0,0.0,0.0,0.0,0.0,0.0,0.0,0.0589,0.1378,0.0,0.0,0.0,0.0,0.0,0.0,0.0,0.0,0.0,0.0,0.0,0.0,0.0,0.0,0.0,0.0,0.0,0.0,0.0,0.0,0.0,0.0,0.0,0.0,0.0,0.0,0.0,0.0,0.0,0.0,0.0,0.0,0.0,0.0,0.0,0.0,0.0,0.0,0.0,0.0,0.0,0.0,0.0178,0.1071,0.1958,0.2838,0.2838,0.2838,0.2655,0.1912,0.1382,0.0863,-0.0173,0.0,0.0,0.0,0.0,0.0,0.0,0.0,0.0,0.0,0.0,0.0,0.0,0.0,0.0,0.0,0.0,0.0,0.0,0.0,0.0,0.241,0.2105,0.1962,0.2871,0.2874,0.2874,0.2874,0.2894,0.2909,0.2911,0.2936,0.2953,0.2953,0.2981,0.2998,0.2998,0.2906,0.2857,0.2864,0.2527,0.2177,0.1455,0.0954,0.1367,0.3126,0.0,0.0,0.0,0.0,0.0,0.0,0.0,0.0,0.0,0.0,0.0,0.0,0.0,0.0,0.0,0.0,0.0196,0.02,0.0,0.0,0.0,0.0,0.0,0.0,0.0,0.0,0.0,0.0,0.0,0.0,0.0,0.0,0.0,0.0,0.0,0.0,0.0,0.0,0.0,0.0,0.0,0.0,0.0,0.0,0.0,0.0,0.0,0.0,0.0,0.0,0.0,0.0,0.0,0.0,0.0,0.0,0.0,0.0,0.1077,0.1436,0.1436,0.1436,0.1976,0.2874,0.2874,0.2874,0.269,0.1774,0.106,0.053,0.0177,-0.0526,-0.1902,0.0,0.0,0.0,0.0,0.0,0.0,0.0,0.0,0.0,0.0,0.0,0.0,0.0,0.0,-0.1509,0.0,0.0,0.0851,0.2239,0.1915,0.1763,0.2688,0.2515,0.2335,0.2874,0.2525,0.2352,0.2897,0.2923,0.2941,0.2941,0.2981,0.3007,0.3006,0.2979,0.2943,0.2898,0.2784,0.2427,0.1839,0.0577,0.0591,0.1582,0.0593,0.0,0.0,0.0,0.0,0.0,0.0,0.0,0.0,0.0,0.0,0.0,0.0,0.0,0.0,0.0,0.0,0.0,0.0,0.0,0.0,0.0,0.0,0.0,0.0,0.0,0.0,0.0,0.0,0.0,0.0,0.0,0.0,0.0,0.0,0.0,0.0,0.0,0.0,0.0,0.0,0.0,0.0,0.0,0.0,0.0,0.0,0.0,0.0,0.0,0.0,0.0,0.0,0.0,0.0,0.0,0.0,0.018,0.2156,0.2874,0.2874,0.1976,0.2156,0.2874,0.2874,0.2874,0.2694,0.1795,0.0718,0.0,0.0,0.0718,0.1068,-0.1711,-0.3594,0.0,0.0,0.0,0.0,0.0,0.0,0.0,0.0,0.0,-0.2207,-0.2702,-0.1525,-0.0509,-0.1179,0.0336,0.1693,0.1894,0.1382,0.1395,0.2147,0.1795,0.1795,0.2694,0.1979,0.1621,0.2342,0.255,0.2753,0.257,0.2991,0.3025,0.3025,0.2878,0.2864,0.2966,0.308,0.2711,0.188,0.0583,0.0,0.0,0.0,0.0,0.0,0.0,0.0,0.0,0.0,0.0,0.0,0.0,0.0,0.0,0.0,0.0,0.0,0.0,0.0,0.0,0.0,0.0,0.0,0.0,0.0,0.0,0.0,0.0,0.0,0.0,0.0,0.0,0.0,0.0,0.0,0.0,0.0,0.0,0.0,0.0,0.0,0.0,0.0,0.0,0.0,0.0,0.0,0.0,0.0,0.0,0.0,0.0,0.0,0.0,0.0,0.0,0.0,0.0,0.0,0.018,0.2156,0.2874,0.2874,0.2694,0.2874,0.2874,0.2874,0.2874,0.2694,0.1795,0.0718,0.0,0.0,0.1257,0.268,0.2264,0.0,-0.2752,-0.3449,-0.3202,-0.2381,-0.0649,-0.1489,-0.1842,0.0,0.0,-0.053,0.1545,0.1573,0.1426,0.2136,0.2492,0.2138,0.0536,0.0179,0.0179,0.0359,0.0898,0.1795,0.2694,0.1992,0.1093,0.0364,0.1111,0.1685,0.1685,0.248,0.3088,0.3088,0.2127,0.2133,0.3118,0.2938,0.1968,0.0198,0.0,0.0,0.0,0.0,0.0,0.0,0.0,0.0,0.0,0.0,0.0,0.0,0.0,0.0,0.0,0.0,0.0,0.0,0.0,0.0,0.0,0.0,0.0,0.0,0.0,0.0,0.0,0.0,0.0,0.0,0.0,0.0,0.0,0.0,0.0,0.0,0.0,0.0,0.0,0.0,0.0,0.0,0.0,0.0,0.0,0.0,0.0,0.0,0.0,0.0,0.0,0.0,0.0,0.0,0.0,0.0,0.0,0.0,0.0,0.0,0.018,0.2156,0.2874,0.2874,0.2874,0.2874,0.287,0.2834,0.2822,0.0,0.0,0.1234,0.0177,0.1252,0.2315,0.2815,0.2961,0.1892,0.0,-0.2312,-0.2975,0.0,0.0,0.1027,0.0872,0.2434,0.1943,0.161,0.2648,0.2491,0.1976,0.1257,0.1238,0.0879,0.0,0.0,0.0,0.0,0.0359,0.072,0.1087,0.0895,0.0355,0.0,0.0368,0.056,0.055,0.0948,0.1742,0.2904,0.2543,0.2169,0.1386,0.1194,0.08,0.0,0.0,0.0,0.0,0.0,0.0,0.0,0.0,0.0,0.0,0.0,0.0,0.0,0.0,0.0,0.0,0.0,0.0,0.0,0.0,0.0,0.0,0.0,0.0,0.0,0.0,0.0,0.0,0.0,0.0,0.0,0.0,0.0,0.0,0.0,0.0,0.0,0.0,0.0,0.0,0.0,0.0,0.0,0.0,0.0,0.0,0.0,0.0,0.0,0.0,0.0,0.0,0.0,0.0,0.0,0.0,0.0,0.0,0.0,0.0,0.0,0.018,0.1616,0.2335,0.2515,0.2874,0.2868,0.2855,0.2801,0.2778,0.0,0.0,0.19,0.1041,0.2462,0.2975,0.294,0.292,0.2701,0.1824,-0.0996,0.0,0.0,0.206,0.28,0.2853,0.287,0.2874,0.2874,0.2874,0.2515,0.1616,0.018,0.0,0.0,0.0,0.0,0.0,0.0,0.0,0.0,0.0,0.0,0.0,0.0,0.0,0.0,0.0,0.0,0.0585,0.1951,0.218,0.16,0.0,0.0,0.0,0.0,0.0,0.0,0.0,0.0,0.0,0.0,0.0,0.0,0.0,0.0,0.0,0.0,0.0,0.0,0.0,0.0,0.0,0.0,0.0,0.0,0.0,0.0,0.0,0.0,0.0,0.0,0.0,0.0,0.0,0.0,0.0,0.0,0.0,0.0,0.0,0.0,0.0,0.0,0.0,0.0,0.0,0.0,0.0,0.0,0.0,0.0,0.0,0.0,0.0,0.0,0.0,0.0,0.0,0.0,0.0,0.0,0.0,0.0,0.0,0.0,0.0,0.0,0.0718,0.1616,0.2515,0.2856,0.2826,0.2795,0.0,0.0,0.0,0.2887,0.2906,0.2878,0.2888,0.0,0.2836,0.2283,0.0,0.0,0.0,0.2473,0.258,0.2784,0.2801,0.286,0.2874,0.2874,0.2874,0.1436,0.0,0.0,0.0,0.0,0.0,0.0,0.0,0.0,0.0,0.0,0.0,0.0,0.0,0.0,0.0,0.0,0.0,0.0,0.0,0.0,0.0,0.0,0.0,0.0,0.0,0.0,0.0,0.0,0.0,0.0,0.0,0.0,0.0,0.0,0.0,0.0,0.0,0.0,0.0,0.0,0.0,0.0,0.0,0.0,0.0,0.0,0.0,0.0,0.0,0.0,0.0,0.0,0.0,0.0,0.0,0.0,0.0,0.0,0.0,0.0,0.0,0.0,0.0,0.0,0.0,0.0,0.0,0.0,0.0,0.0,0.0,0.0,0.0,0.0,0.0,0.0,0.0,0.0,0.0,0.0,0.0,0.0,0.0,0.0,0.0,0.0,0.0,0.0,0.018,0.0717,0.2122,0.2795,0.2757,0.0,0.0,0.0,0.0,0.0,0.0,0.246,0.0,0.0,0.2382,0.0,0.0,0.0,0.0,0.2733,0.2773,0.1934,0.1249,0.2533,0.2889,0.2515,0.1257,0.0536,0.0,0.0,0.0,0.0,0.0,0.0,0.0,0.0,0.0,0.0,0.0,0.0,0.0,0.0,0.0,0.0,0.0,0.0,0.0,0.0,0.0,0.0,0.0,0.0,0.0,0.0,0.0,0.0,0.0,0.0,0.0,0.0,0.0,0.0,0.0,0.0,0.0,0.0,0.0,0.0,0.0,0.0,0.0,0.0,0.0,0.0,0.0,0.0,0.0,0.0,0.0,0.0,0.0,0.0,0.0,0.0,0.0,0.0,0.0,0.0,0.0,0.0,0.0,0.0,0.0,0.0,0.0,0.0,0.0,0.0,0.0,0.0,0.0,0.0,0.0,0.0,0.0,0.0,0.0,0.0,0.0,0.0,0.0,0.0,0.0,0.0,0.0,0.0,0.0,0.0177,0.2081,0.2733,0.0,0.0,0.0,0.0,0.0,0.0,0.0,0.0,0.0,0.0,0.0,0.0,0.0,0.0,0.2032,0.2963,0.2985,0.1955,0.1259,0.1812,0.1805,0.1436,0.018,0.0,0.0,0.0,0.0,0.0,0.0,0.0,0.0,0.0,0.0,0.0,0.0,0.0,0.0,0.0,0.0,0.0,0.0,0.0,0.0,0.0,0.0,0.0,0.0,0.0,0.0,0.0,0.0,0.0,0.0,0.0,0.0,0.0,0.0,0.0,0.0,0.0,0.0,0.0,0.0,0.0,0.0,0.0,0.0,0.0,0.0,0.0,0.0,0.0,0.0,0.0,0.0,0.0,0.0,0.0,0.0,0.0,0.0,0.0,0.0,0.0,0.0,0.0,0.0,0.0,0.0,0.0,0.0,0.0,0.0,0.0,0.0,0.0,0.0,0.0,0.0,0.0,0.0,0.0,0.0,0.0,0.0,0.0,0.0,0.0,0.0,0.0,0.0,0.0,0.0,0.0173,0.1864,0.2672,0.2634,0.2542,0.0,0.0,0.0,0.0,0.0,0.0,0.0,0.0,0.0,0.0,0.0488,0.24,0.2959,0.2804,0.2864,0.2697,0.2335,0.0359,0.0,0.0,0.0,0.0,0.0,0.0,0.0,0.0,0.0,0.0,0.0,0.0,0.0,0.0,0.0,0.0,0.0,0.0,0.0,0.0,0.0,0.0,0.0,0.0,0.0,0.0,0.0,0.0,0.0,0.0,0.0,0.0,0.0,0.0,0.0,0.0,0.0,0.0,0.0,0.0,0.0,0.0,0.0,0.0,0.0,0.0,0.0,0.0,0.0,0.0,0.0,0.0,0.0,0.0,0.0,0.0,0.0,0.0,0.0,0.0,0.0,0.0,0.0,0.0,0.0,0.0,0.0,0.0,0.0,0.0,0.0,0.0,0.0,0.0,0.0,0.0,0.0,0.0,0.0,0.0,0.0,0.0,0.0,0.0,0.0,0.0,0.0,0.0,0.0,0.0,0.0,0.0,0.0,0.0,0.0495,0.1467,0.2571,0.0,0.0,0.0,0.0,0.0,0.0,0.0,0.0,0.2409,0.0,0.0,0.2218,0.2746,0.2815,0.2531,0.1099,0.0727,0.054,0.0181,0.0,0.0,0.0,0.0,0.0,0.0,0.0,0.0,0.0,0.0,0.0,0.0,0.0,0.0,0.0,0.0,0.0,0.0,0.0,0.0,0.0,0.0,0.0,0.0,0.0,0.0,0.0,0.0,0.0,0.0,0.0,0.0,0.0,0.0,0.0,0.0,0.0,0.0,0.0,0.0,0.0,0.0,0.0,0.0,0.0,0.0,0.0,0.0,0.0,0.0,0.0,0.0,0.0,0.0,0.0,0.0,0.0,0.0,0.0,0.0,0.0,0.0,0.0,0.0,0.0,0.0,0.0,0.0,0.0,0.0,0.0,0.0,0.0,0.0,0.0,0.0,0.0,0.0,0.0,0.0,0.0,0.0,0.0,0.0,0.0,0.0,0.0,0.0,0.0,0.0,0.0,0.0,0.0,0.0,0.0,0.0798,0.2055,0.0,0.0,0.0,0.0,0.0,0.2073,0.2652,0.2832,0.265,0.2182,0.0,0.174,0.262,0.2313,0.1451,0.0182,0.0,0.0,0.0,0.0,0.0,0.0,0.0,0.0,0.0,0.0,0.0,0.0,0.0,0.0,0.0,0.0,0.0,0.0,0.0,0.0,0.0,0.0,0.0,0.0,0.0,0.0,0.0,0.0,0.0,0.0,0.0,0.0,0.0,0.0,0.0,0.0,0.0,0.0,0.0,0.0,0.0,0.0,0.0,0.0,0.0,0.0,0.0,0.0,0.0,0.0,0.0,0.0,0.0,0.0,0.0,0.0,0.0,0.0,0.0,0.0,0.0,0.0,0.0,0.0,0.0,0.0,0.0,0.0,0.0,0.0,0.0,0.0,0.0,0.0,0.0,0.0,0.0,0.0,0.0,0.0,0.0,0.0,0.0,0.0,0.0,0.0,0.0,0.0,0.0,0.0,0.0,0.0,0.0,0.0,0.0,0.0,0.0,0.0,0.0,0.0,0.0,0.0,0.0,0.0,0.1473,0.2115,0.2578,0.2761,0.2739,0.2834,0.177,0.0703,0.2141,0.1257,0.0,0.0,0.0,0.0,0.0,0.0,0.0,0.0,0.0,0.0,0.0,0.0,0.0,0.0,0.0,0.0,0.0,0.0,0.0,0.0,0.0,0.0,0.0,0.0,0.0,0.0,0.0,0.0,0.0,0.0,0.0,0.0,0.0,0.0,0.0,0.0,0.0,0.0,0.0,0.0,0.0,0.0,0.0,0.0,0.0,0.0,0.0,0.0,0.0,0.0,0.0,0.0,0.0,0.0,0.0,0.0,0.0,0.0,0.0,0.0,0.0,0.0,0.0,0.0,0.0,0.0,0.0,0.0,0.0,0.0,0.0,0.0,0.0,0.0,0.0,0.0,0.0,0.0,0.0,0.0,0.0,0.0,0.0,0.0,0.0,0.0,0.0,0.0,0.0,0.0,0.0,0.0,0.0,0.0,0.0,0.0,0.0,0.0,0.0,0.0,0.0,0.0,0.0,0.0,0.0,0.0,0.0831,0.0505,0.1409,0.1604,0.1773,0.2632,0.2667,0.2165,0.0889,0.0179,0.0,0.0,0.0,0.0,0.0,0.0,0.0,0.0,0.0,0.0,0.0,0.0,0.0,0.0,0.0,0.0,0.0,0.0,0.0,0.0,0.0,0.0,0.0,0.0,0.0,0.0,0.0,0.0,0.0,0.0,0.0,0.0,0.0,0.0,0.0,0.0,0.0,0.0,0.0,0.0,0.0,0.0,0.0,0.0,0.0,0.0,0.0,0.0,0.0,0.0,0.0,0.0,0.0,0.0,0.0,0.0,0.0,0.0,0.0,0.0,0.0,0.0,0.0,0.0,0.0,0.0,0.0,0.0,0.0,0.0,0.0,0.0,0.0,0.0,0.0,0.0,0.0,0.0,0.0,0.0,0.0,0.0,0.0,0.0,0.0,0.0,0.0,0.0,0.0,0.0,0.0,0.0,0.0,0.0,0.0,0.0,0.0,0.0,0.0,0.0,0.0,0.0,0.0,0.0,0.0,0.0,0.0326,0.0,0.0529,0.0718,0.0715,0.1225,0.1418,0.126,0.0176,0.0,0.0,0.0,0.0,0.0,0.0,0.0,0.0,0.0,0.0,0.0,0.0,0.0,0.0,0.0,0.0,0.0,0.0,0.0,0.0,0.0,0.0,0.0,0.0,0.0,0.0,0.0,0.0,0.0,0.0,0.0,0.0,0.0,0.0,0.0,0.0,0.0,0.0,0.0,0.0,0.0,0.0,0.0,0.0,0.0,0.0,0.0,0.0,0.0,0.0,0.0,0.0,0.0,0.0,0.0,0.0,0.0,0.0,0.0,0.0,0.0,0.0,0.0,0.0,0.0,0.0,0.0,0.0,0.0,0.0,0.0,0.0,0.0,0.0,0.0,0.0,0.0,0.0,0.0,0.0,0.0,0.0,0.0,0.0,0.0,0.0,0.0,0.0,0.0,0.0,0.0,0.0,0.0,0.0,0.0,0.0,0.0,0.0,0.0,0.0,0.0,0.0,0.0,0.0,0.0,0.0,0.0,0.0,0.0,0.0,0.0,0.0,0.0,0.0,0.0,0.0,0.0,0.0,0.0,0.0,0.0,0.0,0.0,0.0,0.0,0.0,0.0,0.0,0.0,0.0,0.0,0.0,0.0,0.0,0.0,0.0,0.0,0.0,0.0,0.0,0.0,0.0,0.0,0.0,0.0,0.0,0.0,0.0,0.0,0.0,0.0,0.0,0.0,0.0,0.0,0.0,0.0,0.0,0.0,0.0,0.0,0.0,0.0,0.0,0.0,0.0,0.0,0.0,0.0,0.0,0.0,0.0,0.0,0.0,0.0,0.0,0.0,0.0,0.0,0.0,0.0,0.0,0.0,0.0,0.0,0.0,0.0,0.0,0.0,0.0,0.0,0.0,0.0,0.0,0.0,0.0,0.0,0.0,0.0,0.0,0.0,0.0,0.0,0.0,0.0,0.0,0.0,0.0,0.0,0.0,0.0,0.0,0.0,0.0,0.0,0.0,0.0,0.0,0.0,0.0,0.0,0.0,0.0,0.0,0.0,0.0,0.0,0.0,0.0,0.0,0.0,0.0,0.0,0.0,0.0,0.0,0.0,0.0,0.0,0.0,0.0,0.0,0.0,0.0,0.0,0.0,0.0,0.0,0.0,0.0,0.0,0.0,0.0,0.0,0.0,0.0,0.0,0.0,0.0,0.0,0.0,0.0,0.0,0.0,0.0,0.0,0.0,0.0,0.0,0.0,0.0,0.0,0.0,0.0,0.0,0.0,0.0,0.0,0.0,0.0,0.0,0.0,0.0,0.0,0.0,0.0,0.0,0.0,0.0,0.0,0.0,0.0,0.0,0.0,0.0,0.0,0.0,0.0,0.0,0.0,0.0,0.0,0.0,0.0,0.0,0.0,0.0,0.0,0.0,0.0,0.0,0.0,0.0,0.0,0.0,0.0,0.0,0.0,0.0,0.0,0.0,0.0,0.0,0.0,0.0,0.0,0.0,0.0,0.0,0.0,0.0,0.0,0.0,0.0,0.0,0.0,0.0,0.0,0.0,0.0,0.0,0.0,0.0,0.0,0.0,0.0,0.0,0.0,0.0,0.0,0.0,0.0,0.0,0.0,0.0,0.0,0.0,0.0,0.0,0.0,0.0,0.0,0.0,0.0,0.0,0.0,0.0,0.0,0.0,0.0,0.0,0.0,0.0,0.0,0.0,0.0,0.0,0.0,0.0,0.0,0.0,0.0,0.0,0.0,0.0,0.0,0.0,0.0,0.0,0.0,0.0,0.0,0.0,0.0,0.0,0.0,0.0,0.0,0.0,0.0,0.0,0.0,0.0,0.0,0.0,0.0,0.0,0.0,0.0,0.0,0.0,0.0,0.0,0.0,0.0,0.0,0.0,0.0,0.0,0.0,0.0,0.0,0.0,0.0,0.0,0.0,0.0,0.0,0.0,0.0,0.0,0.0,0.0,0.0,0.0,0.0,0.0,0.0,0.0,0.0,0.0,0.0,0.0,0.0,0.0,0.0,0.0,0.0,0.0,0.0,0.0,0.0,0.0,0.0,0.0,0.0,0.0,0.0,0.0,0.0,0.0,0.0,0.0,0.0,0.0,0.0,0.0,0.0,0.0,0.0,0.0,0.0,0.0,0.0,0.0,0.0,0.0,0.0,0.0,0.0,0.0,0.0,0.0,0.0,0.0,0.0,0.0,0.0,0.0,0.0,0.0,0.0,0.0,0.0,0.0,0.0,0.0,0.0,0.0,0.0,0.0,0.0,0.0,0.0,0.0,0.0,0.0,0.0,0.0,0.0,0.0,0.0,0.0,0.0,0.0,0.0,0.0,0.0,0.0,0.0,0.0,0.0,0.0,0.0,0.0,0.0,0.0,0.0,0.0,0.0,0.0,0.0,0.0,0.0,0.0,0.0,0.0,0.0,0.0,0.0,0.0,0.0,0.0,0.0,0.0,0.0,0.0,0.0,0.0,0.0,0.0,0.0,0.0,0.0,0.0,0.0,0.0,0.0,0.0,0.0,0.0,0.0,0.0,0.0,0.0,0.0,0.0,0.0,0.0,0.0,0.0,0.0,0.0,0.0,0.0,0.0,0.0,0.0,0.0,0.0,0.0,0.0,0.0,0.0,0.0,0.0,0.0,0.0,0.0,0.0,0.0,0.0,0.0,0.0,0.0,0.0,0.0,0.0,0.0,0.0,0.0,0.0,0.0,0.0,0.0,0.0,0.0,0.0,0.0,0.0,0.0,0.0,0.0,0.0,0.0,0.0,0.0,0.0,0.0,0.0,0.0,0.0,0.0,0.0,0.0,0.0,0.0,0.0,0.0,0.0,0.0,0.0,0.0,0.0,0.0,0.0,0.0,0.0,0.0,0.0,0.0,0.0,0.0,0.0,0.0,0.0,0.0,0.0,0.0,0.0,0.0,0.0,0.0,0.0,0.0,0.0,0.0,0.0,0.0,0.0,0.0,0.0,0.0,0.0,0.0,0.0,0.0,0.0,0.0,0.0,0.0,0.0,0.0,0.0,0.0,0.0,0.0,0.0,0.0,0.0,0.0,0.0,0.0,0.0,0.0,0.0,0.0,0.0,0.0,0.0,0.0,0.0,0.0,0.0,0.0,0.0,0.0,0.0,0.0,0.0,0.0,0.0,0.0,0.0,0.0,0.0,0.0,0.0,0.0,0.0,0.0,0.0,0.0,0.0,0.0,0.0,0.0,0.0,0.0,0.0,0.0,0.0,0.0,0.0,0.0,0.0,0.0,0.0,0.0,0.0,0.0,0.0,0.0,0.0,0.0,0.0,0.0,0.0,0.0,0.0,0.0,0.0,0.0,0.0,0.0,0.0,0.0,0.0,0.0,0.0,0.0,0.0,0.0,0.0,0.0,0.0,0.0,0.0,0.0,0.0,0.0,0.0,0.0,0.0,0.0,0.0,0.0,0.0,0.0,0.0,0.0,0.0,0.0,0.0,0.0,0.0,0.0,0.0,0.0,0.0,0.0,0.0,0.0,0.0,0.0,0.0,0.0,0.0,0.0,0.0,0.0,0.0,0.0,0.0,0.0,0.0,0.0,0.0,0.0,0.0,0.0,0.0,0.0,0.0,0.0,0.0,0.0,0.0,0.0,0.0,0.0,0.0,0.0,0.0,0.0,0.0,0.0,0.0,0.0,0.0,0.0,0.0,0.0,0.0,0.0,0.0,0.0,0.0,0.0,0.0,0.0,0.0,0.0,0.0,0.0,0.0,0.0,0.0,0.0,0.0,0.0,0.0,0.0,0.0,0.0,0.0,0.0,0.0,0.0,0.0,0.0,0.0,0.0,0.0,0.0,0.0,0.0,0.0,0.0,0.0,0.0,0.0,0.0,0.0,0.0,0.0,0.0,0.0,0.0,0.0,0.0,0.0,0.0,0.0,0.0,0.0,0.0,0.0,0.0,0.0,0.0,0.0,0.0,0.0,0.0,0.0,0.0,0.0,0.0,0.0,0.0,0.0,0.0,0.0,0.0,0.0,0.0,0.0,0.0,0.0,0.0,0.0,0.0,0.0,0.0,0.0,0.0,0.0,0.0,0.0,0.0,0.0,0.0,0.0,0.0,0.0,0.0,0.0,0.0,0.0,0.0,0.0,0.0,0.0,0.0,0.0,0.0,0.0,0.0,0.0,0.0,0.0,0.0,0.0,0.0,0.0,0.0,0.0,0.0,0.0,0.0,0.0,0.0,0.0,0.0,0.0,0.0,0.0,0.0,0.0,0.0,0.0,0.0,0.0,0.0,0.0,0.0,0.0,0.0,0.0,0.0,0.0,0.0,0.0,0.0,0.0,0.0,0.0,0.0,0.0,0.0,0.0,0.0,0.0,0.0,0.0,0.0,0.0,0.0,0.0,0.0,0.0,0.0,0.0,0.0,0.0,0.0,0.0,0.0,0.0,0.0,0.0,0.0,0.0,0.0,0.0,0.0,0.0,0.0,0.0,0.0,0.0,0.0,0.0,0.0,0.0,0.0,0.0,0.0,0.0,0.0,0.0,0.0,0.0,0.0,0.0,0.0,0.0,0.0,0.0,0.0,0.0,0.0,0.0,0.0,0.0,0.0,0.0,0.0,0.0,0.0,0.0,0.0,0.0,0.0,0.0,0.0,0.0,0.0,0.0,0.0,0.0,0.0,0.0,0.0,0.0,0.0,0.0,0.0,0.0,0.0,0.0,0.0,0.0,0.0,0.0,0.0,0.0,0.0,0.0,0.0,0.0,0.0,0.0,0.0,0.0,0.0,0.0,0.0,0.0,0.0,0.0,0.0,0.0,0.0,0.0,0.0,0.0,0.0,0.0,0.0,0.0,0.0,0.0,0.0,0.0,0.0,0.0,0.0,0.0,0.0,0.0,0.0,0.0,0.0,0.0,0.0,0.0,0.0,0.0,0.0,0.0,0.0,0.0,0.0,0.0,0.0,0.0,0.0,0.0,0.0,0.0,0.0,0.0,0.0,0.0,0.0,0.0,0.0,0.0,0.0,0.0,0.0,0.0,0.0,0.0,0.0,0.0,0.0,0.0,0.0,0.0,0.0,0.0,0.0,0.0,0.0,0.0,0.0,0.0,0.0,0.0,0.0,0.0,0.0,0.0,0.0,0.0,0.0,0.0,0.0,0.0,0.0,0.0,0.0,0.0,0.0,0.0,0.0,0.0,0.0,0.0,0.0,0.0,0.0,0.0,0.0,0.0,0.0,0.0,0.0,0.0,0.0,0.0,0.0,0.0,0.0,0.0,0.0,0.0,0.0,0.0,0.0,0.0,0.0,0.0,0.0,0.0,0.0,0.0,0.0,0.0,0.0,0.0,0.0,0.0,0.0,0.0,0.0,0.0,0.0,0.0,0.0,0.0,0.0,0.0,0.0,0.0,0.0,0.0,0.0,0.0,0.0,0.0,0.0,0.0,0.0,0.0,0.0,0.0,0.0,0.0,0.0,0.0,0.0,0.0,0.0,0.0,0.0,0.0,0.0,0.0,0.0,0.0,0.0,0.0,0.0,0.0,0.0,0.0,0.0,0.0,0.0,0.0,0.0,0.0,0.0,0.0,0.0,0.0,0.0,0.0,0.0,0.0,0.0,0.0,0.0,0.0,0.0,0.0,0.0,0.0,0.0,0.0,0.0,0.0,0.0,0.0,0.0,0.0,0.0,0.0,0.0,0.0,0.0,0.0,0.0,0.0,0.0,0.0,0.0,0.0,0.0,0.0,0.0,0.0,0.0,0.0,0.0,0.0,0.0,0.0,0.0,0.0,0.0,0.0,0.0,0.0,0.0,0.0,0.0,0.0,0.0,0.0,0.0,0.0,0.0,0.0,0.0,0.0,0.0,0.0,0.0,0.0,0.0,0.0,0.0,0.0,0.0,0.0,0.0,0.0,0.0,0.0,0.0,0.0,0.0,0.0,0.0,0.0,0.0,0.0,0.0,0.0,0.0,0.0,0.0,0.0,0.0,0.0,0.0,0.0,0.0,0.0,0.0,0.0,0.0,0.0,0.0,0.0,0.0,0.0,0.0,0.0,0.0,0.0,0.0,0.0,0.0,0.0,0.0,0.0,0.0,0.0,0.0,0.0,0.0,0.0,0.0,0.0,0.0,0.0,0.0,0.0,0.0,0.0,0.0,0.0,0.0,0.0,0.0,0.0,0.0,0.0,0.0,0.0,0.0,0.0,0.0,0.0,0.0,0.0,0.0,0.0,0.0,0.0,0.0,0.0,0.0,0.0,0.0,0.0,0.0,0.0,0.0,0.0,0.0,0.0,0.0,0.0,0.0,0.0,0.0,0.0,0.0,0.0,0.0,0.0,0.0,0.0,0.0,0.0,0.0,0.0,0.0,0.0,0.0,0.0,0.0,0.0,0.0,0.0,0.0,0.0,0.0,0.0,0.0,0.0,0.0,0.0,0.0,0.0,0.0,0.0,0.0,0.0,0.0,0.0,0.0,0.0,0.0,0.0,0.0,0.0,0.0,0.0,0.0,0.0,0.0,0.0,0.0,0.0,0.0,0.0,0.0,0.0,0.0,0.0,0.0,0.0,0.0,0.0,0.0,0.0,0.0,0.0,0.0,0.0,0.0,0.0,0.0,0.0,0.0,0.0,0.0,0.0,0.0,0.0,0.0,0.0,0.0,0.0,0.0,0.0,0.0,0.0,0.0,0.0,0.0,0.0,0.0,0.0,0.0,0.0,0.0,0.0,0.0,0.0,0.0,0.0,0.0,0.0,0.0,0.0,0.0,0.0,0.0,0.0,0.0,0.0,0.0,0.0,0.0,0.0,0.0,0.0,0.0,0.0,0.0,0.0,0.0,0.0,0.0,0.0,0.0,0.0,0.0,0.0,0.0,0.0,0.0,0.0,0.0,0.0,0.0,0.0,0.0,0.0,0.0,0.0,0.0,0.0,0.0,0.0,0.0,0.0,0.0,0.0,0.0,0.0,0.0,0.0,0.0,0.0,0.0,0.0,0.0,0.0,0.0,0.0,0.0,0.0,0.0,0.0,0.0,0.0,0.0,0.0,0.0,0.0,0.0,0.0,0.0,0.0,0.0,0.0,0.0,0.0,0.0,0.0,0.0,0.0,0.0,0.0,0.0,0.0,0.0,0.0,0.0,0.0,0.0,0.0,0.0,0.0,0.0,0.0,0.0,0.0,0.0,0.0,0.0,0.0,0.0,0.0,0.0,0.0,0.0,0.0,0.0,0.0,0.0,0.0,0.0,0.0,0.0,0.0,0.0,0.0,0.0,0.0,0.0,0.0,0.0,0.0,0.0,0.0,0.0,0.0,0.0,0.0,0.0,0.0,0.0,0.0,0.0,0.0,0.0,0.0,0.0,0.0,0.0,0.0,0.0,0.0,0.0,0.0,0.0,0.0,0.0,0.0,0.0,0.0,0.0,0.0,0.0,0.0,0.0,0.0,0.0,0.0,0.0,0.0,0.0,0.0,0.0,0.0,0.0,0.0,0.0,0.0,0.0,0.0,0.0,0.0,0.0,0.0,0.0,0.0,0.0,0.0,0.0,0.0,0.0,0.0,0.0,0.0,0.0,0.0,0.0,0.0,0.0,0.0,0.0,0.0,0.0,0.0,0.0,0.0,0.0,0.0,0.0,0.0,0.0,0.0,0.0,0.0,0.0,0.0,0.0,0.0,0.0,0.0,0.0,0.0,0.0,0.0,0.0,0.0,0.0,0.0,0.0,0.0,0.0,0.0,0.0,0.0,0.0,0.0,0.0,0.0,0.0,0.0,0.0,0.0,0.0,0.0,0.0,0.0,0.0,0.0,0.0,0.0,0.0,0.0,0.0,0.0,0.0,0.0,0.0,0.0,0.0,0.0,0.0,0.0,0.0,0.0,0.0,0.0,0.0,0.0,0.0,0.0,0.0,0.0,0.0,0.0,0.0,0.0,0.0,0.0,0.0,0.0,0.0,0.0,0.0,0.0,0.0,0.0,0.0,0.0,0.0,0.0,0.0,0.0,0.0,0.0,0.0,0.0,0.0,0.0,0.0,0.0,0.0,0.0,0.0,0.0,0.0,0.0,0.0,0.0,0.0,0.0,0.0,0.0,0.0,0.0,0.0,0.0,0.0,0.0,0.0,0.0,0.0,0.0,0.0,0.0,0.0,0.0,0.0,0.0,0.0,0.0,0.0,0.0,0.0,0.0,0.0,0.0,0.0,0.0,0.0,0.0,0.0,0.0,0.0,0.0,0.0,0.0,0.0,0.0,0.0,0.0,0.0,0.0,0.0,0.0,0.0,0.0,0.0,0.0,0.0,0.0,0.0,0.0,0.0,0.0,0.0,0.0,0.0,0.0,0.0,0.0,0.0,0.0,0.0,0.0,0.0,0.0,0.0,0.0,0.0,0.0,0.0,0.0,0.0,0.0,0.0,0.0,0.0,0.0,0.0,0.0,0.0,0.0,0.0,0.0,0.0,0.0,0.0,0.0,0.0,0.0,0.0,0.0,0.0,0.0,0.0,0.0,0.0,0.0,0.0,0.0,0.0,0.0,0.0,0.0,0.0,0.0,0.0,0.0,0.0,0.0,0.0,0.0,0.0,0.0,0.0,0.0,0.0,0.0,0.0,0.0,0.0,0.0,0.0,0.0,0.0,0.0,0.0,0.0,0.0,0.0,0.0,0.0,0.0,0.0,0.0,0.0,0.0,0.0,0.0,0.0,0.0,0.0,0.0,0.0,0.0,0.0,0.0,0.0,0.0,0.0,0.0,0.0,0.0,0.0,0.0,0.0,0.0,0.0,0.0,0.0,0.0,0.0,0.0,0.0,0.0,0.0,0.0,0.0,0.0,0.0,0.0,0.0,0.0,0.0,0.0,0.0,0.0,0.0,0.0,0.0,0.0,0.0,0.0,0.0,0.0,0.0,0.0,0.0,0.0,0.0,0.0,0.0,0.0,0.0,0.0,0.0,0.0,0.0,0.0,0.0,0.0,0.0,0.0,0.0,0.0,0.0,0.0,0.0,0.0,0.0,0.0,0.0,0.0,0.0,0.0,0.0,0.0,0.0,0.0,0.0,0.0,0.0,0.0,0.0,0.0,0.0,0.0,0.0,0.0,0.0,0.0,0.0,0.0,0.0,0.0,0.0,0.0,0.0,0.0,0.0,0.0,0.0,0.0,0.0,0.0,0.0,0.0,0.0,0.0,0.0,0.0,0.0,0.0,0.0,0.0,0.0,0.0,0.0,0.0,0.0,0.0,0.0,0.0,0.0,0.0,0.0,0.0,0.0,0.0,0.0,0.0,0.0,0.0,0.0,0.0,0.0,0.0,0.0,0.0,0.0,0.0,0.0,0.0,0.0,0.0,0.0,0.0,0.0,0.0,0.0,0.0,0.0,0.0,0.0,0.0,0.0,0.0,0.0,0.0,0.0,0.0,0.0,0.0,0.0,0.0,0.0,0.0,0.0,0.0,0.0,0.0,0.0,0.0,0.0,0.0,0.0,0.0,0.0,0.0,0.0,0.0,0.0,0.0,0.0,0.0,0.0,0.0,0.0,0.0,0.0,0.0,0.0,0.0,0.0,0.0,0.0,0.0,0.0,0.0,0.0,0.0,0.0,0.0,0.0,0.0,0.0,0.0,0.0,0.0,0.0,0.0,0.0,0.0,0.0,0.0,0.0,0.0,0.0,0.0,0.0,0.0,0.0,0.0,0.0,0.0,0.0,0.0,0.0,0.0,0.0,0.0,0.0,0.0,0.0,0.0,0.0,0.0,0.0,0.0,0.0,0.0,0.0,0.0,0.0,0.0,0.0,0.0,0.0,0.0,0.0,0.0,0.0,0.0,0.0,0.0,0.0,0.0,0.0,0.0,0.0,0.0,0.0,0.0,0.0,0.0,0.0,0.0,0.0,0.0,0.0,0.0,0.0,0.0,0.0,0.0,0.0,0.0,0.0,0.0,0.0,0.0,0.0,0.0,0.0,0.0,0.0,0.0,0.0,0.0,0.0,0.0,0.0,0.0,0.0,0.0,0.0,0.0,0.0,0.0,0.0,0.0,0.0,0.0,0.0,0.0,0.0,0.0,0.0,0.0,0.0,0.0,0.0,0.0,0.0,0.0,0.0,0.0,0.0,0.0,0.0,0.0,0.0,0.0,0.0,0.0,0.0,0.0,0.0,0.0,0.0,0.0,0.0,0.0,0.0,0.0,0.0,0.0,0.0,0.0,0.0,0.0,0.0,0.0,0.0,0.0,0.0,0.0,0.0,0.0,0.0,0.0,0.0,0.0,0.0,0.0,0.0,0.0,0.0,0.0,0.0,0.0,0.0,0.0,0.0,0.0,0.0,0.0,0.0,0.0,0.0,0.0,0.0,0.0,0.0,0.0,0.0,0.0,0.0,0.0,0.0,0.0,0.0,0.0,0.0,0.0,0.0,0.0,0.0,0.0,0.0,0.0,0.0,0.0,0.0,0.0,0.0,0.0,0.0,0.0,0.0,0.0,0.0,0.0,0.0,0.0,0.0,0.0,0.0,0.0,0.0,0.0,0.0,0.0,0.0,0.0,0.0,0.0,0.0,0.0,0.0,0.0,0.0,0.0,0.0,0.0,0.0,0.0,0.0,0.0,0.0,0.0,0.0,0.0,0.0,0.0,0.0,0.0,0.0,0.0,0.0,0.0,0.0,0.0,0.0,0.0,0.0,0.0,0.0,0.0,0.0,0.0,0.0,0.0,0.0,0.0,0.0,0.0,0.0,0.0,0.0,0.0,0.0,0.0,0.0,0.0,0.0,0.0,0.0,0.0,0.0,0.0,0.0,0.0,0.0,0.0,0.0,0.0,0.0,0.0,0.0,0.0,0.0,0.0,0.0,0.0,0.0,0.0,0.0,0.0,0.0,0.0,0.0,0.0,0.0,0.0,0.0,0.0,0.0,0.0,0.0,0.0,0.0,0.0,0.0,0.0,0.0,0.0,0.0,0.0,0.0,0.0,0.0,0.0,0.0,0.0,0.0,0.0,0.0,0.0,0.0,0.0,0.0,0.0,0.0,0.0,0.0,0.0,0.0,0.0,0.0,0.0,0.0,0.0,0.0,0.0,0.0,0.0,0.0,0.0,0.0,0.0,0.0,0.0,0.0,0.0,0.0,0.0,0.0,0.0,0.0,0.0,0.0,0.0,0.0,0.0,0.0,0.0,0.0,0.0,0.0,0.0,0.0,0.0,0.0,0.0,0.0,0.0,0.0,0.0,0.0,0.0,0.0,0.0,0.0,0.0,0.0,0.0,0.0,0.0,0.0,0.0,0.0,0.0,0.0,0.0,0.0,0.0,0.0,0.0,0.0,0.0,0.0,0.0,0.0,0.0,0.0,0.0,0.0,0.0,0.0,0.0,0.0,0.0,0.0,0.0,0.0,0.0,0.0,0.0,0.0,0.0,0.0,0.0,0.0,0.0,0.0,0.0,0.0,0.0,0.0,0.0,0.0,0.0,0.0,0.0,0.0,0.0,0.0,0.0,0.0,0.0,0.0,0.0,0.0,0.0,0.0,0.0,0.0,0.0,0.0,0.0,0.0,0.0,0.0,0.0,0.0,0.0,0.0,0.0,0.0,0.0,0.0,0.0,0.0,0.0,0.0,0.0,0.0,0.0,0.0,0.0,0.0,0.0,0.0,0.0,0.0,0.0,0.0,0.0,0.0,0.0,0.0,0.0,0.0,0.0,0.0,0.0,0.0,0.0,0.0,0.0,0.0,0.0,0.0,0.0,0.0,0.0,0.0,0.0,0.0,0.0,0.0,0.0,0.0,0.0,0.0,0.0,0.0,0.0,0.0,0.0,0.0,0.0,0.0,0.0,0.0,0.0,0.0,0.0,0.0,0.0,0.0,0.0,0.0,0.0,0.0,0.0,0.0,0.0,0.0,0.0,0.0,0.0,0.0,0.0,0.0,0.0,0.0,0.0,0.0,0.0,0.0,0.0,0.0,0.0,0.0,0.0,0.0,0.0,0.0,0.0,0.0,0.0,0.0,0.0,0.0,0.0,0.0,0.0,0.0,0.0,0.0,0.0,0.0,0.0,0.0,0.0,0.0,0.0,0.0,0.0,0.0,0.0,0.0,0.0,0.0,0.0,0.0,0.0,0.0,0.0,0.0,0.0,0.0,0.0,0.0,0.0,0.0,0.0,0.0,0.0,0.0,0.0,0.0,0.0,0.0,0.0,0.0,0.0,0.0,0.0,0.0,0.0,0.0,0.0,0.0,0.0,0.0,0.0,0.0,0.0,0.0,0.0,0.0,0.0,0.0,0.0,0.0,0.0,0.0,0.0,0.0,0.0,0.0,0.0,0.0,0.0,0.0,0.0,0.0,0.0,0.0,0.0,0.0,0.0,0.0,0.0,0.0,0.0,0.0,0.0,0.0,0.0,0.0,0.0,0.0,0.0,0.0,0.0,0.0,0.0,0.0,0.0,0.0,0.0,0.0,0.0,0.0,0.0,0.0,0.0,0.0,0.0,0.0,0.0,0.0,0.0,0.0,0.0,0.0,0.0,0.0,0.0,0.0,0.0,0.0,0.0,0.0,0.0,0.0,0.0,0.0,0.0,0.0,0.0,0.0,0.0,0.0,0.0,0.0,0.0,0.0,0.0,0.0,0.0,0.0,0.0,0.0,0.0,0.0,0.0,0.0,0.0,0.0,0.0,0.0,0.0,0.0,0.0,0.0,0.0,0.0,0.0,0.0,0.0,0.0,0.0,0.0,0.0,0.0,0.0,0.0,0.0,0.0,0.0,0.0,0.0,0.0,0.0,0.0,0.0,0.0,0.0,0.0,0.0,0.0,0.0,0.0,0.0,0.0,0.0,0.0,0.0,0.0,0.0,0.0,0.0,0.0,0.0,0.0,0.0,0.0,0.0,0.0,0.0,0.0,0.0,0.0,0.0,0.0,0.0,0.0,0.0,0.0,0.0,0.0,0.0,0.0,0.0,0.0,0.0,0.0,0.0,0.0,0.0,0.0,0.0,0.0,0.0,0.0,0.0,0.0,0.0,0.0,0.0,0.0,0.0,0.0,0.0,0.0,0.0,0.0,0.0,0.0,0.0,0.0,0.0,0.0,0.0,0.0,0.0,0.0,0.0,0.0,0.0,0.0,0.0,0.0,0.0,0.0,0.0,0.0,0.0,0.0,0.0,0.0,0.0,0.0,0.0,0.0,0.0,0.0,0.0,0.0,0.0,0.0,0.0,0.0,0.0,0.0,0.2862,0.1092,0.0,0.0,0.0,0.0,0.0,0.0,0.0,0.0,0.0,0.0,0.0,0.0,0.0,0.0,0.0,0.0,0.0,0.0,0.0,0.0,0.0,0.0,0.0,0.0,0.0,0.0,0.0,0.0,0.0,0.0,0.0,0.0,0.0,0.0,0.0,0.0,0.0,0.0,0.0,0.0,0.0,0.0,0.0,0.0,0.0,0.0,0.0,0.0,0.0,0.0,0.0,0.0,0.0,0.0,0.0,0.0,0.0,0.0,0.0,0.0,0.0,0.0,0.0,0.0,0.0,0.0,0.0,0.0,0.0,0.0,0.0,0.0,0.0,0.0,0.0,0.0,0.0,0.0,0.0,0.0,0.0,0.0,0.0,0.0,0.0,0.0,0.0,0.0,0.0,0.0,0.0,0.0,0.0,0.0,0.0,0.0,0.0,0.0,0.0,0.0,0.0,0.0,0.0,0.0,0.0,0.0,0.0,0.0,0.0,0.0,0.0,0.0,0.0,0.0,0.0,0.3833,0.2111,0.1321,0.0,0.0,0.1343,0.1344,0.1202,0.1217,0.0456,0.0,0.0,0.0,0.0,0.0,0.0,0.0,0.0,0.0,0.0,0.0,0.0,0.0,0.0,0.0,0.0,0.0,0.0,0.0,0.0,0.0,0.0,0.0,0.0,0.0,0.0,0.0,0.0,0.0,0.0,0.0,0.0,0.0,0.0,0.0,0.0,0.0,0.0,0.0,0.0,0.0,0.0,0.0,0.0,0.0,0.0,0.0,0.0,0.0,0.0,0.0,0.0,0.0,0.0,0.0,0.0,0.0,0.0,0.0,0.0,0.0,0.0,0.0,0.0,0.0,0.0,0.0,0.0,0.0,0.0,0.0,0.0,0.0,0.0,0.0,0.0,0.0,0.0,0.0,0.0,0.0,0.0,0.0,0.0,0.0,0.0,0.0,0.0,0.0,0.0,0.0,0.0,0.0,0.0,0.0,0.0,0.0,0.0,0.0,0.0,0.0,0.0,0.0,0.9578,0.949,0.9422,0.9132,0.7586,0.4886,0.4739,0.4766,0.4675,0.4678,0.0,0.4765,0.1692,0.0,0.0,0.0,0.0,0.0,0.0,0.0,0.0,0.0,0.0,0.0,0.0,0.0,0.0,0.0,0.0,0.0,0.0,0.0,0.0,0.0,0.0,0.0,0.0,0.0,0.0,0.0,0.0,0.0,0.0,0.0,0.0,0.0,0.0,0.0,0.0,0.0,0.0,0.0,0.0,0.0,0.0,0.0,0.0,0.0,0.0,0.0,0.0,0.0,0.0,0.0,0.0,0.0,0.0,0.0,0.0,0.0,0.0,0.0,0.0,0.0,0.0,0.0,0.0,0.0,0.0,0.0,0.0,0.0,0.0,0.0,0.0,0.0,0.0,0.0,0.0,0.0,0.0,0.0,0.0,0.0,0.0,0.0,0.0,0.0,0.0,0.0,0.0,0.0,0.0,0.0,0.0,0.0,0.0,0.0,0.0,0.0,0.0,0.0,0.0,0.0,0.0,0.0,0.9757,0.966,0.9553,0.9436,0.9102,0.8117,0.8122,0.8168,0.8274,0.8278,0.8171,0.827,0.7022,0.0,0.0,0.0,0.3214,0.3158,0.101,0.0,0.0,0.0,0.0,0.0,0.0,0.0,0.0,0.0,0.0,0.0,0.0,0.0,0.0,0.0,0.0,0.0,0.0,0.0,0.0,0.0,0.0,0.0,0.0,0.0,0.0,0.0,0.0,0.0,0.0,0.0,0.0,0.0,0.0,0.0,0.0,0.0,0.0,0.0,0.0,0.0,0.0,0.0,0.0,0.0,0.0,0.0,0.0,0.0,0.0,0.0,0.0,0.0,0.0,0.0,0.0,0.0,0.0,0.0,0.0,0.0,0.0,0.0,0.0,0.0,0.0,0.0,0.0,0.0,0.0,0.0,0.0,0.0,0.0,0.0,0.0,0.0,0.0,0.0,0.0,0.0,0.0,0.0,0.0,0.0,0.0,0.0,0.0,0.0,0.0,0.0,0.0,0.0,0.0,0.0,0.0,0.0,0.0,0.9564,0.9563,0.9557,0.9622,0.9742,0.9904,0.9965,0.9932,0.9938,0.9976,1.0052,1.0019,0.8934,0.0,0.0,0.0,0.0,0.4461,0.335,0.3067,0.2166,0.1077,0.0,0.0,0.0,0.0164,0.0,0.0,0.0,0.0,0.0,0.0,0.0,0.0,0.0,0.0,0.0,0.0,0.0,0.0,0.0,0.0,0.0,0.0,0.0,0.0,0.0,0.0,0.0,0.0,0.0,0.0,0.0,0.0,0.0,0.0,0.0,0.0,0.0,0.0,0.0,0.0,0.0,0.0,0.0,0.0,0.0,0.0,0.0,0.0,0.0,0.0,0.0,0.0,0.0,0.0,0.0,0.0,0.0,0.0,0.0,0.0,0.0,0.0,0.0,0.0,0.0,0.0,0.0,0.0,0.0,0.0,0.0,0.0,0.0,0.0,0.0,0.0,0.0,0.0,0.0,0.0,0.0,0.0,0.0,0.0,0.0,0.0,0.0,0.0,0.0,0.8778,0.0,0.0,0.0,0.0,0.0,0.9671,0.9677,0.972,0.9835,0.9845,0.9894,1.0014,1.0019,1.0019,1.0019,0.9921,0.9832,0.0,0.0,0.0,0.0,0.0,0.9647,0.9145,0.6466,0.3372,0.037,0.0,0.0188,0.0746,0.0,0.6056,0.0357,0.0,0.0,0.0,0.9619,1.2753,0.0,0.0,0.0,0.0,0.0,0.0,0.0,0.0,0.0167,0.0,0.0,0.0,0.0,0.0,0.0,0.0,0.0,0.0,0.0,0.0,0.0,0.0,0.0,0.0,0.0,0.0,0.0,0.0,0.0,0.0,0.0,0.0,0.0,0.0,0.0,0.0,0.0,0.0,0.0,0.0,0.0,0.0,0.0,0.0,0.0,0.0,0.0,0.0,0.0,0.0,0.0,0.0,0.0,0.0,0.0,0.0,0.0,0.0,0.0,0.0,0.0,0.0,0.0,0.0,0.0,0.0,0.0,0.0,0.0,0.0,0.0,0.0,0.0,0.0,0.0,0.0,0.0,0.0,0.0,0.0,0.9433,0.9455,0.9548,0.9786,0.9791,0.984,0.996,0.997,0.9987,1.0019,1.0019,1.0019,1.0019,0.9992,1.0008,1.0079,0.0,1.0052,0.9933,0.8432,0.0,0.0,0.8824,0.8033,0.7111,0.5457,0.0,0.0,0.6484,0.7481,0.0,0.0,0.0,0.0,0.0,1.0296,0.0,0.0,1.0554,0.938,0.0,0.0,0.0,0.0,0.2011,0.0,0.0,0.0,0.0,0.0,0.0,0.0,0.0,0.0,0.0,0.0,0.0,0.0,0.0,0.0,0.0,0.0,0.0,0.0,0.0,0.0,0.0,0.0,0.0,0.0,0.0,0.0,0.0,0.0,0.0,0.0,0.0,0.0,0.0,0.0,0.0,0.0,0.0,0.0,0.0,0.0,0.0,0.0,0.0,0.0,0.0,0.0,0.0,0.0,0.0,0.0,0.0,0.0,0.0,0.0,0.0,0.0,0.0,0.0,0.0,0.0,0.0,0.0,0.0,0.0,0.0,0.0,0.0,0.0,0.0,0.0,0.8779,0.9066,0.9387,0.9603,0.9608,0.9634,0.9708,0.9708,0.9708,0.9708,0.9708,0.9864,1.0019,0.997,0.997,1.0019,0.0,0.0,1.003,0.9075,0.0,0.0,0.0,0.0,0.0,0.0,0.0,0.0,0.8377,0.0,0.0,0.9244,0.845,0.0,0.0,0.0,1.2952,1.2893,1.2386,0.0,0.0,0.0,0.0,0.7559,0.6136,0.3864,0.0,0.0,0.0,0.0,0.0,0.0,0.0,0.0,0.0,0.0,0.0,0.0,0.0,0.0,0.0,0.0,0.0,0.0,0.0,0.0,0.0,0.0,0.0,0.0,0.0,0.0,0.0,0.0,0.0,0.0,0.0,0.0,0.0,0.0,0.0,0.0,0.0,0.0,0.0,0.0,0.0,0.0,0.0,0.0,0.0,0.0,0.0,0.0,0.0,0.0,0.0,0.0,0.0,0.0,0.0,0.0,0.0,0.0,0.0,0.0,0.0,0.0,0.0,0.0,0.0,0.0,0.0,0.0,0.9156,0.8482,0.818,0.8566,0.8934,0.9246,0.9402,0.9402,0.9402,0.9402,0.9402,0.9402,0.9402,0.9563,0.9885,0.9778,0.9778,0.9885,0.0,0.0,0.0,0.0,0.0,0.0,0.0,0.0,0.0,0.0,0.0,1.2852,1.1841,1.2178,0.0,0.0,1.2117,0.0,1.3007,1.2913,1.2858,1.309,0.0,0.0,0.0,0.0,0.0,1.0812,1.0799,0.0,0.0,0.0,0.0,0.0,0.0,0.0,0.0,0.0,0.0,0.0,0.061,0.1045,0.0205,0.0,0.0,0.0,0.0,0.0,0.0,0.0,0.0,0.0,0.0,0.0,0.0,0.0,0.0,0.0,0.0,0.0,0.0,0.0,0.0,0.0,0.0,0.0,0.0,0.0,0.0,0.0,0.0,0.0,0.0,0.0,0.0,0.0,0.0,0.0,0.0,0.0,0.0,0.0,0.0,0.0,0.0,0.0,0.0,0.0,0.0,0.0,0.0,0.0,0.0,0.0,0.0,0.0,1.1031,1.0047,0.9071,0.8594,0.9521,0.9075,0.8778,0.8934,0.8934,0.8934,0.8934,0.8934,0.8934,0.8934,0.8934,0.8973,0.906,0.9041,0.9041,0.9065,0.0,0.0,0.0,0.0,0.0,0.0,0.0,0.0,0.0,0.0,0.0,1.2601,1.3079,0.0,0.0,1.4864,1.3843,1.2229,1.3872,1.3684,1.2536,0.0,1.2683,1.2278,0.0,0.0,0.0,0.0,0.0,0.0,0.0,0.0,0.0,0.0,0.0,0.0,0.0,0.0,0.0,0.0,0.4978,0.7378,0.1184,0.0,0.0,0.0,0.0,0.0,0.0,0.0,0.0,0.0,0.0,0.0,0.0,0.0,0.0,0.0,0.0,0.0,0.0,0.0,0.0,0.0,0.0,0.0,0.0,0.0,0.0,0.0,0.0,0.0,0.0,0.0,0.0,0.0,0.0,0.0,0.0,0.0,0.0,0.0,0.0,0.0,0.0,0.0,0.0,0.0,0.0,0.0,0.0,0.0,0.0,0.0,0.0,0.0,1.1754,1.0902,1.0269,0.9933,1.0025,0.9708,0.9558,0.9708,0.9708,0.9735,0.9798,0.9798,0.9824,0.9877,0.9882,1.0067,1.0291,1.0231,1.0231,1.0297,1.0708,0.0,0.0,0.0,0.0,0.0,0.0,0.0,0.0,0.0,1.3151,1.4231,1.4349,0.0,1.3749,1.5093,1.4247,1.2515,1.3649,1.3531,1.296,1.2437,1.2599,0.0,0.0,1.1839,1.1618,0.0,1.0899,1.0149,0.0,0.0,0.0,0.6557,0.0,0.0,0.0,0.3256,0.3873,0.2434,0.5133,0.7304,0.538,0.3467,0.1742,0.0195,0.0,0.0,0.0,0.0,0.0,0.0,0.0,0.0,0.0,0.0,0.0,0.0,0.0,0.0,0.0,0.0,0.0,0.0,0.0,0.0,0.0,0.0,0.0,0.0,0.0,0.0,0.0,0.0,0.0,0.0,0.0,0.0,0.0,0.0,0.0,0.0,0.0,0.0,0.0,0.0,0.0,0.0,0.0,0.0,0.0,0.0,0.0,0.0,0.0,0.0,1.2109,1.1258,1.1294,1.0972,1.0285,1.0079,1.0225,1.0588,1.0611,1.0651,0.0,0.0,1.1039,1.1086,1.093,1.093,1.1427,1.116,1.0982,1.1224,1.0959,1.0959,1.1224,0.0,0.0,0.0,0.0,0.0,0.0,0.0,0.0,1.6303,0.0,1.5282,1.4329,1.5252,1.4584,1.3228,1.3211,1.3145,1.3193,1.2232,0.0,1.2495,1.2145,1.1797,0.0,0.0,0.0,0.0,0.0,0.0,0.0,0.0,0.0,0.161,0.0,0.0,0.0,0.5582,0.5311,0.6128,0.9182,0.7263,0.4471,0.2063,0.1128,0.0566,0.0,0.0,0.0,0.0,0.0,0.0,0.0,0.0,0.0,0.0,0.0,0.0,0.0,0.0,0.0,0.0,0.0,0.0,0.0,0.0,0.0,0.0,0.0,0.0,0.0,0.0,0.0,0.0,0.0,0.0,0.0,0.0,0.0,0.0,0.0,0.0,0.0,0.0,0.0,0.0,0.0,0.0,0.0,0.0,1.2637,1.2507,1.2232,1.1848,1.1252,1.0364,1.0285,1.0429,1.0639,0.0,0.0,0.0,0.0,0.0,1.0528,0.0,1.1238,1.0859,1.019,0.9863,1.0367,0.9525,0.9146,0.9559,1.052,1.1335,1.1843,1.2204,0.0,0.0,1.2956,0.0,0.0,0.0,1.5831,0.0,1.8411,1.7997,0.0,1.7589,1.6368,1.3796,1.3038,1.2849,1.2896,0.0,1.1969,1.1654,0.0,1.1277,0.0,0.0,0.0,0.0,0.0,0.0,0.0,0.0,0.6174,0.0,0.0,0.0,0.8493,0.8129,0.0,0.0,0.0,0.0,0.0,0.7502,0.5388,0.2908,0.037,0.0,0.0,0.0,0.0,0.0,0.0,0.0,0.0,0.0,0.0,0.0,0.0,0.0,0.0,0.0,0.0,0.0,0.0,0.0,0.0,0.0,0.0,0.0,0.0,0.0,0.0,0.0,0.0,0.0,0.0,0.0,0.0,0.0,0.0,0.0,0.0,0.0,0.0,0.0,0.0,0.0,0.0,0.0,1.2304,1.2265,1.1268,1.1439,1.1721,1.1665,1.2005,1.2244,0.0,0.0,0.0,0.0,0.0,0.0,0.0,0.0,1.2916,1.2884,1.2307,0.0,1.2191,1.1535,1.1464,1.1653,1.1904,1.2068,1.2313,1.2749,1.315,0.0,1.4045,0.0,1.5794,0.0,0.0,0.0,0.0,0.0,0.0,1.7858,1.6373,1.3843,1.3831,1.3171,1.2255,0.0,1.2388,0.0,0.0,0.0,0.0,0.0,0.0,0.0,0.0,0.0,0.0,0.0,0.0,0.0,0.0,0.0,0.8615,0.0,0.0,0.0,0.0,0.0,0.0,0.0,0.7517,0.6299,0.5084,0.4011,0.2408,0.0192,0.0,0.0,0.0,0.0,0.0,0.0,0.0,0.0,0.0,0.0,0.0,0.0,0.0,0.0,0.0,0.0,0.0,0.0,0.0,0.0,0.0,0.0,0.0,0.0,0.0,0.0,0.0,0.0,0.0,0.0,0.0,0.0,0.0,0.0,0.0,0.0,0.0,0.0,0.0,0.0,0.0,1.2122,1.11,1.1684,1.254,0.0,0.0,0.0,1.3994,1.3844,0.0,0.0,0.0,1.4421,0.0,0.0,1.4428,0.0,0.0,0.0,0.0,1.301,1.2873,1.3065,1.263,1.2484,1.2791,1.3045,1.3403,0.0,0.0,1.5763,1.6565,0.0,0.0,1.7797,1.7982,1.7735,1.7319,1.7547,1.6111,1.4201,1.4541,1.3789,1.2665,1.3279,1.2791,0.0,1.2222,0.0,0.0,0.0,0.0,0.0,0.968,0.0,0.0,0.0,0.0,0.0,0.0,0.0,0.0,0.0,0.0,0.0,0.0,0.0,0.0,0.0,0.0,0.8429,0.8591,0.7345,0.4921,0.0572,0.0,0.0,0.0,0.0,0.0,0.0,0.0,0.0,0.0,0.0,0.0,0.0,0.0,0.0,0.0,0.0,0.0,0.0,0.0,0.0,0.0,0.0,0.0,0.0,0.0,0.0,0.0,0.0,0.0,0.0,0.0,0.0,0.0,0.0,0.0,0.0,0.0,1.2732,0.0,0.0,0.0,0.0,0.0,0.0,0.0,0.0,0.0,0.0,0.0,0.0,0.0,0.0,0.0,1.457,1.4719,0.0,1.5147,0.0,0.0,0.0,0.0,0.0,1.1986,1.2069,1.2063,1.247,1.2939,1.2656,1.3244,0.0,0.0,1.4929,1.6393,1.6696,1.7277,1.8134,1.8574,1.8623,1.7939,0.0,1.5776,1.5072,1.4633,0.0,0.0,1.3984,1.3581,0.0,0.0,0.0,0.0,0.0,0.0,0.0,0.0,0.0,0.0,0.0,0.0,0.0,0.0,0.0,0.8607,0.0,0.0,0.0,0.0,0.0,0.0,0.0,0.0,0.0,0.0,0.8385,0.6461,0.0,0.0,0.0,0.0,0.0,0.0,0.0,0.0,0.0,0.0,0.0,0.0,0.0,0.0,0.0,0.0,0.0,0.0,0.0,0.0,0.0,0.0,0.0,0.0,0.0,0.0,0.0,0.0,0.0,0.0,0.0,0.0,0.0,0.0,0.0,0.0,0.0,0.0,0.0,0.0,0.0,0.0,0.0,0.0,1.3539,0.0,0.0,0.0,0.0,0.0,0.0,1.4943,0.0,0.0,1.5445,1.5201,1.5371,0.0,0.0,0.0,1.4243,0.0,0.0,0.0,0.0,0.0,1.3244,1.3459,1.3452,1.3648,0.0,0.0,1.5002,0.0,0.0,0.0,0.0,0.0,1.7023,1.7044,0.0,0.0,1.5283,1.592,1.5072,0.0,1.5023,1.4626,1.352,1.4141,1.3954,1.3513,1.3598,1.3486,0.0,0.0,0.0,1.343,1.1301,0.0,0.0,0.0,0.0,0.0,0.0,0.0,0.0,0.0,0.0,0.0,0.0,0.0,0.0,0.0,0.8595,0.0,0.0,0.0,0.0,0.0,0.0,0.0,0.0,0.0,0.0,0.0,0.0,0.0,0.0,0.0,0.0,0.0,0.0,0.0,0.0,0.0,0.0,0.0,0.0,0.0,0.0,0.0,0.0,0.0,0.0,0.0,0.0,0.0,0.0,0.0,0.0,0.0,0.0,1.3539,0.0,0.0,0.0,0.0,0.0,0.0,0.0,0.0,0.0,1.4719,0.0,0.0,0.0,1.5425,0.0,1.556,1.5642,1.5723,1.5371,0.0,0.0,1.5242,0.0,0.0,0.0,0.0,0.0,0.0,1.3817,1.4021,1.3899,1.379,0.0,0.0,0.0,0.0,0.0,1.6586,0.0,0.0,1.6408,0.0,0.0,1.6755,1.592,0.0,1.6163,1.5102,1.63,1.58,1.4957,1.5534,1.5453,1.5106,1.5028,1.4976,1.4849,1.4569,1.4874,0.0,1.3032,1.2774,0.0,1.0604,0.0,0.0,0.0,0.0,0.0,0.0,0.0,0.0,0.8986,0.8786,0.8607,0.0,0.8819,0.0,0.0,0.0,0.0,0.0196,0.0,0.0,0.0,0.0,0.0,0.0,0.0,0.0,0.0,0.0,0.0,0.0,0.0,0.0,0.0,0.0,0.0,0.0,0.0,0.0,0.0,0.0,0.0,0.0,0.0,0.0,0.0,0.0,0.0,0.0,0.0,0.0,0.0,0.0,0.0,0.0,0.0,1.3688,0.0,0.0,0.0,1.4801,0.0,1.5255,1.5167,1.5594,1.5276,1.5194,1.5581,0.0,0.0,1.6198,1.5086,0.0,0.0,1.5384,1.5106,1.5662,0.0,0.0,0.0,0.0,0.0,1.4726,1.4136,1.3858,1.3844,1.4014,0.0,1.3919,1.5126,1.5649,1.571,1.6123,1.6558,1.6931,1.6639,1.6727,1.7005,1.7005,1.7087,1.7202,1.7202,1.7297,1.7419,1.7419,1.7419,1.7419,1.7433,1.7433,1.7217,1.6131,1.5915,1.5392,1.4173,0.0,0.0,0.0,0.0,1.1673,0.0,0.0,0.0,0.0,0.0,0.0,0.9955,0.9165,0.8619,0.8619,0.0,0.0,0.0,0.0,0.0,0.0,0.0195,0.0,0.0,0.0,0.0,0.0,0.0,0.0,0.0,0.0,0.0,0.0,0.0,0.0,0.0,0.0,0.0,0.0,0.0,0.0,0.0,0.0,0.0,0.0,0.0,0.0,0.0,0.0,0.0,0.0,0.0,0.0,0.0,1.4183,1.419,1.4204,0.0,0.0,1.455,0.0,0.0,0.0,0.0,1.533,1.5513,1.5628,1.5839,1.5784,1.5337,1.5466,0.0,0.0,0.0,0.0,1.6775,1.6551,1.632,1.6144,1.5988,0.0,1.535,0.0,0.0,1.4733,1.436,1.4061,1.3851,0.0,0.0,1.3919,1.5126,1.5832,1.613,1.6015,1.6239,0.0,0.0,1.6951,1.7311,1.7311,1.7331,1.7365,1.7365,1.7385,1.7419,1.7419,1.7419,1.7446,1.7555,1.7589,1.7609,1.7272,1.7305,1.7059,1.5851,1.5319,1.479,0.0,0.0,0.0,0.0,0.0,0.0,0.0,0.0,0.0,0.0,0.0,0.0,0.0,0.0,0.0,0.0,0.0,0.0,0.9154,0.3642,0.0,0.0,0.0,0.0,0.0,0.0,0.0,0.0,0.0,0.0,0.0,0.0,0.0,0.0,0.0,0.0,0.0,0.0,0.0,0.0,0.0,0.0,0.0,0.0,0.0,0.0,0.0,0.0,0.0,0.0,0.0,0.0,0.0,0.0,0.0,0.0,0.0,0.0,1.4943,0.0,0.0,1.5527,0.0,0.0,1.6103,1.6408,1.6435,1.6008,1.5778,0.0,0.0,0.0,0.0,1.7026,1.6822,1.6571,1.6313,1.6307,0.0,1.5805,0.0,0.0,1.512,1.4563,1.417,1.3946,1.4122,1.4102,1.4014,1.5153,1.5934,1.6388,1.6218,0.0,0.0,1.687,1.7127,1.7528,1.7595,1.7575,1.7521,1.7521,1.7561,1.7616,1.7616,1.7616,1.7629,1.7717,1.7738,1.7758,1.7846,1.786,1.7639,1.6969,1.6737,1.6283,1.4991,1.455,1.4557,0.0,0.0,0.0,0.0,0.0,0.0,0.0,0.0,0.0,0.0,0.0,0.0,0.0,0.9716,0.0,1.1077,0.7623,0.4569,0.2853,0.0953,0.0,0.0,0.0,0.0,0.0,0.0,0.0,0.0,0.0,0.0,0.0,0.0,0.0,0.0,0.0,0.0,0.0,0.0,0.0,0.0,0.0,0.0,0.0,0.0,0.0,0.0,0.0,0.0,0.0,0.0,0.0,0.0,0.0,0.0,0.0,0.0,1.5377,0.0,1.6232,0.0,1.6327,1.6659,1.6863,1.6958,0.0,0.0,1.5974,0.0,1.5764,0.0,1.7154,1.6727,1.6456,1.6456,1.6456,0.0,0.0,0.0,0.0,1.5622,1.4719,1.4217,1.4075,1.4095,1.4177,0.0,1.5235,1.5974,1.6551,1.6571,1.6897,1.7344,1.7161,1.7338,1.7684,1.7812,1.7792,1.7684,1.7684,1.7758,1.786,1.786,1.786,1.786,1.786,1.786,1.786,1.786,1.786,1.786,1.786,1.786,1.7632,1.6533,1.6317,1.6317,1.6317,1.543,1.529,0.0,0.0,0.0,0.0,0.0,0.0,0.0,0.0,0.0,0.0,0.0,0.0,0.9737,1.1062,1.0298,0.666,0.3431,0.1146,0.0,0.0,0.0,0.0,0.0,0.0,0.0,0.0,0.0,0.0,0.0,0.0,0.0,0.0,0.0,0.0,0.0,0.0,0.0,0.0,0.0,0.0,0.0,0.0,0.0,0.0,0.0,0.0,0.0,0.0,0.0,0.0,0.0,0.0,0.0,1.6395,1.6435,1.6327,1.6612,0.0,1.6422,1.6741,1.6829,1.6463,1.6259,0.0,0.0,0.0,0.0,1.7344,1.7283,1.7229,1.7229,1.7229,1.7161,0.0,0.0,0.0,1.5622,1.4719,1.4217,1.4075,1.4204,1.474,1.554,1.5479,0.0,1.672,1.6849,1.6965,1.7107,1.7541,1.7758,1.7826,1.7846,1.7846,1.7826,1.7826,1.7846,1.786,1.786,1.786,1.786,1.786,1.786,1.786,1.786,1.786,1.786,1.786,1.786,1.786,1.7632,1.7652,1.7652,1.7652,1.7424,1.7391,1.7717,0.0,0.0,0.0,0.0,0.0,0.0,0.0,0.0,0.0,0.0,0.0,0.0,0.953,0.9146,0.7799,0.9154,0.7153,0.0398,0.0,0.0,0.0,0.0,0.0,0.0,0.0,0.0,0.0,0.0,0.0,0.0,0.0,0.0,0.0,0.0,0.0,0.0,0.0,0.0,0.0,0.0,0.0,0.0,0.0,0.0,0.0,0.0,0.0,0.0,0.0,0.0,0.0,0.0,1.6632,0.0,1.6686,1.691,1.7012,1.6788,1.7032,1.7121,1.6904,1.6598,1.6578,1.6965,1.6693,1.6788,1.7392,1.7344,0.0,1.6958,0.0,1.7039,0.0,0.0,0.0,0.0,0.0,1.4265,1.4204,1.459,1.5038,1.5533,0.0,0.0,1.6897,1.7202,1.7372,1.7467,1.7758,1.786,1.788,1.7948,1.7989,1.7968,1.7901,1.786,1.788,1.7948,1.7989,1.8002,1.8077,1.8091,1.8091,1.8091,1.8091,1.8091,1.8091,1.8091,1.8091,1.8091,1.8091,1.8091,1.8091,1.8091,1.8002,1.7471,1.6143,0.0,0.0,0.0,0.0,0.0,0.0,0.0,0.0,0.0,0.0,0.0,0.0,0.0,0.0,0.0,0.0,0.2738,0.0394,0.0604,0.3776,0.1268,0.0,0.0,0.0,0.0,0.0,0.0,0.0,0.0,0.0,0.0,0.0,0.0,0.0,0.0,0.0,0.0,0.0,0.0,0.0,0.0,0.0,0.0,0.0,0.0,1.4855,0.0,0.0,1.5303,0.0,0.0,1.668,1.706,1.7073,1.7168,1.7229,1.7195,1.7297,1.7311,1.7148,1.6822,1.6727,1.6978,1.6754,1.6788,1.7168,1.7161,1.6985,1.6625,1.6856,1.6809,0.0,0.0,0.0,0.0,1.4896,1.4536,1.4563,0.0,0.0,0.0,0.0,1.6971,1.7202,1.7555,1.7772,1.7914,1.7914,1.7935,1.7968,1.8091,1.8145,1.8124,1.8002,1.7968,1.7989,1.8111,1.8145,1.8158,1.8287,1.8321,1.8321,1.8321,1.8301,1.8267,1.8267,1.8247,1.8213,1.8213,1.8213,1.8233,1.8267,1.8301,1.7947,1.7252,1.6563,0.0,0.0,0.0,0.0,0.0,0.0,0.0,0.0,0.0,0.0,0.0,0.0,0.0,0.0,0.0,0.0,0.6147,0.238,0.223,0.0,0.0,0.2603,0.1527,0.0,0.111,0.1144,0.1367,0.161,0.1648,0.1648,0.1648,0.1648,0.1648,0.0942,0.0,0.0,0.0,0.0,0.0,0.0,0.0,0.0,0.0,0.0,0.0,0.0,0.0,0.0,0.0,0.0,0.0,1.6883,1.6775,1.7311,1.7392,1.7344,1.7209,1.7202,1.6944,1.6266,1.6653,1.6558,1.5655,1.6442,1.6781,1.6429,1.6788,1.6978,1.6937,1.6965,1.6958,0.0,0.0,0.0,0.0,0.0,0.0,0.0,0.0,0.0,0.0,1.7053,1.7392,1.7792,1.7826,1.7935,1.8077,1.8077,1.8158,1.8287,1.8287,1.8301,1.8301,1.8287,1.8287,1.8287,1.8301,1.8301,1.8301,1.8321,1.8321,1.8321,1.8321,1.8213,1.8111,1.8111,1.8002,1.7901,1.7901,1.7901,1.7948,1.8091,1.8233,1.8301,1.8247,1.7672,1.7197,0.0,0.0,0.0,0.0,0.0,0.0,0.0,0.0,0.0,0.0,1.1696,0.0,0.0,1.014,0.0,0.0,0.0,0.0,0.51,0.9947,1.0804,0.6761,0.5674,0.5143,0.5154,0.6186,0.6895,0.6817,0.6817,0.6809,0.6809,0.6809,0.4231,0.0,0.0,0.0,0.0,0.0,0.0,0.0,0.0,0.0,0.0,0.0,0.0,0.0,0.0,0.0,0.0,0.0,1.6781,1.691,1.7243,1.7209,1.7134,1.7073,1.7066,1.6944,1.6646,1.6842,1.6802,1.6381,1.6748,1.6904,1.672,1.6883,1.6978,1.6978,1.6978,1.6978,0.0,0.0,0.0,0.0,0.0,0.0,0.0,0.0,1.6856,1.7127,1.746,1.7758,1.8002,1.8002,1.8091,1.8233,1.8233,1.8267,1.8335,1.8409,1.8443,1.8464,1.8552,1.8464,1.8335,1.8423,1.8443,1.8464,1.8552,1.8586,1.8586,1.8586,1.8531,1.8498,1.8498,1.8375,1.8267,1.8267,1.8199,1.8158,1.8213,1.8287,1.8321,1.8321,1.8179,1.786,0.0,0.0,0.0,0.0,0.0,0.0,0.0,0.0,0.0,0.0,0.0,0.0,0.0,0.0,0.0,0.0,0.0,0.0,0.7369,0.0,1.0284,1.0971,1.0371,0.9795,0.8941,0.9561,1.0273,1.0845,1.1839,1.2136,1.2188,1.2188,1.0985,0.9073,0.5963,0.4767,0.4773,0.4773,0.4773,0.4291,0.1187,0.0,0.0,1.6815,0.0,1.6198,0.0,1.6422,1.6524,1.6395,1.6788,1.708,1.7005,1.706,1.7114,1.7114,1.7114,1.7039,1.6863,1.7005,1.6978,1.6666,1.6937,1.7053,1.6917,1.7039,0.0,1.7114,1.7114,1.7114,1.7114,1.6619,0.0,0.0,0.0,0.0,0.0,1.7039,1.7324,1.748,1.7792,1.8023,1.8158,1.8158,1.8247,1.8389,1.8389,1.8409,1.8464,1.8565,1.8599,1.862,1.8728,1.862,1.8464,1.8565,1.8599,1.862,1.8728,1.8762,1.8762,1.8762,1.8728,1.8694,1.8694,1.8586,1.8464,1.8409,1.8321,1.8267,1.8301,1.8355,1.8389,1.8443,1.8443,1.8247,1.765,0.0,0.0,0.0,0.0,0.0,0.0,0.0,1.658,1.6309,1.5084,0.0,0.0,0.0,0.0,0.0,0.0,0.0,0.0,0.0,0.0,1.3135,1.2927,1.2346,1.1545,1.1805,1.2293,1.3263,1.4791,1.5374,1.5445,1.5445,1.5456,1.5216,1.1319,0.9875,1.0119,1.0119,1.0119,0.9865,0.5977,0.3579,0.2385,1.6978,1.6971,1.7012,1.7154,1.7182,1.7032,1.6585,1.7032,1.7202,1.6605,1.7046,1.7412,1.7412,1.7412,1.7175,1.6578,1.7073,1.6978,1.5934,1.6842,1.7216,0.0,0.0,1.7412,1.7412,1.7412,1.7412,1.7412,0.0,0.0,1.6971,0.0,1.7175,1.7202,1.765,1.7935,1.8077,1.8091,1.8179,1.8321,1.8321,1.8409,1.8531,1.8531,1.862,1.8762,1.8762,1.8762,1.8762,1.8762,1.8762,1.8762,1.8762,1.8762,1.8762,1.8762,1.8762,1.8762,1.8762,1.8654,1.8531,1.8531,1.8423,1.8287,1.8124,1.8091,1.8145,1.8287,1.8423,1.8565,1.8728,1.8762,1.8565,1.7948,0.0,0.0,0.0,0.0,0.0,0.0,1.657,1.6536,1.6931,1.5615,0.0,0.0,0.0,0.0,0.0,0.0,0.0,1.3232,1.3424,0.0,1.3104,1.2452,1.2098,1.2227,1.3032,1.332,1.3325,1.486,1.5391,1.5391,1.5391,1.5401,1.5429,1.447,1.4725,1.5718,1.5734,1.5734,1.5718,1.5718,1.2301,0.77,1.6164,1.672,1.7168,1.6795,1.7073,1.7263,1.7019,1.7141,1.7195,1.7005,1.7148,1.7304,1.7412,1.7324,1.7148,0.0,1.6727,1.6653,0.0,1.6741,1.6883,1.7046,1.6998,1.6965,1.6965,1.6965,1.6965,1.6965,0.0,0.0,0.0,1.7168,1.7412,1.7812,1.7948,1.8111,1.8247,1.8247,1.8335,1.8464,1.8464,1.8552,1.8694,1.8694,1.8728,1.8762,1.8762,1.8762,1.8762,1.8762,1.8762,1.8762,1.8762,1.8762,1.8762,1.8762,1.8762,1.8762,1.8762,1.8728,1.8694,1.8694,1.8565,1.8443,1.8409,1.8321,1.8267,1.8301,1.8423,1.8552,1.8599,1.8694,1.8565,1.7968,1.8213,0.0,0.0,0.0,0.0,0.0,1.7175,1.708,0.0,1.6889,0.0,0.0,0.0,0.0,0.0,0.0,0.0,0.0,1.2714,0.0,1.1948,1.1749,1.2114,1.2329,1.2592,1.3153,1.425,1.4536,1.5081,1.5641,1.5641,1.5641,1.5657,1.4912,1.4922,1.5171,1.4689,1.4446,1.4431,1.4628,1.3862,1.2387,1.6327,1.6822,1.7216,1.6836,1.7087,1.7249,1.6978,1.7182,1.7283,1.7053,1.727,1.746,1.75,1.7419,0.0,1.7236,1.7026,1.7012,1.729,1.7134,1.7148,1.7433,1.7263,1.7168,1.7168,0.0,0.0,1.7168,1.7324,1.7473,1.7616,1.7555,1.7758,1.8179,1.8111,1.8213,1.8409,1.8409,1.8477,1.862,1.862,1.8674,1.8762,1.8762,1.8762,1.8762,1.8762,1.8762,1.8762,1.8762,1.8762,1.8762,1.8762,1.8762,1.8762,1.8762,1.8762,1.8762,1.8762,1.8762,1.8762,1.8762,1.8694,1.8599,1.8552,1.8423,1.8335,1.8389,1.8477,1.8552,1.8599,1.8694,1.864,1.8267,1.8518,1.864,1.8253,0.0,0.0,0.0,0.0,0.0,0.0,1.7589,1.7157,0.0,0.0,0.0,0.0,0.0,0.0,1.4054,1.2738,1.1988,1.1366,1.1917,1.2254,1.2373,1.2924,1.3765,1.516,1.516,1.5186,1.5505,1.5505,1.5271,1.5021,1.4276,1.4286,1.4276,1.3786,1.3541,1.3777,1.3978,1.4207,1.4197,1.7121,1.7154,0.0,0.0,1.7195,0.0,1.6666,1.7202,1.746,1.689,1.7426,1.7812,1.7684,1.767,1.7684,1.7684,0.0,0.0,0.0,1.7846,1.7846,1.788,1.786,1.7846,1.7846,1.7846,1.786,1.7901,1.8036,1.8179,1.8321,1.8179,1.8199,1.8321,1.8179,1.8287,1.8552,1.8552,1.864,1.8762,1.8762,1.8762,1.8762,1.8762,1.8762,1.8762,1.8762,1.8762,1.8762,1.8762,1.8762,1.8762,1.8762,1.8762,1.8762,1.8762,1.8762,1.8762,1.8762,1.8762,1.8762,1.8762,1.8762,1.8728,1.8586,1.8443,1.8389,1.8511,1.8552,1.8586,1.8742,1.8762,1.8762,1.8762,1.8762,1.8742,1.8728,0.0,0.0,0.0,0.0,0.0,0.0,1.7914,1.7968,0.0,0.0,0.0,0.0,0.0,1.451,1.4891,1.359,1.2425,1.1824,1.2383,1.2803,1.2637,1.403,1.516,1.5755,1.5755,1.526,1.4771,1.4771,1.4276,1.3786,1.3056,1.3056,1.3541,1.3056,1.3056,1.3541,1.3541,1.3541,1.3541,0.0,0.0,1.7256,1.6917,1.7236,1.7507,1.7399,1.7629,1.7717,1.7467,1.7684,1.7846,1.7812,1.7914,1.7982,1.7982,1.75,1.7378,1.7826,1.765,1.7684,1.8023,1.7826,1.7704,1.7704,1.7704,1.786,1.8213,1.8247,1.8287,1.8321,1.8287,1.8335,1.8477,1.8443,1.8531,1.8708,1.8708,1.8728,1.8762,1.8762,1.8762,1.8762,1.8762,1.8762,1.8762,1.8762,1.8762,1.8762,1.8762,1.8762,1.8762,1.8762,1.8762,1.8762,1.8762,1.8762,1.8762,1.8762,1.8762,1.8762,1.8762,1.8762,1.8742,1.8708,1.8674,1.8674,1.8708,1.8708,1.8728,1.8762,1.8762,1.8762,1.8762,1.8762,1.864,1.8301,1.8165,0.0,0.0,1.7738,1.7914,1.8023,1.8355,1.843,0.0,0.0,0.0,1.8091,1.6564,1.5518,1.4989,1.2709,1.1854,1.2236,1.2497,1.3093,1.4045,1.5144,1.5229,1.5021,1.5021,1.4771,1.4036,1.4036,1.4036,1.3786,1.3056,1.2806,1.3056,1.232,1.2074,1.232,1.232,1.232,1.232,1.6639,1.7134,1.7548,1.7304,1.7528,1.7738,1.7738,1.788,1.7935,1.786,1.7982,1.8077,1.8077,1.8145,1.8213,1.8287,1.786,1.7724,1.8057,1.7914,1.7935,1.8179,1.8036,1.7948,1.7948,1.7948,1.8111,1.8409,1.8409,1.8464,1.8518,1.8443,1.8498,1.864,1.8565,1.862,1.8762,1.8762,1.8762,1.8762,1.8762,1.8762,1.8762,1.8762,1.8762,1.8762,1.8762,1.8762,1.8762,1.8762,1.8762,1.8762,1.8762,1.8762,1.8762,1.8762,1.8762,1.8762,1.8762,1.8762,1.8762,1.8762,1.8762,1.8762,1.8762,1.8762,1.8762,1.8762,1.8762,1.8762,1.8762,1.8762,1.8762,1.8762,1.8586,1.8375,1.8124,1.7914,0.0,1.7738,1.7948,1.8179,1.8375,1.862,1.8654,1.8409,1.8213,0.0,1.8389,1.7136,1.5852,1.501,1.344,1.2556,1.2373,1.3177,1.403,1.5176,1.5229,1.5266,1.4771,1.4521,1.4036,1.3292,1.3292,1.3056,1.2806,1.257,1.232,1.232,1.1837,1.1833,1.1833,1.1833,1.1833,1.1833,1.7684,1.7772,1.786,1.7901,1.7901,1.7901,1.7935,1.8057,1.8158,1.8158,1.8287,1.8389,1.8389,1.8389,1.8443,1.8552,1.8464,1.8389,1.8389,1.8389,1.8389,1.8389,1.8389,1.8389,1.8389,1.8389,1.8443,1.8565,1.8565,1.864,1.8762,1.862,1.864,1.8762,1.862,1.864,1.8762,1.8762,1.8762,1.8762,1.8762,1.8762,1.8762,1.8782,1.8796,1.8796,1.8816,1.883,1.883,1.883,1.883,1.883,1.883,1.883,1.883,1.8796,1.8796,1.8796,1.8762,1.8762,1.8762,1.8762,1.8762,1.8762,1.8762,1.8762,1.8762,1.8762,1.8762,1.8762,1.8762,1.8762,1.8742,1.8674,1.8342,1.8077,1.8002,0.0,1.767,1.8036,1.8145,1.8342,1.8728,1.8762,1.8762,1.8762,1.8409,1.8375,1.8782,1.7633,1.6458,1.5304,1.4712,1.3818,1.265,1.4045,1.516,1.5755,1.5021,1.4526,1.4521,1.3791,1.3301,1.2561,1.2561,1.232,1.1833,1.1833,1.1833,1.1833,1.1833,1.1833,1.1833,1.1833,1.1833,1.1833,1.7826,1.7846,1.7901,1.8036,1.8057,1.8091,1.8233,1.8375,1.8464,1.8464,1.8599,1.8694,1.8694,1.8694,1.8708,1.8728,1.8708,1.8694,1.8694,1.8694,1.8694,1.8694,1.8694,1.8694,1.8694,1.8694,1.8708,1.8728,1.8728,1.8742,1.8762,1.8742,1.8742,1.8762,1.8742,1.8742,1.8762,1.8762,1.8762,1.8762,1.8762,1.8762,1.8782,1.8905,1.8959,1.8972,1.9094,1.9128,1.9128,1.9128,1.9128,1.9128,1.9128,1.9128,1.9115,1.8993,1.8959,1.8918,1.8796,1.8762,1.8762,1.8762,1.8762,1.8762,1.8762,1.8762,1.8762,1.8762,1.8762,1.8762,1.8762,1.8762,1.864,1.8253,1.8145,1.7948,1.7575,0.0,1.8023,1.8091,1.843,1.8694,1.8762,1.8762,1.8762,1.8762,1.8694,1.8742,1.8938,1.8677,1.8026,1.6989,1.5347,1.4455,1.43,1.516,1.5229,1.5021,1.4286,1.3541,1.3056,1.3056,1.257,1.2083,1.2083,1.1837,1.1833,1.1833,1.1833,1.1833,1.1833,1.1833,1.1833,1.1833,1.1833,1.1833,1.8091,1.8165,1.8267,1.843,1.8443,1.8477,1.8552,1.862,1.8654,1.8654,1.8728,1.8762,1.8762,1.8762,1.8762,1.8762,1.8762,1.8762,1.8762,1.8762,1.8762,1.8762,1.8762,1.8762,1.8762,1.8762,1.8762,1.8762,1.8762,1.8762,1.8762,1.8762,1.8762,1.8762,1.8762,1.8762,1.8762,1.8762,1.8762,1.8762,1.885,1.8884,1.8905,1.9047,1.9094,1.9115,1.9183,1.9203,1.9203,1.9203,1.9203,1.9203,1.9203,1.9203,1.9183,1.9128,1.8993,1.885,1.8782,1.8762,1.8762,1.8762,1.8762,1.8762,1.8762,1.8762,1.8762,1.8762,1.8762,1.8762,1.8762,1.8762,1.8694,1.8477,1.8253,0.0,0.0,1.7968,1.8091,1.8091,1.8477,1.8762,1.8762,1.8762,1.8796,1.8884,1.8884,1.8959,1.9094,1.9183,1.9026,1.8362,1.6684,1.5543,1.5176,1.5467,1.5255,1.4286,1.3541,1.3056,1.2806,1.2324,1.2074,1.1833,1.1833,1.1833,1.1833,1.1833,1.1833,1.1833,1.1833,1.1833,1.1833,1.1833,1.1833,1.1833,1.8389,1.8511,1.862,1.8742,1.8762,1.8762,1.8762,1.8762,1.8762,1.8762,1.8762,1.8762,1.8762,1.8762,1.8762,1.8762,1.8762,1.8762,1.8762,1.8762,1.8762,1.8762,1.8762,1.8762,1.8762,1.8762,1.8762,1.8762,1.8762,1.8762,1.8762,1.8762,1.8762,1.8762,1.8762,1.8782,1.8816,1.8816,1.883,1.8871,1.8993,1.904,1.9061,1.9203,1.9257,1.9257,1.9291,1.9305,1.9305,1.9305,1.9305,1.9305,1.9305,1.9305,1.9305,1.9271,1.9061,1.8871,1.8871,1.883,1.8816,1.8816,1.8782,1.8762,1.8762,1.8762,1.8762,1.8762,1.8762,1.8762,1.8762,1.8762,1.8728,1.862,0.0,0.0,0.0,1.8091,1.8124,1.8233,1.8586,1.8816,1.8816,1.885,1.8918,1.9027,1.904,1.9094,1.9257,1.9359,1.9468,1.9535,1.8077,1.6912,1.6266,1.6294,1.5558,1.4075,1.3329,1.2828,1.2557,1.2083,1.1833,1.1833,1.1833,1.1833,1.1833,1.1833,1.1833,1.1833,1.1833,1.1833,1.1833,1.1833,1.1833,1.1833,1.8728,1.8742,1.8742,1.8762,1.8762,1.8762,1.8762,1.8762,1.8762,1.8762,1.8762,1.8762,1.8762,1.8762,1.8762,1.8762,1.8762,1.8762,1.8762,1.8762,1.8762,1.8762,1.8762,1.8762,1.8762,1.8762,1.8762,1.8762,1.8762,1.8762,1.8762,1.8762,1.8762,1.8762,1.8762,1.883,1.8972,1.8972,1.9047,1.9169,1.9183,1.9183,1.9203,1.9359,1.9413,1.9434,1.9576,1.9624,1.9624,1.9624,1.9624,1.9624,1.9624,1.9624,1.959,1.9447,1.9291,1.9169,1.9169,1.9081,1.8972,1.8972,1.8871,1.8762,1.8762,1.8762,1.8762,1.8762,1.8762,1.8762,1.8762,1.8762,1.862,1.8213,0.0,0.0,1.8091,1.8091,1.8253,1.8654,1.8871,1.8972,1.8972,1.9094,1.9169,1.9183,1.9183,1.9257,1.9413,1.9427,1.9556,1.9834,1.9834,1.911,1.7634,1.7754,1.7021,1.4914,1.4177,1.3137,1.1837,1.1833,1.1833,1.1833,1.1833,1.1833,1.1833,1.1833,1.1833,1.1833,1.1833,1.1833,1.1833,1.1833,1.1833,1.1833,1.8762,1.8762,1.8762,1.8762,1.8762,1.8762,1.8762,1.8762,1.8762,1.8762,1.8762,1.8762,1.8762,1.8762,1.8762,1.8762,1.8762,1.8762,1.8762,1.8762,1.8762,1.8762,1.8762,1.8762,1.8762,1.8762,1.8762,1.8762,1.8762,1.8762,1.8762,1.8762,1.8762,1.8762,1.8871,1.8938,1.8993,1.9081,1.9149,1.9203,1.9305,1.9345,1.9359,1.9522,1.9576,1.9576,1.9644,1.9664,1.9664,1.9664,1.9664,1.9664,1.9664,1.9664,1.9644,1.959,1.9535,1.9488,1.9488,1.9305,1.9115,1.9115,1.9006,1.8905,1.8905,1.883,1.8762,1.8762,1.8762,1.8762,1.8762,1.883,1.885,1.8674,0.0,1.8776,1.8776,1.8776,1.885,1.9006,1.9081,1.9115,1.9115,1.9169,1.9237,1.9345,1.9345,1.9413,1.9569,1.9657,1.98,2.001,2.0098,1.9352,1.8027,1.8069,1.6784,1.4439,1.4186,1.315,1.1833,1.1833,1.1833,1.1833,1.1833,1.1833,1.1833,1.1833,1.1833,1.1833,1.1833,1.1833,1.1833,1.1833,1.1833,1.1833,1.8762,1.8762,1.8762,1.8762,1.8762,1.8762,1.8762,1.8762,1.8762,1.8762,1.8762,1.8762,1.8762,1.8762,1.8762,1.8762,1.8762,1.8762,1.8762,1.8762,1.8762,1.8762,1.8762,1.8762,1.8762,1.8762,1.8762,1.8762,1.8762,1.8762,1.8762,1.8816,1.883,1.883,1.8993,1.9081,1.9128,1.9237,1.9305,1.9359,1.9468,1.9501,1.9522,1.9624,1.9664,1.9664,1.9664,1.9664,1.9664,1.9664,1.9664,1.9664,1.9664,1.9664,1.9664,1.9664,1.9664,1.9664,1.9664,1.9501,1.9345,1.9291,1.9169,1.9061,1.9061,1.9006,1.8959,1.8905,1.8938,1.8959,1.8905,1.8993,1.9061,1.9061,1.9128,1.9203,1.9203,1.9203,1.9203,1.9203,1.9237,1.9271,1.9271,1.9325,1.9393,1.9501,1.9501,1.9569,1.9712,1.9875,2.001,2.0173,2.0275,1.9793,1.8981,1.873,1.7655,1.5275,1.4995,1.3934,1.2367,1.2091,1.1833,1.1833,1.1833,1.1833,1.1833,1.1833,1.1833,1.1833,1.1833,1.1833,1.1833,1.1833,1.1833,1.1833,1.8762,1.8762,1.8762,1.8762,1.8762,1.8762,1.8762,1.8762,1.8762,1.8762,1.8762,1.8762,1.8762,1.8762,1.8762,1.8762,1.8762,1.8762,1.8762,1.8762,1.8762,1.8762,1.8762,1.8762,1.8762,1.8762,1.8762,1.8762,1.8762,1.8762,1.8762,1.8918,1.8993,1.8993,1.9149,1.9291,1.9434,1.9434,1.9522,1.9664,1.9664,1.9664,1.9664,1.9664,1.9664,1.9664,1.9664,1.9664,1.9664,1.9664,1.9664,1.9664,1.9664,1.9664,1.9664,1.9664,1.9664,1.9664,1.9664,1.9664,1.9624,1.9468,1.9325,1.9203,1.9203,1.9325,1.9393,1.9237,1.9325,1.9379,1.9237,1.9203,1.9203,1.9203,1.9203,1.9203,1.9203,1.9203,1.9203,1.9203,1.9345,1.9434,1.9434,1.9569,1.9664,1.9664,1.9664,1.9732,1.9875,2.001,2.0173,2.0329,2.0329,2.0397,2.0539,2.0539,1.9711,1.8295,1.6903,1.5539,1.3939,1.2613,1.1833,1.1833,1.1833,1.1833,1.1833,1.1833,1.1833,1.1833,1.1833,1.1833,1.1833,1.1833,1.1833,1.1833,1.8762,1.8762,1.8762,1.8762,1.8762,1.8762,1.8762,1.8762,1.8762,1.8762,1.8762,1.8762,1.8762,1.8762,1.8762,1.8762,1.8762,1.8762,1.8762,1.8762,1.8762,1.8762,1.8762,1.8762,1.8762,1.8762,1.8762,1.8762,1.8871,1.8918,1.8918,1.9081,1.9128,1.9149,1.9291,1.9393,1.9434,1.9556,1.9624,1.9664,1.9664,1.9664,1.9664,1.9664,1.9664,1.9664,1.9664,1.9664,1.9664,1.9664,1.9664,1.9664,1.9664,1.9664,1.9664,1.9664,2.0213,2.0541,2.0541,2.0872,2.116,2.0506,2.0359,2.0267,2.038,2.0359,2.0302,2.0246,1.9805,1.9784,2.0098,1.9681,1.9488,1.9379,1.9447,1.9522,1.9522,1.9522,1.9522,1.9522,1.9576,1.959,1.959,1.9624,1.9698,1.98,1.9908,2.0031,2.0187,2.0241,2.0329,2.0471,2.0471,2.0505,2.0539,2.0539,1.9711,1.8295,1.8001,1.6915,1.5539,1.3939,1.3397,1.3397,1.2354,1.1833,1.1833,1.1833,1.1833,1.1833,1.1833,1.1833,1.1833,1.1833,1.1833,1.1833,1.8762,1.8762,1.8762,1.8762,1.8762,1.8762,1.8762,1.8762,1.8762,1.8762,1.8762,1.8762,1.8762,1.8762,1.8762,1.8762,1.8762,1.8762,1.8762,1.8762,1.8762,1.8762,1.8762,1.8762,1.8762,1.8762,1.8796,1.885,1.8938,1.9027,1.9081,1.9217,1.9291,1.9305,1.9447,1.9522,1.9522,1.9624,1.9664,1.9664,1.9664,1.9664,1.9664,1.9664,1.9664,1.9664,1.9664,1.9664,1.9664,1.9664,1.9664,1.9664,1.9664,1.9664,1.9664,1.9664,1.9969,2.0541,2.0829,2.1168,2.1748,2.177,2.1667,2.1319,2.1414,2.1414,2.1377,2.1319,2.1103,2.0864,2.0937,2.0743,2.0541,2.0199,2.0269,2.0072,1.9841,1.9841,1.9841,1.9841,1.9841,1.9841,1.9841,1.9841,1.9875,1.9963,2.0098,2.0227,2.0329,2.0383,2.0451,2.0539,2.0539,2.0539,2.0539,2.0539,1.9985,1.914,1.8572,1.8001,1.6921,1.5539,1.4478,1.3934,1.3137,1.2354,1.1833,1.1833,1.1833,1.1833,1.1833,1.1833,1.1833,1.1833,1.1833,1.1833,1.8762,1.8762,1.8762,1.8762,1.8762,1.8762,1.8762,1.8762,1.8762,1.8782,1.8782,1.8782,1.8782,1.8782,1.8782,1.8762,1.8762,1.8762,1.8762,1.8762,1.8762,1.8762,1.8782,1.8782,1.8782,1.8782,1.885,1.9006,1.9027,1.9094,1.9217,1.9379,1.9447,1.9468,1.959,1.9664,1.9664,1.9664,1.9664,1.9664,1.9664,1.9664,1.9664,1.9664,1.9664,1.9664,1.9664,1.9664,1.9664,1.9664,1.9664,1.9664,1.9664,1.9664,1.9664,1.9664,1.9664,1.9949,2.0829,2.1124,2.1457,2.302,2.299,2.2378,2.237,2.2491,2.2574,2.2167,2.2241,2.2301,2.2144,2.2107,2.1844,2.1348,2.1092,2.0837,2.0354,2.0105,2.0105,2.0105,2.0098,2.0098,2.0098,2.0119,2.0119,2.0119,2.0261,2.0349,2.0349,2.0471,2.0539,2.0539,2.0526,2.0526,2.0526,2.0505,2.0526,2.0539,1.9134,1.8566,1.8566,1.7171,1.5555,1.4464,1.4201,1.3397,1.2091,1.2091,1.1837,1.1833,1.1833,1.1833,1.1833,1.1833,1.1833,1.1833,1.8762,1.8762,1.8762,1.8762,1.8762,1.8762,1.8762,1.8762,1.8796,1.8918,1.8938,1.8938,1.8938,1.8938,1.8884,1.8782,1.8762,1.8762,1.8762,1.8762,1.8762,1.8762,1.8884,1.8938,1.8938,1.8938,1.9006,1.9149,1.9271,1.9345,1.9379,1.9535,1.961,1.961,1.9644,1.9664,1.9664,1.9664,1.9664,1.9664,1.9664,1.9664,1.9664,1.9664,1.9664,1.9664,1.9664,1.9664,1.9664,1.9664,1.9664,1.9664,1.9664,1.9664,1.9664,1.9664,2.0234,2.0829,2.1741,2.2378,2.302,2.3984,2.4259,2.3984,2.3472,2.3236,2.3259,2.3221,2.2992,2.2732,2.3059,2.2771,2.2234,2.1844,2.1829,2.1589,2.1092,2.1092,2.0851,2.0354,2.0105,2.0105,2.0098,2.0207,2.0275,2.0275,2.0417,2.0485,2.0485,2.0526,2.0539,2.0539,2.0438,2.0383,2.0383,2.0261,2.0315,2.0539,2.0258,1.9985,1.9985,1.8566,1.7732,1.7439,1.6342,1.4995,1.3411,1.3411,1.2872,1.1833,1.1833,1.1833,1.1833,1.1833,1.1833,1.1833,1.8298,1.8284,1.8517,1.8762,1.8762,1.8782,1.8871,1.8871,1.8918,1.9081,1.9094,1.9094,1.9094,1.9094,1.9027,1.8884,1.8871,1.8871,1.8871,1.8871,1.8905,1.8972,1.9047,1.9128,1.9203,1.9203,1.9237,1.9305,1.9393,1.9468,1.9535,1.9624,1.9664,1.9664,1.9664,1.9664,1.9664,1.9664,1.9664,1.9664,1.9664,1.9664,1.9664,1.9664,1.9664,1.9664,1.9664,1.9664,1.9664,1.9664,1.9664,1.9664,1.9664,1.9664,1.9664,1.9664,1.9949,2.0541,2.1428,2.1785,2.24,2.3661,2.3968,2.3984,2.4063,2.4087,2.4087,2.4087,2.3842,2.3566,2.3984,2.37,2.3433,2.2839,2.2574,2.2058,2.1571,2.1055,2.0811,2.0315,2.0315,2.0315,2.0315,2.0383,2.0438,2.0438,2.0505,2.0539,2.0539,2.0471,2.0438,2.0438,2.0295,2.0227,2.0227,2.0139,2.0173,2.0329,2.0329,2.0329,2.0329,1.9489,1.8917,1.8106,1.7275,1.6187,1.4847,1.4114,1.3342,1.257,1.2083,1.1833,1.1833,1.1833,1.1833,1.1833,1.7588,1.7839,1.8331,1.9261,1.9056,1.9104,1.9711,1.9255,1.9081,1.9217,1.9237,1.9237,1.9237,1.9217,1.9149,1.904,1.9027,1.9027,1.9027,1.9027,1.9081,1.9203,1.9217,1.9305,1.9434,1.9447,1.9468,1.9468,1.9468,1.9535,1.9664,1.9664,1.9664,1.9664,1.9664,1.9664,1.9664,1.9664,1.9664,1.9664,1.9664,1.9664,1.9664,1.9664,1.9664,1.9664,1.9664,1.9664,1.9664,1.9664,1.9664,1.9664,1.9664,1.9664,1.9664,1.9664,1.9664,1.9928,2.0563,2.085,2.1168,2.2717,2.3293,2.334,2.4267,2.4568,2.4592,2.4592,2.4592,2.4592,2.4592,2.4592,2.4331,2.3826,2.3336,2.2569,2.2055,2.1287,2.0786,2.08,2.0546,2.0539,2.0539,2.0526,2.0505,2.0505,2.0485,2.0471,2.0471,2.0349,2.0295,2.0295,2.0139,2.0064,2.0064,2.0031,2.0031,2.0031,2.0031,2.0051,2.0098,2.0098,1.9535,1.8182,1.8182,1.7363,1.6016,1.5047,1.4296,1.3786,1.257,1.2083,1.1833,1.1833,1.1833,1.1833,1.7588,1.8403,1.9662,2.1969,2.0452,1.9845,2.2213,2.0583,1.9217,1.9379,1.9393,1.9393,1.9393,1.9291,1.9203,1.9169,1.9169,1.9169,1.9169,1.9169,1.9183,1.9203,1.9325,1.9413,1.9434,1.9556,1.9624,1.9624,1.9624,1.9644,1.9664,1.9664,1.9664,1.9664,1.9664,1.9664,1.9664,1.9664,1.9664,1.9664,1.9664,1.9664,1.9664,1.9664,1.9664,1.9664,1.9664,1.9664,1.9664,1.9664,1.9664,1.9664,1.9664,1.9664,1.9664,1.9664,1.9664,1.9928,2.0563,2.085,2.1139,2.2062,2.2355,2.24,2.334,2.3984,2.4592,2.4592,2.4592,2.4592,2.4592,2.4592,2.4592,2.4584,2.4331,2.4087,2.3053,2.2301,2.1794,2.1816,2.1047,2.0539,2.0539,2.0438,2.0363,2.0363,2.0241,2.0153,2.0153,2.0139,2.0139,2.0139,1.9976,1.9908,1.9908,1.9786,1.9712,1.9712,1.9712,1.9854,2.0098,2.0098,2.0098,1.983,1.983,1.8993,1.7628,1.7375,1.5842,1.3786,1.3541,1.2806,1.1833,1.1833,1.1833,1.1833,2.1627,2.1081,2.1202,2.4458,2.4294,2.3447,2.309,2.3335,2.2687,2.0012,2.075,2.1225,1.9805,1.9501,1.9434,1.9345,1.9325,1.9325,1.9325,1.9325,1.9359,1.9447,1.9522,1.9556,1.9556,1.9624,1.9664,1.9664,1.9664,1.9664,1.9664,1.9664,1.9664,1.9664,1.9664,1.9664,1.9664,1.9664,1.9664,1.9664,1.9664,1.9664,1.9664,1.9664,1.9664,1.9664,1.9664,1.9664,1.9664,1.9664,1.9664,1.9664,1.9664,1.9664,1.9664,1.9664,1.9664,1.9678,2.0234,2.0234,2.052,2.116,2.145,2.177,2.302,2.3637,2.3968,2.4568,2.4592,2.4592,2.4592,2.4592,2.4592,2.4592,2.4348,2.4087,2.4103,2.3075,2.2286,2.1708,2.0853,2.0295,2.0295,2.0241,2.0207,2.0207,2.0139,2.0098,2.0098,2.001,1.9976,1.9976,1.9841,1.9752,1.9752,1.9698,1.9664,1.9664,1.9664,1.9732,1.9854,1.9854,1.9854,1.9854,1.9854,1.9562,1.8781,1.8021,1.7018,1.5744,1.4276,1.3056,1.1833,1.1833,1.1833,1.1833]}]]